<?xml version='1.0' encoding='UTF-8'?><gpx version="1.1" creator="JPX - https://github.com/jenetics/jpx" xmlns="http://www.topografix.com/GPX/1/1"><trk><trkseg><trkpt lat="46.15449567658904" lon="9.761710060648547"><ele>271.0</ele><time>2026-03-28T14:41:12.528Z</time></trkpt><trkpt lat="46.15462912140708" lon="9.761737259247743"><ele>271.0</ele><time>2026-03-28T14:41:14.478Z</time></trkpt><trkpt lat="46.154761295636675" lon="9.76175689274199"><ele>271.0</ele><time>2026-03-28T14:41:17.324Z</time></trkpt><trkpt lat="46.154861387375135" lon="9.761798316922874"><ele>271.0</ele><time>2026-03-28T14:41:42.003Z</time></trkpt><trkpt lat="46.154786605411346" lon="9.761846096439452"><ele>271.0</ele><time>2026-03-28T14:41:45.003Z</time></trkpt><trkpt lat="46.154719541899" lon="9.76182297505397"><ele>271.0</ele><time>2026-03-28T14:41:47.002Z</time></trkpt><trkpt lat="46.15463362871808" lon="9.761810368158443"><ele>271.0</ele><time>2026-03-28T14:41:50.002Z</time></trkpt><trkpt lat="46.15454345157063" lon="9.76178464325816"><ele>271.0</ele><time>2026-03-28T14:41:53.001Z</time></trkpt><trkpt lat="46.1544564102433" lon="9.761791324941507"><ele>271.0</ele><time>2026-03-28T14:41:56.001Z</time></trkpt><trkpt lat="46.15437103100268" lon="9.76178000031599"><ele>271.0</ele><time>2026-03-28T14:41:58.001Z</time></trkpt><trkpt lat="46.154303208307674" lon="9.761778558140884"><ele>271.0</ele><time>2026-03-28T14:42:00.001Z</time></trkpt><trkpt lat="46.15422164833902" lon="9.761785839803093"><ele>271.0</ele><time>2026-03-28T14:42:02.001Z</time></trkpt><trkpt lat="46.15414768104665" lon="9.761787974261171"><ele>271.0</ele><time>2026-03-28T14:42:04Z</time></trkpt><trkpt lat="46.15406405572769" lon="9.761775469947327"><ele>271.0</ele><time>2026-03-28T14:42:06Z</time></trkpt><trkpt lat="46.15399107960505" lon="9.761784476252549"><ele>271.0</ele><time>2026-03-28T14:42:08Z</time></trkpt><trkpt lat="46.1539135782533" lon="9.761783731429158"><ele>271.0</ele><time>2026-03-28T14:42:10Z</time></trkpt><trkpt lat="46.1538303715544" lon="9.76180789826308"><ele>271.8</ele><time>2026-03-28T14:42:13Z</time></trkpt><trkpt lat="46.153812802296535" lon="9.76192512071207"><ele>272.6</ele><time>2026-03-28T14:42:15Z</time></trkpt><trkpt lat="46.153817701492784" lon="9.762067301367026"><ele>273.4</ele><time>2026-03-28T14:42:17Z</time></trkpt><trkpt lat="46.15380758005022" lon="9.762205423611993"><ele>274.2</ele><time>2026-03-28T14:42:19Z</time></trkpt><trkpt lat="46.15380380145397" lon="9.762373534061101"><ele>275.0</ele><time>2026-03-28T14:42:21Z</time></trkpt><trkpt lat="46.15379973135083" lon="9.762468357875866"><ele>275.0</ele><time>2026-03-28T14:42:22Z</time></trkpt><trkpt lat="46.1537950970971" lon="9.762564041647714"><ele>275.0</ele><time>2026-03-28T14:42:23Z</time></trkpt><trkpt lat="46.15378727095711" lon="9.76266341929822"><ele>275.0</ele><time>2026-03-28T14:42:24Z</time></trkpt><trkpt lat="46.1537817647428" lon="9.762764775887122"><ele>275.0</ele><time>2026-03-28T14:42:25Z</time></trkpt><trkpt lat="46.15378066364836" lon="9.762877068675376"><ele>275.0</ele><time>2026-03-28T14:42:26Z</time></trkpt><trkpt lat="46.15377293925276" lon="9.762986709539168"><ele>275.0</ele><time>2026-03-28T14:42:27Z</time></trkpt><trkpt lat="46.153768880173665" lon="9.763112367324275"><ele>275.0</ele><time>2026-03-28T14:42:28Z</time></trkpt><trkpt lat="46.15376542057572" lon="9.763233195507192"><ele>275.33333333333337</ele><time>2026-03-28T14:42:29Z</time></trkpt><trkpt lat="46.153758785580294" lon="9.763354453662668"><ele>275.6666666666667</ele><time>2026-03-28T14:42:29.999Z</time></trkpt><trkpt lat="46.153746553957205" lon="9.76348097230642"><ele>276.0</ele><time>2026-03-28T14:42:30.999Z</time></trkpt><trkpt lat="46.15373112711765" lon="9.763596708815225"><ele>276.3333333333333</ele><time>2026-03-28T14:42:31.999Z</time></trkpt><trkpt lat="46.1537291682035" lon="9.76370399752495"><ele>276.66666666666663</ele><time>2026-03-28T14:42:32.999Z</time></trkpt><trkpt lat="46.15372025361694" lon="9.76380229005041"><ele>277.0</ele><time>2026-03-28T14:42:33.999Z</time></trkpt><trkpt lat="46.15371557911929" lon="9.763970864460534"><ele>277.0</ele><time>2026-03-28T14:42:35.999Z</time></trkpt><trkpt lat="46.15371901093829" lon="9.764107065520196"><ele>277.0</ele><time>2026-03-28T14:42:37.999Z</time></trkpt><trkpt lat="46.153734715677636" lon="9.764206571849503"><ele>277.0</ele><time>2026-03-28T14:42:39.999Z</time></trkpt><trkpt lat="46.15364575442052" lon="9.764261680036775"><ele>277.0</ele><time>2026-03-28T14:44:13Z</time></trkpt><trkpt lat="46.153578683095475" lon="9.764258636478802"><ele>277.0</ele><time>2026-03-28T14:44:14Z</time></trkpt><trkpt lat="46.15351603663613" lon="9.764240475737862"><ele>277.0</ele><time>2026-03-28T14:44:15Z</time></trkpt><trkpt lat="46.15345112464817" lon="9.764214373129288"><ele>277.0</ele><time>2026-03-28T14:44:16Z</time></trkpt><trkpt lat="46.15338497309969" lon="9.764194494813562"><ele>277.0</ele><time>2026-03-28T14:44:17Z</time></trkpt><trkpt lat="46.153280740825466" lon="9.764174489783109"><ele>277.0</ele><time>2026-03-28T14:44:19Z</time></trkpt><trkpt lat="46.15316123954806" lon="9.764128173361577"><ele>277.0</ele><time>2026-03-28T14:44:21Z</time></trkpt><trkpt lat="46.15304100123371" lon="9.764119284927398"><ele>277.0</ele><time>2026-03-28T14:44:23Z</time></trkpt><trkpt lat="46.15297755038473" lon="9.76410460819716"><ele>277.2857142857143</ele><time>2026-03-28T14:44:24Z</time></trkpt><trkpt lat="46.15291321616485" lon="9.764091804096438"><ele>277.57142857142856</ele><time>2026-03-28T14:44:25Z</time></trkpt><trkpt lat="46.1528489642795" lon="9.76407541660769"><ele>277.85714285714283</ele><time>2026-03-28T14:44:26Z</time></trkpt><trkpt lat="46.1527849325755" lon="9.764059673494746"><ele>278.1428571428571</ele><time>2026-03-28T14:44:27Z</time></trkpt><trkpt lat="46.15271300464954" lon="9.764035109784738"><ele>278.42857142857144</ele><time>2026-03-28T14:44:28Z</time></trkpt><trkpt lat="46.152639826362" lon="9.764007263861066"><ele>278.71428571428567</ele><time>2026-03-28T14:44:29Z</time></trkpt><trkpt lat="46.152574865457034" lon="9.763979527522402"><ele>279.0</ele><time>2026-03-28T14:44:30Z</time></trkpt><trkpt lat="46.15250025509426" lon="9.763952964239328"><ele>279.0</ele><time>2026-03-28T14:44:31Z</time></trkpt><trkpt lat="46.152428121563254" lon="9.763925266862978"><ele>279.0</ele><time>2026-03-28T14:44:32Z</time></trkpt><trkpt lat="46.152356394657595" lon="9.763905336213758"><ele>279.0</ele><time>2026-03-28T14:44:33Z</time></trkpt><trkpt lat="46.15228131658123" lon="9.763886701167"><ele>279.0</ele><time>2026-03-28T14:44:34Z</time></trkpt><trkpt lat="46.15220514784954" lon="9.763862642616788"><ele>279.0</ele><time>2026-03-28T14:44:35Z</time></trkpt><trkpt lat="46.15213520463688" lon="9.763831298589574"><ele>279.0</ele><time>2026-03-28T14:44:36Z</time></trkpt><trkpt lat="46.15205841122038" lon="9.763825045518512"><ele>279.3333333333333</ele><time>2026-03-28T14:44:37Z</time></trkpt><trkpt lat="46.151992733485656" lon="9.763821894307563"><ele>279.6666666666667</ele><time>2026-03-28T14:44:38Z</time></trkpt><trkpt lat="46.15192915736234" lon="9.76381784908268"><ele>280.0</ele><time>2026-03-28T14:44:39Z</time></trkpt><trkpt lat="46.151801774860495" lon="9.763807691211564"><ele>280.33333333333337</ele><time>2026-03-28T14:44:41Z</time></trkpt><trkpt lat="46.15173520643394" lon="9.763807282375037"><ele>280.6666666666667</ele><time>2026-03-28T14:44:42Z</time></trkpt><trkpt lat="46.15166634743611" lon="9.76380449958353"><ele>281.0</ele><time>2026-03-28T14:44:43Z</time></trkpt><trkpt lat="46.151595791776145" lon="9.763802547806591"><ele>281.5</ele><time>2026-03-28T14:44:44Z</time></trkpt><trkpt lat="46.15152490412896" lon="9.76379683660064"><ele>282.0</ele><time>2026-03-28T14:44:45Z</time></trkpt><trkpt lat="46.15144994764454" lon="9.763807133086159"><ele>282.5</ele><time>2026-03-28T14:44:46Z</time></trkpt><trkpt lat="46.15138168291101" lon="9.763802711960444"><ele>283.0</ele><time>2026-03-28T14:44:47Z</time></trkpt><trkpt lat="46.15130603737424" lon="9.763797472011136"><ele>283.5</ele><time>2026-03-28T14:44:48Z</time></trkpt><trkpt lat="46.15120912842502" lon="9.76379353877662"><ele>284.0</ele><time>2026-03-28T14:44:50Z</time></trkpt><trkpt lat="46.1510894409567" lon="9.7637951364959"><ele>284.0</ele><time>2026-03-28T14:44:52Z</time></trkpt><trkpt lat="46.15101087348197" lon="9.763793866516966"><ele>284.0</ele><time>2026-03-28T14:44:53Z</time></trkpt><trkpt lat="46.15093039916233" lon="9.763798908160792"><ele>284.0</ele><time>2026-03-28T14:44:54Z</time></trkpt><trkpt lat="46.15085387690133" lon="9.763800362988523"><ele>284.0</ele><time>2026-03-28T14:44:54.999Z</time></trkpt><trkpt lat="46.15077774671271" lon="9.763797159832984"><ele>284.0</ele><time>2026-03-28T14:44:55.999Z</time></trkpt><trkpt lat="46.15070797818427" lon="9.763803796370825"><ele>284.0</ele><time>2026-03-28T14:44:56.999Z</time></trkpt><trkpt lat="46.15063108643148" lon="9.763821189179417"><ele>284.59999999999997</ele><time>2026-03-28T14:44:57.999Z</time></trkpt><trkpt lat="46.150561087541874" lon="9.763839540814425"><ele>285.2</ele><time>2026-03-28T14:44:58.999Z</time></trkpt><trkpt lat="46.15045606897449" lon="9.763855633719404"><ele>285.79999999999995</ele><time>2026-03-28T14:45:00.999Z</time></trkpt><trkpt lat="46.15037116515105" lon="9.763850543967168"><ele>286.4</ele><time>2026-03-28T14:45:03.999Z</time></trkpt><trkpt lat="46.15031856590073" lon="9.763916373603514"><ele>287.0</ele><time>2026-03-28T14:45:05.999Z</time></trkpt><trkpt lat="46.150350010513684" lon="9.764132142007234"><ele>287.0</ele><time>2026-03-28T14:45:07.999Z</time></trkpt><trkpt lat="46.15036797707412" lon="9.764258466459909"><ele>287.0</ele><time>2026-03-28T14:45:08.999Z</time></trkpt><trkpt lat="46.15037856816066" lon="9.764354353154495"><ele>287.0</ele><time>2026-03-28T14:45:09.999Z</time></trkpt><trkpt lat="46.15039255645296" lon="9.764503287020936"><ele>287.0</ele><time>2026-03-28T14:45:11.999Z</time></trkpt><trkpt lat="46.15030432268344" lon="9.764579507681473"><ele>287.0</ele><time>2026-03-28T14:45:13.999Z</time></trkpt><trkpt lat="46.1502234027769" lon="9.76457137751869"><ele>287.0</ele><time>2026-03-28T14:45:14.999Z</time></trkpt><trkpt lat="46.15013794439742" lon="9.76458274165038"><ele>287.33333333333337</ele><time>2026-03-28T14:45:15.999Z</time></trkpt><trkpt lat="46.15005768688267" lon="9.764615767246408"><ele>287.6666666666667</ele><time>2026-03-28T14:45:16.999Z</time></trkpt><trkpt lat="46.14999106995336" lon="9.764651372263437"><ele>288.0</ele><time>2026-03-28T14:45:17.999Z</time></trkpt><trkpt lat="46.14992188435029" lon="9.764684850945397"><ele>288.3333333333333</ele><time>2026-03-28T14:45:18.999Z</time></trkpt><trkpt lat="46.1498407014912" lon="9.764730158127549"><ele>288.66666666666663</ele><time>2026-03-28T14:45:19.999Z</time></trkpt><trkpt lat="46.14977335363652" lon="9.764771005102524"><ele>289.0</ele><time>2026-03-28T14:45:20.999Z</time></trkpt><trkpt lat="46.14970717286383" lon="9.764804028288138"><ele>289.8333333333333</ele><time>2026-03-28T14:45:21.999Z</time></trkpt><trkpt lat="46.149635189750626" lon="9.764837351929057"><ele>290.66666666666663</ele><time>2026-03-28T14:45:22.999Z</time></trkpt><trkpt lat="46.149556269392654" lon="9.764875631675865"><ele>291.5</ele><time>2026-03-28T14:45:23.999Z</time></trkpt><trkpt lat="46.14948160398819" lon="9.764913921511093"><ele>292.3333333333333</ele><time>2026-03-28T14:45:24.999Z</time></trkpt><trkpt lat="46.14940711696294" lon="9.76495256203077"><ele>293.1666666666667</ele><time>2026-03-28T14:45:25.999Z</time></trkpt><trkpt lat="46.149333522347455" lon="9.764988983459032"><ele>294.0</ele><time>2026-03-28T14:45:26.999Z</time></trkpt><trkpt lat="46.14926170653904" lon="9.765032649446294"><ele>294.0</ele><time>2026-03-28T14:45:27.999Z</time></trkpt><trkpt lat="46.14918624562985" lon="9.765073797473988"><ele>294.0</ele><time>2026-03-28T14:45:28.999Z</time></trkpt><trkpt lat="46.14910182247504" lon="9.76511123243974"><ele>294.0</ele><time>2026-03-28T14:45:29.999Z</time></trkpt><trkpt lat="46.14900132913033" lon="9.765154046831517"><ele>294.0</ele><time>2026-03-28T14:45:30.999Z</time></trkpt><trkpt lat="46.148892597795346" lon="9.765205721783445"><ele>294.0</ele><time>2026-03-28T14:45:31.999Z</time></trkpt><trkpt lat="46.14880028910792" lon="9.765270427257528"><ele>295.59999999999997</ele><time>2026-03-28T14:45:32.999Z</time></trkpt><trkpt lat="46.148708336289644" lon="9.765320520462339"><ele>297.2</ele><time>2026-03-28T14:45:33.999Z</time></trkpt><trkpt lat="46.14861314948943" lon="9.765364379095587"><ele>298.79999999999995</ele><time>2026-03-28T14:45:34.999Z</time></trkpt><trkpt lat="46.14852810492373" lon="9.765411002844901"><ele>300.4</ele><time>2026-03-28T14:45:35.999Z</time></trkpt><trkpt lat="46.148449828698524" lon="9.765455254453531"><ele>302.0</ele><time>2026-03-28T14:45:36.999Z</time></trkpt><trkpt lat="46.14837597344201" lon="9.76549730650214"><ele>302.0</ele><time>2026-03-28T14:45:37.999Z</time></trkpt><trkpt lat="46.148299252660344" lon="9.765534619233467"><ele>302.0</ele><time>2026-03-28T14:45:38.999Z</time></trkpt><trkpt lat="46.14821957427723" lon="9.765565594508457"><ele>302.0</ele><time>2026-03-28T14:45:39.999Z</time></trkpt><trkpt lat="46.14814186637061" lon="9.765602161351413"><ele>302.0</ele><time>2026-03-28T14:45:40.999Z</time></trkpt><trkpt lat="46.148077121963034" lon="9.765638315194975"><ele>302.0</ele><time>2026-03-28T14:45:41.999Z</time></trkpt><trkpt lat="46.14800384094385" lon="9.765685555414118"><ele>302.0</ele><time>2026-03-28T14:45:43.999Z</time></trkpt><trkpt lat="46.1479441557459" lon="9.765819655808949"><ele>303.33333333333337</ele><time>2026-03-28T14:45:45.999Z</time></trkpt><trkpt lat="46.14791113240754" lon="9.765904007240122"><ele>304.6666666666667</ele><time>2026-03-28T14:45:46.999Z</time></trkpt><trkpt lat="46.147909887480886" lon="9.766010442722095"><ele>306.0</ele><time>2026-03-28T14:45:47.999Z</time></trkpt><trkpt lat="46.14792002710603" lon="9.76610168007398"><ele>307.3333333333333</ele><time>2026-03-28T14:45:48.999Z</time></trkpt><trkpt lat="46.14796972230565" lon="9.766224191698115"><ele>308.66666666666663</ele><time>2026-03-28T14:45:50.999Z</time></trkpt><trkpt lat="46.14788949427397" lon="9.76630508486541"><ele>310.0</ele><time>2026-03-28T14:45:52.999Z</time></trkpt><trkpt lat="46.147800861772275" lon="9.766304734846292"><ele>310.16666666666663</ele><time>2026-03-28T14:45:54.999Z</time></trkpt><trkpt lat="46.14773275221178" lon="9.766284790461436"><ele>310.3333333333333</ele><time>2026-03-28T14:45:55.999Z</time></trkpt><trkpt lat="46.14764187758585" lon="9.76623019536247"><ele>310.5</ele><time>2026-03-28T14:45:56.999Z</time></trkpt><trkpt lat="46.147572403351376" lon="9.76621445221753"><ele>310.6666666666667</ele><time>2026-03-28T14:45:57.999Z</time></trkpt><trkpt lat="46.14749505672904" lon="9.766243476527707"><ele>310.83333333333337</ele><time>2026-03-28T14:45:58.999Z</time></trkpt><trkpt lat="46.14742885303981" lon="9.766256319238641"><ele>311.0</ele><time>2026-03-28T14:45:59.999Z</time></trkpt><trkpt lat="46.14736240061655" lon="9.766247210463332"><ele>316.0</ele><time>2026-03-28T14:46:00.999Z</time></trkpt><trkpt lat="46.147271489129196" lon="9.766379075989976"><ele>321.0</ele><time>2026-03-28T14:46:02.999Z</time></trkpt><trkpt lat="46.147239312764526" lon="9.766495034924876"><ele>326.0</ele><time>2026-03-28T14:46:03.999Z</time></trkpt><trkpt lat="46.14722745873828" lon="9.766650004543303"><ele>331.0</ele><time>2026-03-28T14:46:04.999Z</time></trkpt><trkpt lat="46.14721426047957" lon="9.76682153011044"><ele>336.0</ele><time>2026-03-28T14:46:05.999Z</time></trkpt><trkpt lat="46.147227919317075" lon="9.767013781415843"><ele>342.5</ele><time>2026-03-28T14:46:06.999Z</time></trkpt><trkpt lat="46.147248668608796" lon="9.767226179426126"><ele>349.0</ele><time>2026-03-28T14:46:07.999Z</time></trkpt><trkpt lat="46.14725842732131" lon="9.767424528854196"><ele>355.5</ele><time>2026-03-28T14:46:08.999Z</time></trkpt><trkpt lat="46.147265657193884" lon="9.767598626984615"><ele>362.0</ele><time>2026-03-28T14:46:09.999Z</time></trkpt><trkpt lat="46.14726735321975" lon="9.767749368840686"><ele>365.6</ele><time>2026-03-28T14:46:10.999Z</time></trkpt><trkpt lat="46.14725607403573" lon="9.767913116915967"><ele>369.20000000000005</ele><time>2026-03-28T14:46:11.999Z</time></trkpt><trkpt lat="46.14724877628032" lon="9.768058078685245"><ele>372.8</ele><time>2026-03-28T14:46:12.999Z</time></trkpt><trkpt lat="46.14723333709063" lon="9.76818163045318"><ele>376.4</ele><time>2026-03-28T14:46:13.999Z</time></trkpt><trkpt lat="46.14722542856883" lon="9.768362093724434"><ele>380.0</ele><time>2026-03-28T14:46:15.999Z</time></trkpt><trkpt lat="46.14717597342127" lon="9.768432079399584"><ele>380.0</ele><time>2026-03-28T14:46:17.999Z</time></trkpt><trkpt lat="46.147109272746775" lon="9.768315796360856"><ele>380.0</ele><time>2026-03-28T14:46:19.999Z</time></trkpt><trkpt lat="46.14707385070345" lon="9.768202435025291"><ele>380.0</ele><time>2026-03-28T14:46:20.999Z</time></trkpt><trkpt lat="46.14705517037777" lon="9.76805097434027"><ele>380.0</ele><time>2026-03-28T14:46:21.999Z</time></trkpt><trkpt lat="46.14704158916917" lon="9.76790249966365"><ele>380.0</ele><time>2026-03-28T14:46:22.999Z</time></trkpt><trkpt lat="46.14701426686397" lon="9.767778336557091"><ele>377.0</ele><time>2026-03-28T14:46:23.999Z</time></trkpt><trkpt lat="46.146972777951916" lon="9.767688528140237"><ele>374.0</ele><time>2026-03-28T14:46:24.998Z</time></trkpt><trkpt lat="46.14692131393484" lon="9.767574915056265"><ele>371.0</ele><time>2026-03-28T14:46:25.998Z</time></trkpt><trkpt lat="46.14688327612692" lon="9.767452242948231"><ele>368.0</ele><time>2026-03-28T14:46:26.998Z</time></trkpt><trkpt lat="46.14685995199239" lon="9.767349675270859"><ele>365.0</ele><time>2026-03-28T14:46:27.998Z</time></trkpt><trkpt lat="46.146841582052296" lon="9.767218406961337"><ele>362.0</ele><time>2026-03-28T14:46:29.998Z</time></trkpt><trkpt lat="46.14676947309831" lon="9.76723648328577"><ele>362.0</ele><time>2026-03-28T14:46:31.998Z</time></trkpt><trkpt lat="46.146730905731786" lon="9.76744926287683"><ele>362.0</ele><time>2026-03-28T14:46:33.998Z</time></trkpt><trkpt lat="46.14674454993715" lon="9.767607769925672"><ele>362.0</ele><time>2026-03-28T14:46:34.998Z</time></trkpt><trkpt lat="46.14677581513858" lon="9.767778347220192"><ele>362.0</ele><time>2026-03-28T14:46:35.998Z</time></trkpt><trkpt lat="46.14682024907898" lon="9.76794346508285"><ele>366.5</ele><time>2026-03-28T14:46:36.998Z</time></trkpt><trkpt lat="46.146867499970355" lon="9.768081179387218"><ele>371.0</ele><time>2026-03-28T14:46:37.998Z</time></trkpt><trkpt lat="46.146862908446494" lon="9.768198450240972"><ele>375.5</ele><time>2026-03-28T14:46:38.998Z</time></trkpt><trkpt lat="46.14685728344276" lon="9.768386166022824"><ele>380.0</ele><time>2026-03-28T14:46:39.998Z</time></trkpt><trkpt lat="46.1468627726025" lon="9.768586475458758"><ele>382.5</ele><time>2026-03-28T14:46:40.998Z</time></trkpt><trkpt lat="46.14685625329971" lon="9.768779024834648"><ele>385.0</ele><time>2026-03-28T14:46:41.998Z</time></trkpt><trkpt lat="46.14681455226889" lon="9.768976344372014"><ele>387.5</ele><time>2026-03-28T14:46:42.998Z</time></trkpt><trkpt lat="46.146777818915304" lon="9.76919117587261"><ele>390.0</ele><time>2026-03-28T14:46:43.998Z</time></trkpt><trkpt lat="46.14678294623413" lon="9.769380890184289"><ele>393.0</ele><time>2026-03-28T14:46:44.998Z</time></trkpt><trkpt lat="46.14682383350486" lon="9.769549699152742"><ele>396.0</ele><time>2026-03-28T14:46:45.998Z</time></trkpt><trkpt lat="46.14685002147476" lon="9.76971782625345"><ele>399.0</ele><time>2026-03-28T14:46:46.998Z</time></trkpt><trkpt lat="46.14683410040158" lon="9.769873577286239"><ele>402.0</ele><time>2026-03-28T14:46:47.998Z</time></trkpt><trkpt lat="46.14682307914179" lon="9.770043513532764"><ele>405.5</ele><time>2026-03-28T14:46:48.998Z</time></trkpt><trkpt lat="46.14684846268059" lon="9.770211145905215"><ele>409.0</ele><time>2026-03-28T14:46:49.998Z</time></trkpt><trkpt lat="46.14689450954661" lon="9.77038456073132"><ele>412.5</ele><time>2026-03-28T14:46:50.998Z</time></trkpt><trkpt lat="46.14693781942957" lon="9.77056338944066"><ele>416.0</ele><time>2026-03-28T14:46:51.998Z</time></trkpt><trkpt lat="46.14697155217281" lon="9.770760536771164"><ele>416.0</ele><time>2026-03-28T14:46:52.998Z</time></trkpt><trkpt lat="46.14699553843638" lon="9.770941261710517"><ele>416.0</ele><time>2026-03-28T14:46:53.998Z</time></trkpt><trkpt lat="46.147003863098796" lon="9.771098771483734"><ele>416.0</ele><time>2026-03-28T14:46:54.998Z</time></trkpt><trkpt lat="46.14701472527012" lon="9.77125922802506"><ele>416.0</ele><time>2026-03-28T14:46:55.998Z</time></trkpt><trkpt lat="46.146991708895364" lon="9.771459864486909"><ele>418.25</ele><time>2026-03-28T14:46:56.998Z</time></trkpt><trkpt lat="46.14699293203858" lon="9.771662005088995"><ele>420.5</ele><time>2026-03-28T14:46:57.998Z</time></trkpt><trkpt lat="46.146989427471915" lon="9.771875095171522"><ele>422.75</ele><time>2026-03-28T14:46:58.998Z</time></trkpt><trkpt lat="46.147003497628404" lon="9.772052782299946"><ele>425.0</ele><time>2026-03-28T14:46:59.998Z</time></trkpt><trkpt lat="46.14700716361561" lon="9.772205158219984"><ele>427.3333333333333</ele><time>2026-03-28T14:47:00.998Z</time></trkpt><trkpt lat="46.14702658854547" lon="9.77232404083439"><ele>429.66666666666663</ele><time>2026-03-28T14:47:01.998Z</time></trkpt><trkpt lat="46.1470672896383" lon="9.772405809241285"><ele>432.0</ele><time>2026-03-28T14:47:02.998Z</time></trkpt><trkpt lat="46.14710391958352" lon="9.772514905927189"><ele>434.33333333333337</ele><time>2026-03-28T14:47:04.998Z</time></trkpt><trkpt lat="46.14702853560466" lon="9.772536622096133"><ele>436.6666666666667</ele><time>2026-03-28T14:47:06.998Z</time></trkpt><trkpt lat="46.1469817561974" lon="9.772455297752611"><ele>439.0</ele><time>2026-03-28T14:47:07.998Z</time></trkpt><trkpt lat="46.1469542763909" lon="9.772364429291185"><ele>439.0</ele><time>2026-03-28T14:47:08.998Z</time></trkpt><trkpt lat="46.14691484937125" lon="9.772227636492854"><ele>439.0</ele><time>2026-03-28T14:47:09.998Z</time></trkpt><trkpt lat="46.1468641967089" lon="9.772090026213435"><ele>439.0</ele><time>2026-03-28T14:47:10.998Z</time></trkpt><trkpt lat="46.14681619840622" lon="9.771930726143502"><ele>439.0</ele><time>2026-03-28T14:47:11.998Z</time></trkpt><trkpt lat="46.14676685240712" lon="9.771771851006235"><ele>436.2</ele><time>2026-03-28T14:47:12.998Z</time></trkpt><trkpt lat="46.14673356741139" lon="9.771629539024838"><ele>433.4</ele><time>2026-03-28T14:47:13.998Z</time></trkpt><trkpt lat="46.14670083279822" lon="9.771480554465043"><ele>430.6</ele><time>2026-03-28T14:47:14.998Z</time></trkpt><trkpt lat="46.1466794029187" lon="9.771342139780021"><ele>427.8</ele><time>2026-03-28T14:47:15.998Z</time></trkpt><trkpt lat="46.146651616902915" lon="9.771198026057954"><ele>425.0</ele><time>2026-03-28T14:47:16.998Z</time></trkpt><trkpt lat="46.14660311212744" lon="9.771058181910588"><ele>435.4</ele><time>2026-03-28T14:47:17.998Z</time></trkpt><trkpt lat="46.14654025679428" lon="9.77093443529604"><ele>445.8</ele><time>2026-03-28T14:47:18.998Z</time></trkpt><trkpt lat="46.14646764821359" lon="9.770826029139124"><ele>456.20000000000005</ele><time>2026-03-28T14:47:19.998Z</time></trkpt><trkpt lat="46.146415378603216" lon="9.77070501331953"><ele>466.6</ele><time>2026-03-28T14:47:20.998Z</time></trkpt><trkpt lat="46.1463853674401" lon="9.770571510265757"><ele>477.0</ele><time>2026-03-28T14:47:21.998Z</time></trkpt><trkpt lat="46.146354441377696" lon="9.770455672919422"><ele>477.0</ele><time>2026-03-28T14:47:22.998Z</time></trkpt><trkpt lat="46.146301348340394" lon="9.770332631782162"><ele>477.0</ele><time>2026-03-28T14:47:23.998Z</time></trkpt><trkpt lat="46.14626935809495" lon="9.770231539713912"><ele>477.0</ele><time>2026-03-28T14:47:24.998Z</time></trkpt><trkpt lat="46.14623844573911" lon="9.770117759568201"><ele>477.0</ele><time>2026-03-28T14:47:25.998Z</time></trkpt><trkpt lat="46.1462164893972" lon="9.770007660070016"><ele>477.0</ele><time>2026-03-28T14:47:26.998Z</time></trkpt><trkpt lat="46.1461942971559" lon="9.769895433453762"><ele>477.0</ele><time>2026-03-28T14:47:27.998Z</time></trkpt><trkpt lat="46.146168239609494" lon="9.76980389185081"><ele>474.8</ele><time>2026-03-28T14:47:28.998Z</time></trkpt><trkpt lat="46.14609298537743" lon="9.769653975883628"><ele>472.6</ele><time>2026-03-28T14:47:30.998Z</time></trkpt><trkpt lat="46.14599882848948" lon="9.769581641519897"><ele>470.40000000000003</ele><time>2026-03-28T14:47:32.998Z</time></trkpt><trkpt lat="46.145938537963985" lon="9.769498655999824"><ele>468.20000000000005</ele><time>2026-03-28T14:47:34.998Z</time></trkpt><trkpt lat="46.145904042058135" lon="9.769327789951625"><ele>466.0</ele><time>2026-03-28T14:47:36.998Z</time></trkpt><trkpt lat="46.145878069277266" lon="9.769229639337066"><ele>464.50000000000006</ele><time>2026-03-28T14:47:37.998Z</time></trkpt><trkpt lat="46.14583710435261" lon="9.769156920429648"><ele>463.0</ele><time>2026-03-28T14:47:38.998Z</time></trkpt><trkpt lat="46.145787811958556" lon="9.769086758133191"><ele>461.5</ele><time>2026-03-28T14:47:39.998Z</time></trkpt><trkpt lat="46.14569488225433" lon="9.768956188385676"><ele>460.0</ele><time>2026-03-28T14:47:41.998Z</time></trkpt><trkpt lat="46.14562025387058" lon="9.768892579904124"><ele>458.50000000000006</ele><time>2026-03-28T14:47:43.998Z</time></trkpt><trkpt lat="46.14555894605818" lon="9.768814902312197"><ele>457.0</ele><time>2026-03-28T14:47:45.998Z</time></trkpt><trkpt lat="46.14552364351929" lon="9.768675994066006"><ele>465.6</ele><time>2026-03-28T14:47:47.998Z</time></trkpt><trkpt lat="46.145468379474444" lon="9.768534693101152"><ele>474.20000000000005</ele><time>2026-03-28T14:47:49.998Z</time></trkpt><trkpt lat="46.14540457465739" lon="9.768466088877558"><ele>482.8</ele><time>2026-03-28T14:47:50.998Z</time></trkpt><trkpt lat="46.145303862971005" lon="9.768349952728288"><ele>491.4</ele><time>2026-03-28T14:47:52.998Z</time></trkpt><trkpt lat="46.14521414958363" lon="9.768309754514103"><ele>500.0</ele><time>2026-03-28T14:47:53.998Z</time></trkpt><trkpt lat="46.14512684867962" lon="9.768244456978858"><ele>499.99999999999994</ele><time>2026-03-28T14:47:55.997Z</time></trkpt><trkpt lat="46.145080468881176" lon="9.768147241400527"><ele>500.0</ele><time>2026-03-28T14:47:57.997Z</time></trkpt><trkpt lat="46.14509589306796" lon="9.767966693119375"><ele>500.0</ele><time>2026-03-28T14:47:59.997Z</time></trkpt><trkpt lat="46.14507200768962" lon="9.767869139242668"><ele>500.0</ele><time>2026-03-28T14:48:01.997Z</time></trkpt><trkpt lat="46.14503091794809" lon="9.767789603630447"><ele>499.99999999999994</ele><time>2026-03-28T14:48:12.997Z</time></trkpt><trkpt lat="46.1450008537484" lon="9.767692456024267"><ele>500.0</ele><time>2026-03-28T14:48:28.997Z</time></trkpt><trkpt lat="46.14496378737257" lon="9.767600609387854"><ele>498.49999999999994</ele><time>2026-03-28T14:48:31.997Z</time></trkpt><trkpt lat="46.14490823501866" lon="9.767517714963454"><ele>497.0</ele><time>2026-03-28T14:48:33.997Z</time></trkpt><trkpt lat="46.14482190281063" lon="9.767462647543537"><ele>495.5</ele><time>2026-03-28T14:48:35.997Z</time></trkpt><trkpt lat="46.144751300250846" lon="9.767369320730392"><ele>494.0</ele><time>2026-03-28T14:48:38.997Z</time></trkpt><trkpt lat="46.14470704368267" lon="9.767277570058008"><ele>492.49999999999994</ele><time>2026-03-28T14:48:40.997Z</time></trkpt><trkpt lat="46.14463604638242" lon="9.767215828764314"><ele>491.0</ele><time>2026-03-28T14:48:42.997Z</time></trkpt><trkpt lat="46.14460503178457" lon="9.767305958292114"><ele>499.66666666666663</ele><time>2026-03-28T14:48:45.997Z</time></trkpt><trkpt lat="46.144581427294746" lon="9.767437440431904"><ele>508.3333333333333</ele><time>2026-03-28T14:48:47.997Z</time></trkpt><trkpt lat="46.144587813342724" lon="9.767568527383661"><ele>517.0</ele><time>2026-03-28T14:48:49.997Z</time></trkpt><trkpt lat="46.144564239305154" lon="9.76766636043689"><ele>525.6666666666666</ele><time>2026-03-28T14:48:51.997Z</time></trkpt><trkpt lat="46.144472309441156" lon="9.767647459182966"><ele>534.3333333333334</ele><time>2026-03-28T14:50:05.996Z</time></trkpt><trkpt lat="46.14443539694067" lon="9.767555694998425"><ele>543.0</ele><time>2026-03-28T14:50:07.996Z</time></trkpt><trkpt lat="46.14438000418062" lon="9.767450251752468"><ele>543.0</ele><time>2026-03-28T14:50:09.996Z</time></trkpt><trkpt lat="46.144287388570426" lon="9.767398146464153"><ele>543.0</ele><time>2026-03-28T14:50:11.996Z</time></trkpt><trkpt lat="46.1441843324515" lon="9.76739524812511"><ele>543.0</ele><time>2026-03-28T14:50:13.996Z</time></trkpt><trkpt lat="46.14411080263897" lon="9.76742763129771"><ele>543.0</ele><time>2026-03-28T14:50:14.996Z</time></trkpt><trkpt lat="46.144033530496166" lon="9.767349682573647"><ele>543.0</ele><time>2026-03-28T14:50:16.996Z</time></trkpt><trkpt lat="46.14395303328956" lon="9.767253619750488"><ele>546.8</ele><time>2026-03-28T14:50:17.996Z</time></trkpt><trkpt lat="46.14391845905477" lon="9.767335404144536"><ele>550.5999999999999</ele><time>2026-03-28T14:50:22.996Z</time></trkpt><trkpt lat="46.143914059895685" lon="9.767485724217373"><ele>554.4000000000001</ele><time>2026-03-28T14:50:24.996Z</time></trkpt><trkpt lat="46.143799761877865" lon="9.76740334692967"><ele>558.2</ele><time>2026-03-28T14:50:29.996Z</time></trkpt><trkpt lat="46.143725107946594" lon="9.767370194301462"><ele>562.0</ele><time>2026-03-28T14:50:31.996Z</time></trkpt><trkpt lat="46.14363997558117" lon="9.767356724705712"><ele>562.0</ele><time>2026-03-28T14:50:33.996Z</time></trkpt><trkpt lat="46.14368367547571" lon="9.76744881756243"><ele>562.0</ele><time>2026-03-28T14:50:36.996Z</time></trkpt><trkpt lat="46.14374513658799" lon="9.767574955670323"><ele>562.0</ele><time>2026-03-28T14:50:39.996Z</time></trkpt><trkpt lat="46.143775408056975" lon="9.76768464802857"><ele>562.0</ele><time>2026-03-28T14:50:40.996Z</time></trkpt><trkpt lat="46.14380296302257" lon="9.767828222358466"><ele>562.0</ele><time>2026-03-28T14:50:42.996Z</time></trkpt><trkpt lat="46.14370856850871" lon="9.767815923064225"><ele>570.0</ele><time>2026-03-28T14:50:47.996Z</time></trkpt><trkpt lat="46.1436070627774" lon="9.767785965552022"><ele>578.0</ele><time>2026-03-28T14:50:49.996Z</time></trkpt><trkpt lat="46.14349482629695" lon="9.767759259547672"><ele>586.0</ele><time>2026-03-28T14:50:51.996Z</time></trkpt><trkpt lat="46.1434164254662" lon="9.767809615083724"><ele>594.0</ele><time>2026-03-28T14:50:53.996Z</time></trkpt><trkpt lat="46.14337988259386" lon="9.768015789707066"><ele>594.0</ele><time>2026-03-28T14:50:55.995Z</time></trkpt><trkpt lat="46.14338964248409" lon="9.76813859815744"><ele>594.0</ele><time>2026-03-28T14:50:56.995Z</time></trkpt><trkpt lat="46.14341416223249" lon="9.76827706201086"><ele>594.0</ele><time>2026-03-28T14:50:57.995Z</time></trkpt><trkpt lat="46.143420223324405" lon="9.768378569723495"><ele>594.0</ele><time>2026-03-28T14:50:58.995Z</time></trkpt><trkpt lat="46.143436114894726" lon="9.76847115828927"><ele>594.0</ele><time>2026-03-28T14:50:59.995Z</time></trkpt><trkpt lat="46.14348272093245" lon="9.768541877951453"><ele>594.0</ele><time>2026-03-28T14:51:00.995Z</time></trkpt><trkpt lat="46.14357027744932" lon="9.768602704466343"><ele>600.4</ele><time>2026-03-28T14:51:02.995Z</time></trkpt><trkpt lat="46.14363437543376" lon="9.768749674998915"><ele>606.8</ele><time>2026-03-28T14:51:04.995Z</time></trkpt><trkpt lat="46.14367271325265" lon="9.768890608625565"><ele>613.2</ele><time>2026-03-28T14:51:06.995Z</time></trkpt><trkpt lat="46.1435797701384" lon="9.768934721832167"><ele>619.6</ele><time>2026-03-28T14:51:09.995Z</time></trkpt><trkpt lat="46.14348165573943" lon="9.768901085030533"><ele>626.0</ele><time>2026-03-28T14:51:11.995Z</time></trkpt><trkpt lat="46.14349761639675" lon="9.76899869019958"><ele>626.0</ele><time>2026-03-28T14:51:15.995Z</time></trkpt><trkpt lat="46.143415643277926" lon="9.769039507562502"><ele>626.0</ele><time>2026-03-28T14:51:20.995Z</time></trkpt><trkpt lat="46.14335659263339" lon="9.769075938410962"><ele>626.0</ele><time>2026-03-28T14:51:22.995Z</time></trkpt><trkpt lat="46.14340391952832" lon="9.769182541065291"><ele>626.0</ele><time>2026-03-28T14:51:25.995Z</time></trkpt><trkpt lat="46.14344200337589" lon="9.76925571547181"><ele>626.0</ele><time>2026-03-28T14:51:27.995Z</time></trkpt><trkpt lat="46.14335502916071" lon="9.769321845351937"><ele>626.0</ele><time>2026-03-28T14:51:30.995Z</time></trkpt><trkpt lat="46.143294004442886" lon="9.769408569561659"><ele>628.0</ele><time>2026-03-28T14:51:32.995Z</time></trkpt><trkpt lat="46.143234742308294" lon="9.769461701967918"><ele>630.0</ele><time>2026-03-28T14:51:33.995Z</time></trkpt><trkpt lat="46.14313964289221" lon="9.769575780635368"><ele>632.0</ele><time>2026-03-28T14:51:35.995Z</time></trkpt><trkpt lat="46.14307546811725" lon="9.769610019704597"><ele>634.0</ele><time>2026-03-28T14:51:36.995Z</time></trkpt><trkpt lat="46.142980322715864" lon="9.769648056037985"><ele>636.0</ele><time>2026-03-28T14:51:38.995Z</time></trkpt><trkpt lat="46.14287585705332" lon="9.76957427117494"><ele>640.8</ele><time>2026-03-28T14:51:40.995Z</time></trkpt><trkpt lat="46.142815689004784" lon="9.7694911334702"><ele>645.6</ele><time>2026-03-28T14:51:42.995Z</time></trkpt><trkpt lat="46.14274736724707" lon="9.769439796669186"><ele>650.4</ele><time>2026-03-28T14:51:43.995Z</time></trkpt><trkpt lat="46.14265546801013" lon="9.769377348262749"><ele>655.2</ele><time>2026-03-28T14:51:44.995Z</time></trkpt><trkpt lat="46.1425660591279" lon="9.769290617803703"><ele>660.0</ele><time>2026-03-28T14:51:45.995Z</time></trkpt><trkpt lat="46.14246825467215" lon="9.769200702652984"><ele>660.0</ele><time>2026-03-28T14:51:46.995Z</time></trkpt><trkpt lat="46.14239127696333" lon="9.769131209129183"><ele>660.0</ele><time>2026-03-28T14:51:47.995Z</time></trkpt><trkpt lat="46.14230530818231" lon="9.769075286056271"><ele>660.0</ele><time>2026-03-28T14:51:48.995Z</time></trkpt><trkpt lat="46.142244219207576" lon="9.769033885004598"><ele>660.0</ele><time>2026-03-28T14:51:49.995Z</time></trkpt><trkpt lat="46.142161168016244" lon="9.7689985067681"><ele>660.0</ele><time>2026-03-28T14:51:51.995Z</time></trkpt><trkpt lat="46.142114834203966" lon="9.769076735910897"><ele>660.0</ele><time>2026-03-28T14:51:55.995Z</time></trkpt><trkpt lat="46.142043784573524" lon="9.769119281623261"><ele>667.1666666666666</ele><time>2026-03-28T14:51:57.995Z</time></trkpt><trkpt lat="46.141998975950884" lon="9.769008918435997"><ele>674.3333333333334</ele><time>2026-03-28T14:51:59.995Z</time></trkpt><trkpt lat="46.14195087464304" lon="9.768882911240315"><ele>681.5</ele><time>2026-03-28T14:52:01.995Z</time></trkpt><trkpt lat="46.14187804117943" lon="9.768852653903439"><ele>688.6666666666667</ele><time>2026-03-28T14:52:05.995Z</time></trkpt><trkpt lat="46.14180211650072" lon="9.768898120250762"><ele>695.8333333333334</ele><time>2026-03-28T14:52:18.995Z</time></trkpt><trkpt lat="46.14181914260444" lon="9.769010866872163"><ele>703.0</ele><time>2026-03-28T14:52:22.995Z</time></trkpt><trkpt lat="46.14186657870481" lon="9.769090186834017"><ele>703.0</ele><time>2026-03-28T14:52:24.995Z</time></trkpt><trkpt lat="46.14190224075358" lon="9.76918209383447"><ele>703.0</ele><time>2026-03-28T14:52:26.994Z</time></trkpt><trkpt lat="46.141926166382056" lon="9.769268670391494"><ele>703.0</ele><time>2026-03-28T14:52:29.994Z</time></trkpt><trkpt lat="46.14186153522711" lon="9.769242842593057"><ele>703.0</ele><time>2026-03-28T14:52:32.994Z</time></trkpt><trkpt lat="46.141786636621646" lon="9.769148255033992"><ele>703.0</ele><time>2026-03-28T14:52:34.994Z</time></trkpt><trkpt lat="46.14166399911285" lon="9.769102045553522"><ele>703.0</ele><time>2026-03-28T14:52:36.994Z</time></trkpt><trkpt lat="46.14157245478572" lon="9.768968483452166"><ele>702.1666666666667</ele><time>2026-03-28T14:52:37.994Z</time></trkpt><trkpt lat="46.141515084573115" lon="9.768892430785888"><ele>701.3333333333334</ele><time>2026-03-28T14:52:38.994Z</time></trkpt><trkpt lat="46.14141455601033" lon="9.768804537026691"><ele>700.5</ele><time>2026-03-28T14:52:40.994Z</time></trkpt><trkpt lat="46.14130926743538" lon="9.768813777926058"><ele>699.6666666666666</ele><time>2026-03-28T14:52:42.994Z</time></trkpt><trkpt lat="46.14130888850942" lon="9.768925260419309"><ele>698.8333333333333</ele><time>2026-03-28T14:52:46.994Z</time></trkpt><trkpt lat="46.14134897923566" lon="9.769008472571993"><ele>698.0</ele><time>2026-03-28T14:52:48.994Z</time></trkpt><trkpt lat="46.14127958241176" lon="9.7690752467114"><ele>698.0</ele><time>2026-03-28T14:52:51.994Z</time></trkpt><trkpt lat="46.14130998045384" lon="9.76918305449739"><ele>698.0</ele><time>2026-03-28T14:52:54.994Z</time></trkpt><trkpt lat="46.14124724149025" lon="9.769240075315116"><ele>698.0</ele><time>2026-03-28T14:52:58.994Z</time></trkpt><trkpt lat="46.14114627529406" lon="9.769249758347094"><ele>698.0</ele><time>2026-03-28T14:53:00.994Z</time></trkpt><trkpt lat="46.1410578246966" lon="9.769213363954362"><ele>698.0</ele><time>2026-03-28T14:53:02.994Z</time></trkpt><trkpt lat="46.14101967127183" lon="9.769322307451706"><ele>698.0</ele><time>2026-03-28T14:53:05.994Z</time></trkpt><trkpt lat="46.14100720005096" lon="9.769428354206731"><ele>706.1666666666666</ele><time>2026-03-28T14:53:07.994Z</time></trkpt><trkpt lat="46.14100817204301" lon="9.76953406410767"><ele>714.3333333333333</ele><time>2026-03-28T14:53:09.994Z</time></trkpt><trkpt lat="46.14107799196795" lon="9.769583083020974"><ele>722.5</ele><time>2026-03-28T14:53:12.994Z</time></trkpt><trkpt lat="46.14113877311888" lon="9.769649606990583"><ele>730.6666666666666</ele><time>2026-03-28T14:53:14.994Z</time></trkpt><trkpt lat="46.14117047420795" lon="9.769777633293774"><ele>738.8333333333334</ele><time>2026-03-28T14:53:17.994Z</time></trkpt><trkpt lat="46.141111202198736" lon="9.769823014320423"><ele>747.0</ele><time>2026-03-28T14:53:19.994Z</time></trkpt><trkpt lat="46.141026536753195" lon="9.769790121228223"><ele>747.0</ele><time>2026-03-28T14:53:21.994Z</time></trkpt><trkpt lat="46.141022183207035" lon="9.769897234879426"><ele>747.0</ele><time>2026-03-28T14:53:23.994Z</time></trkpt><trkpt lat="46.140980825962124" lon="9.77001672604447"><ele>747.0</ele><time>2026-03-28T14:53:25.994Z</time></trkpt><trkpt lat="46.140980349791" lon="9.770187258771944"><ele>747.0</ele><time>2026-03-28T14:53:27.994Z</time></trkpt><trkpt lat="46.14100901469488" lon="9.770345440422306"><ele>747.0</ele><time>2026-03-28T14:53:29.994Z</time></trkpt><trkpt lat="46.14104154625553" lon="9.77045816103368"><ele>752.8333333333334</ele><time>2026-03-28T14:53:31.994Z</time></trkpt><trkpt lat="46.140980510583745" lon="9.7705166224131"><ele>758.6666666666667</ele><time>2026-03-28T14:53:34.994Z</time></trkpt><trkpt lat="46.140915898018406" lon="9.77042097484256"><ele>764.5</ele><time>2026-03-28T14:53:36.994Z</time></trkpt><trkpt lat="46.140858839560536" lon="9.770345114185117"><ele>770.3333333333334</ele><time>2026-03-28T14:53:38.994Z</time></trkpt><trkpt lat="46.14079382885846" lon="9.770449179150571"><ele>776.1666666666667</ele><time>2026-03-28T14:53:41.994Z</time></trkpt><trkpt lat="46.140773150618074" lon="9.770537331060764"><ele>782.0</ele><time>2026-03-28T14:53:54.994Z</time></trkpt><trkpt lat="46.14076120327122" lon="9.770636553498603"><ele>782.0000000000001</ele><time>2026-03-28T14:54:01.993Z</time></trkpt><trkpt lat="46.140746577767025" lon="9.770753274043205"><ele>782.0</ele><time>2026-03-28T14:54:04.993Z</time></trkpt><trkpt lat="46.14072181134835" lon="9.77084606606097"><ele>782.0</ele><time>2026-03-28T14:54:07.993Z</time></trkpt><trkpt lat="46.14068624717555" lon="9.77092494776964"><ele>782.0</ele><time>2026-03-28T14:54:16.993Z</time></trkpt><trkpt lat="46.14059413193743" lon="9.770943540006119"><ele>782.0000000000001</ele><time>2026-03-28T14:54:22.993Z</time></trkpt><trkpt lat="46.140624353319325" lon="9.771029360352285"><ele>782.0</ele><time>2026-03-28T14:55:23.993Z</time></trkpt><trkpt lat="46.14055458009986" lon="9.771080768132244"><ele>779.5714285714286</ele><time>2026-03-28T14:55:27.992Z</time></trkpt><trkpt lat="46.14048663468393" lon="9.771071379107637"><ele>777.1428571428571</ele><time>2026-03-28T14:55:57.992Z</time></trkpt><trkpt lat="46.14041568054265" lon="9.771037575117901"><ele>774.7142857142858</ele><time>2026-03-28T14:56:51.992Z</time></trkpt><trkpt lat="46.14035339335541" lon="9.771009922544764"><ele>772.2857142857142</ele><time>2026-03-28T14:56:54.992Z</time></trkpt><trkpt lat="46.14030148420919" lon="9.77108590510396"><ele>769.8571428571429</ele><time>2026-03-28T14:56:59.991Z</time></trkpt><trkpt lat="46.14024511183289" lon="9.771041801664344"><ele>767.4285714285714</ele><time>2026-03-28T14:57:07.991Z</time></trkpt><trkpt lat="46.140183629232865" lon="9.770970592342406"><ele>765.0</ele><time>2026-03-28T14:57:09.991Z</time></trkpt><trkpt lat="46.1401167421432" lon="9.771013049927342"><ele>773.0</ele><time>2026-03-28T14:57:15.991Z</time></trkpt><trkpt lat="46.140157871415994" lon="9.771118512702179"><ele>781.0</ele><time>2026-03-28T14:57:19.991Z</time></trkpt><trkpt lat="46.140177148132636" lon="9.771208071708902"><ele>789.0</ele><time>2026-03-28T14:57:25.991Z</time></trkpt><trkpt lat="46.14011376211573" lon="9.771215390048587"><ele>797.0</ele><time>2026-03-28T14:57:38.991Z</time></trkpt><trkpt lat="46.14009058909693" lon="9.771332400148028"><ele>805.0</ele><time>2026-03-28T14:57:48.991Z</time></trkpt><trkpt lat="46.140081361559275" lon="9.771461036715401"><ele>813.0</ele><time>2026-03-28T14:57:52.991Z</time></trkpt><trkpt lat="46.13999966777466" lon="9.77146358903945"><ele>813.0</ele><time>2026-03-28T14:57:59.991Z</time></trkpt><trkpt lat="46.13993950609241" lon="9.771507452830148"><ele>813.0</ele><time>2026-03-28T14:58:02.991Z</time></trkpt><trkpt lat="46.13991662896948" lon="9.771603826641723"><ele>813.0</ele><time>2026-03-28T14:58:16.991Z</time></trkpt><trkpt lat="46.13995274197848" lon="9.771687077876619"><ele>813.0</ele><time>2026-03-28T14:58:33.99Z</time></trkpt><trkpt lat="46.13999637594489" lon="9.771760967792865"><ele>813.0</ele><time>2026-03-28T14:59:02.99Z</time></trkpt><trkpt lat="46.14006263779875" lon="9.771787944651244"><ele>813.0</ele><time>2026-03-28T14:59:09.99Z</time></trkpt><trkpt lat="46.140104185323025" lon="9.771891555038732"><ele>813.0</ele><time>2026-03-28T15:00:02.989Z</time></trkpt><trkpt lat="46.140173152634446" lon="9.771984248713458"><ele>817.2857142857143</ele><time>2026-03-28T15:00:58.989Z</time></trkpt><trkpt lat="46.140109126935315" lon="9.77194612417836"><ele>821.5714285714286</ele><time>2026-03-28T15:01:47.988Z</time></trkpt><trkpt lat="46.1401442131174" lon="9.77202509667657"><ele>825.8571428571429</ele><time>2026-03-28T15:03:15.987Z</time></trkpt><trkpt lat="46.14008571189018" lon="9.772068813754068"><ele>830.1428571428571</ele><time>2026-03-28T15:04:13.996Z</time></trkpt><trkpt lat="46.14011872542358" lon="9.771983738983469"><ele>834.4285714285713</ele><time>2026-03-28T15:04:33.996Z</time></trkpt><trkpt lat="46.14007263298795" lon="9.772046901639124"><ele>838.7142857142857</ele><time>2026-03-28T15:04:40.996Z</time></trkpt><trkpt lat="46.140135501797275" lon="9.772015520887296"><ele>843.0</ele><time>2026-03-28T15:05:58.996Z</time></trkpt><trkpt lat="46.14009714304378" lon="9.772099146596984"><ele>843.0</ele><time>2026-03-28T15:06:46.996Z</time></trkpt><trkpt lat="46.14000826932799" lon="9.772104526755431"><ele>843.0</ele><time>2026-03-28T15:06:58.996Z</time></trkpt><trkpt lat="46.14005506862137" lon="9.772174722616219"><ele>843.0</ele><time>2026-03-28T15:07:27.996Z</time></trkpt><trkpt lat="46.14012270711193" lon="9.77220418449403"><ele>843.0</ele><time>2026-03-28T15:07:46.995Z</time></trkpt><trkpt lat="46.140177829837874" lon="9.772265578705413"><ele>843.0</ele><time>2026-03-28T15:07:52.995Z</time></trkpt><trkpt lat="46.14025556624061" lon="9.772316890980694"><ele>843.0</ele><time>2026-03-28T15:07:56.995Z</time></trkpt><trkpt lat="46.140313585707126" lon="9.772354178296204"><ele>843.0</ele><time>2026-03-28T15:08:00.995Z</time></trkpt><trkpt lat="46.140254000064864" lon="9.772424630548903"><ele>843.0</ele><time>2026-03-28T15:08:02.995Z</time></trkpt><trkpt lat="46.140177555849846" lon="9.772445875458946"><ele>843.0</ele><time>2026-03-28T15:08:03.995Z</time></trkpt><trkpt lat="46.1401021819251" lon="9.772462053239526"><ele>843.0</ele><time>2026-03-28T15:08:04.995Z</time></trkpt><trkpt lat="46.14003466775585" lon="9.772488870787646"><ele>843.0</ele><time>2026-03-28T15:08:05.995Z</time></trkpt><trkpt lat="46.13992167307398" lon="9.77256912084598"><ele>843.0</ele><time>2026-03-28T15:08:07.995Z</time></trkpt><trkpt lat="46.13985731927906" lon="9.77263907529852"><ele>843.0</ele><time>2026-03-28T15:08:09.995Z</time></trkpt><trkpt lat="46.139803557200096" lon="9.772712523889965"><ele>846.0</ele><time>2026-03-28T15:08:11.995Z</time></trkpt><trkpt lat="46.1397988319691" lon="9.772820888641583"><ele>849.0</ele><time>2026-03-28T15:08:28.995Z</time></trkpt><trkpt lat="46.13989596375971" lon="9.772836646655232"><ele>852.0</ele><time>2026-03-28T15:08:30.995Z</time></trkpt><trkpt lat="46.13995601257091" lon="9.772802786361094"><ele>855.0</ele><time>2026-03-28T15:08:31.995Z</time></trkpt><trkpt lat="46.140026242034" lon="9.772770801795023"><ele>858.0</ele><time>2026-03-28T15:08:32.996Z</time></trkpt><trkpt lat="46.14010433521604" lon="9.772745084723217"><ele>861.0</ele><time>2026-03-28T15:08:33.995Z</time></trkpt><trkpt lat="46.14016511035894" lon="9.772809133844317"><ele>864.1999999999999</ele><time>2026-03-28T15:08:34.995Z</time></trkpt><trkpt lat="46.1402490069001" lon="9.772937401727326"><ele>867.3999999999999</ele><time>2026-03-28T15:08:35.995Z</time></trkpt><trkpt lat="46.14030851105627" lon="9.77304423972871"><ele>870.6</ele><time>2026-03-28T15:08:36.996Z</time></trkpt><trkpt lat="46.14035786466657" lon="9.773133410546256"><ele>873.8</ele><time>2026-03-28T15:08:37.996Z</time></trkpt><trkpt lat="46.14040040960839" lon="9.773215375012285"><ele>877.0</ele><time>2026-03-28T15:08:38.995Z</time></trkpt><trkpt lat="46.14045582512446" lon="9.773307474055665"><ele>876.9999999999999</ele><time>2026-03-28T15:08:39.995Z</time></trkpt><trkpt lat="46.14050621986417" lon="9.773401508836237"><ele>877.0</ele><time>2026-03-28T15:08:40.995Z</time></trkpt><trkpt lat="46.140561118297455" lon="9.77347988692156"><ele>877.0</ele><time>2026-03-28T15:08:41.995Z</time></trkpt><trkpt lat="46.14060499594832" lon="9.7735676367795"><ele>877.0</ele><time>2026-03-28T15:08:42.995Z</time></trkpt><trkpt lat="46.14053880919731" lon="9.77364538983963"><ele>876.9999999999999</ele><time>2026-03-28T15:08:48.995Z</time></trkpt><trkpt lat="46.14049544447031" lon="9.773768852185093"><ele>877.0</ele><time>2026-03-28T15:08:51.995Z</time></trkpt><trkpt lat="46.14045594823657" lon="9.773892675358313"><ele>882.8333333333333</ele><time>2026-03-28T15:08:53.995Z</time></trkpt><trkpt lat="46.14041356545832" lon="9.77403662935642"><ele>888.6666666666666</ele><time>2026-03-28T15:08:55.995Z</time></trkpt><trkpt lat="46.14034949939645" lon="9.774155475800208"><ele>894.5</ele><time>2026-03-28T15:08:57.995Z</time></trkpt><trkpt lat="46.14027784564432" lon="9.774235226064691"><ele>900.3333333333333</ele><time>2026-03-28T15:08:59.995Z</time></trkpt><trkpt lat="46.14022034594911" lon="9.774294679430321"><ele>906.1666666666666</ele><time>2026-03-28T15:09:03.995Z</time></trkpt><trkpt lat="46.140152586468304" lon="9.774282053807587"><ele>912.0</ele><time>2026-03-28T15:09:07.995Z</time></trkpt><trkpt lat="46.14008282484861" lon="9.774176949541431"><ele>912.0</ele><time>2026-03-28T15:09:09.995Z</time></trkpt><trkpt lat="46.14000452359594" lon="9.7740802211471"><ele>912.0</ele><time>2026-03-28T15:09:11.995Z</time></trkpt><trkpt lat="46.13994452572306" lon="9.774197531433272"><ele>912.0</ele><time>2026-03-28T15:09:13.995Z</time></trkpt><trkpt lat="46.13994996442633" lon="9.774306961027799"><ele>912.0</ele><time>2026-03-28T15:09:14.995Z</time></trkpt><trkpt lat="46.139956164117265" lon="9.774404140506727"><ele>912.0</ele><time>2026-03-28T15:09:15.995Z</time></trkpt><trkpt lat="46.13995182697273" lon="9.774506981939608"><ele>912.0</ele><time>2026-03-28T15:09:17.995Z</time></trkpt><trkpt lat="46.13983446533233" lon="9.774516455154146"><ele>918.6666666666666</ele><time>2026-03-28T15:09:19.995Z</time></trkpt><trkpt lat="46.139741847532605" lon="9.7745684702266"><ele>925.3333333333333</ele><time>2026-03-28T15:09:21.995Z</time></trkpt><trkpt lat="46.13966677410865" lon="9.774580223002276"><ele>932.0</ele><time>2026-03-28T15:09:22.995Z</time></trkpt><trkpt lat="46.1397031981838" lon="9.774705483668368"><ele>938.6666666666666</ele><time>2026-03-28T15:09:24.995Z</time></trkpt><trkpt lat="46.139747925807676" lon="9.774818792133656"><ele>945.3333333333333</ele><time>2026-03-28T15:09:25.995Z</time></trkpt><trkpt lat="46.13969858009233" lon="9.77489063821081"><ele>952.0</ele><time>2026-03-28T15:09:29.994Z</time></trkpt><trkpt lat="46.13963657190896" lon="9.774872183464648"><ele>952.0</ele><time>2026-03-28T15:09:30.994Z</time></trkpt><trkpt lat="46.13953330662519" lon="9.774846861065921"><ele>952.0</ele><time>2026-03-28T15:09:31.994Z</time></trkpt><trkpt lat="46.13942112781431" lon="9.7747972628037"><ele>952.0</ele><time>2026-03-28T15:09:32.994Z</time></trkpt><trkpt lat="46.13933538013347" lon="9.774763920418843"><ele>952.0</ele><time>2026-03-28T15:09:33.994Z</time></trkpt><trkpt lat="46.13923622605242" lon="9.774766751158603"><ele>952.0</ele><time>2026-03-28T15:09:35.994Z</time></trkpt><trkpt lat="46.13926163048095" lon="9.77485357153934"><ele>952.0</ele><time>2026-03-28T15:09:37.994Z</time></trkpt><trkpt lat="46.139348253161465" lon="9.774929144187418"><ele>952.0</ele><time>2026-03-28T15:09:38.994Z</time></trkpt><trkpt lat="46.13941625515934" lon="9.774989348416137"><ele>952.0</ele><time>2026-03-28T15:09:39.994Z</time></trkpt><trkpt lat="46.13949399199359" lon="9.775067744102197"><ele>952.0</ele><time>2026-03-28T15:09:40.994Z</time></trkpt><trkpt lat="46.13958212586886" lon="9.775143363408816"><ele>952.0</ele><time>2026-03-28T15:09:41.994Z</time></trkpt><trkpt lat="46.13966439732355" lon="9.775230233670467"><ele>959.3333333333333</ele><time>2026-03-28T15:09:42.994Z</time></trkpt><trkpt lat="46.13972530388892" lon="9.775255952486942"><ele>966.6666666666666</ele><time>2026-03-28T15:09:43.994Z</time></trkpt><trkpt lat="46.13981980141405" lon="9.77526861083662"><ele>974.0</ele><time>2026-03-28T15:09:45.994Z</time></trkpt><trkpt lat="46.139772725754476" lon="9.775398356645338"><ele>981.3333333333333</ele><time>2026-03-28T15:09:47.994Z</time></trkpt><trkpt lat="46.139700034687344" lon="9.775419825394053"><ele>988.6666666666666</ele><time>2026-03-28T15:09:48.994Z</time></trkpt><trkpt lat="46.139600940661595" lon="9.77542009595451"><ele>996.0</ele><time>2026-03-28T15:09:49.994Z</time></trkpt><trkpt lat="46.139508437841286" lon="9.775347589157162"><ele>996.0</ele><time>2026-03-28T15:09:50.994Z</time></trkpt><trkpt lat="46.13941102370814" lon="9.775257838340963"><ele>996.0</ele><time>2026-03-28T15:09:51.994Z</time></trkpt><trkpt lat="46.13934476364699" lon="9.775211811040732"><ele>996.0</ele><time>2026-03-28T15:09:52.994Z</time></trkpt><trkpt lat="46.139279352277825" lon="9.775193623562918"><ele>996.0</ele><time>2026-03-28T15:09:53.994Z</time></trkpt><trkpt lat="46.13919880329745" lon="9.775219948132827"><ele>996.0</ele><time>2026-03-28T15:09:54.994Z</time></trkpt><trkpt lat="46.139119935770374" lon="9.775273365488511"><ele>996.0</ele><time>2026-03-28T15:09:55.994Z</time></trkpt><trkpt lat="46.13904184685792" lon="9.775296058423876"><ele>995.8333333333334</ele><time>2026-03-28T15:09:56.994Z</time></trkpt><trkpt lat="46.13898091449256" lon="9.77525652005655"><ele>995.6666666666667</ele><time>2026-03-28T15:09:57.994Z</time></trkpt><trkpt lat="46.138915934236564" lon="9.775232911720346"><ele>995.5</ele><time>2026-03-28T15:09:58.994Z</time></trkpt><trkpt lat="46.13883130062992" lon="9.775287023276844"><ele>995.3333333333334</ele><time>2026-03-28T15:09:59.994Z</time></trkpt><trkpt lat="46.13878107903899" lon="9.775371123545776"><ele>995.1666666666667</ele><time>2026-03-28T15:10:00.994Z</time></trkpt><trkpt lat="46.13870932897805" lon="9.775447804794313"><ele>995.0</ele><time>2026-03-28T15:10:02.994Z</time></trkpt><trkpt lat="46.13881539028341" lon="9.77547553231093"><ele>995.0</ele><time>2026-03-28T15:10:06.994Z</time></trkpt><trkpt lat="46.1388836145206" lon="9.775517625496937"><ele>995.0</ele><time>2026-03-28T15:10:07.994Z</time></trkpt><trkpt lat="46.13896493288845" lon="9.77559224654926"><ele>995.0</ele><time>2026-03-28T15:10:08.994Z</time></trkpt><trkpt lat="46.13903522943028" lon="9.775649597507245"><ele>995.0</ele><time>2026-03-28T15:10:09.994Z</time></trkpt><trkpt lat="46.13914466793199" lon="9.775699232826668"><ele>995.0</ele><time>2026-03-28T15:10:11.994Z</time></trkpt><trkpt lat="46.13923483141895" lon="9.775764265924693"><ele>995.2</ele><time>2026-03-28T15:10:12.994Z</time></trkpt><trkpt lat="46.13931634605976" lon="9.775849439029702"><ele>995.4</ele><time>2026-03-28T15:10:13.994Z</time></trkpt><trkpt lat="46.139390884753745" lon="9.775925424440706"><ele>995.5999999999999</ele><time>2026-03-28T15:10:14.994Z</time></trkpt><trkpt lat="46.13943981426892" lon="9.776025907776647"><ele>995.8</ele><time>2026-03-28T15:10:15.994Z</time></trkpt><trkpt lat="46.13950435759121" lon="9.776137482493711"><ele>996.0</ele><time>2026-03-28T15:10:16.994Z</time></trkpt><trkpt lat="46.139525193943705" lon="9.776254293229343"><ele>1002.8333333333334</ele><time>2026-03-28T15:10:17.994Z</time></trkpt><trkpt lat="46.13950673254292" lon="9.776384231007796"><ele>1009.6666666666667</ele><time>2026-03-28T15:10:18.994Z</time></trkpt><trkpt lat="46.13949618902134" lon="9.77649913898292"><ele>1016.5</ele><time>2026-03-28T15:10:19.994Z</time></trkpt><trkpt lat="46.13954837824694" lon="9.776598217101663"><ele>1023.3333333333334</ele><time>2026-03-28T15:10:20.994Z</time></trkpt><trkpt lat="46.139607998332764" lon="9.776687124642551"><ele>1030.1666666666667</ele><time>2026-03-28T15:10:21.994Z</time></trkpt><trkpt lat="46.13967100003395" lon="9.776745845537969"><ele>1037.0</ele><time>2026-03-28T15:10:22.994Z</time></trkpt><trkpt lat="46.13972584822945" lon="9.776797422436358"><ele>1041.5</ele><time>2026-03-28T15:10:23.994Z</time></trkpt><trkpt lat="46.13977365826711" lon="9.776896435834844"><ele>1046.0</ele><time>2026-03-28T15:10:25.994Z</time></trkpt><trkpt lat="46.13969568306083" lon="9.776898626914393"><ele>1050.5</ele><time>2026-03-28T15:10:27.994Z</time></trkpt><trkpt lat="46.13961994055634" lon="9.776898353103789"><ele>1055.0</ele><time>2026-03-28T15:10:29.994Z</time></trkpt><trkpt lat="46.139648664419084" lon="9.777022624413563"><ele>1059.5</ele><time>2026-03-28T15:10:31.994Z</time></trkpt><trkpt lat="46.139686851557315" lon="9.777130986615699"><ele>1064.0</ele><time>2026-03-28T15:10:32.994Z</time></trkpt><trkpt lat="46.139710192660466" lon="9.77723043242229"><ele>1064.0</ele><time>2026-03-28T15:10:33.994Z</time></trkpt><trkpt lat="46.13972325919574" lon="9.777338143492193"><ele>1064.0</ele><time>2026-03-28T15:10:34.994Z</time></trkpt><trkpt lat="46.13975215747181" lon="9.777419379752287"><ele>1064.0</ele><time>2026-03-28T15:10:35.994Z</time></trkpt><trkpt lat="46.13977669712953" lon="9.77752558039086"><ele>1064.0</ele><time>2026-03-28T15:10:36.994Z</time></trkpt><trkpt lat="46.13980045233259" lon="9.777628690964326"><ele>1064.0</ele><time>2026-03-28T15:10:37.994Z</time></trkpt><trkpt lat="46.139839359124906" lon="9.777731109970548"><ele>1064.0</ele><time>2026-03-28T15:10:38.994Z</time></trkpt><trkpt lat="46.13986502605175" lon="9.777823326683983"><ele>1064.0</ele><time>2026-03-28T15:10:39.994Z</time></trkpt><trkpt lat="46.13987284834897" lon="9.777957534828467"><ele>1064.5</ele><time>2026-03-28T15:10:41.994Z</time></trkpt><trkpt lat="46.139936994696775" lon="9.77810052448634"><ele>1065.0</ele><time>2026-03-28T15:10:43.994Z</time></trkpt><trkpt lat="46.13995813098259" lon="9.77819329851592"><ele>1065.5</ele><time>2026-03-28T15:10:44.994Z</time></trkpt><trkpt lat="46.13996928625288" lon="9.778293878814582"><ele>1066.0</ele><time>2026-03-28T15:10:45.994Z</time></trkpt><trkpt lat="46.13998517418178" lon="9.778423082492907"><ele>1066.5</ele><time>2026-03-28T15:10:46.994Z</time></trkpt><trkpt lat="46.13998854488091" lon="9.778544724045423"><ele>1067.0</ele><time>2026-03-28T15:10:47.994Z</time></trkpt><trkpt lat="46.140009184560796" lon="9.778663129585649"><ele>1067.0</ele><time>2026-03-28T15:10:48.994Z</time></trkpt><trkpt lat="46.140032344268185" lon="9.77877548952588"><ele>1067.0</ele><time>2026-03-28T15:10:49.994Z</time></trkpt><trkpt lat="46.14003014318909" lon="9.778901809031508"><ele>1067.0</ele><time>2026-03-28T15:10:51.994Z</time></trkpt><trkpt lat="46.14005391590128" lon="9.778990617104727"><ele>1067.0</ele><time>2026-03-28T15:10:53.994Z</time></trkpt><trkpt lat="46.140032393456096" lon="9.779082092739136"><ele>1067.0</ele><time>2026-03-28T15:10:55.994Z</time></trkpt><trkpt lat="46.139952880704264" lon="9.779119962803806"><ele>1067.0</ele><time>2026-03-28T15:10:57.994Z</time></trkpt><trkpt lat="46.13986244180954" lon="9.779137457876782"><ele>1066.9999999999998</ele><time>2026-03-28T15:10:59.994Z</time></trkpt><trkpt lat="46.13989714959754" lon="9.779226695088733"><ele>1067.0</ele><time>2026-03-28T15:11:07.994Z</time></trkpt><trkpt lat="46.139911182756904" lon="9.779355149649804"><ele>1067.0</ele><time>2026-03-28T15:11:11.994Z</time></trkpt><trkpt lat="46.13990006097001" lon="9.77944657466491"><ele>1067.0</ele><time>2026-03-28T15:11:14.994Z</time></trkpt><trkpt lat="46.139920724302186" lon="9.779536920657812"><ele>1067.0</ele><time>2026-03-28T15:11:17.994Z</time></trkpt><trkpt lat="46.13991176506485" lon="9.779645702078785"><ele>1066.9999999999998</ele><time>2026-03-28T15:11:19.994Z</time></trkpt><trkpt lat="46.13989223025704" lon="9.779737876756998"><ele>1067.0</ele><time>2026-03-28T15:11:21.994Z</time></trkpt><trkpt lat="46.13987233648627" lon="9.779833417288918"><ele>1081.0</ele><time>2026-03-28T15:11:24.994Z</time></trkpt><trkpt lat="46.139831990474036" lon="9.7797202013858"><ele>1095.0</ele><time>2026-03-28T15:11:28.994Z</time></trkpt><trkpt lat="46.13975472486266" lon="9.779610805263836"><ele>1109.0</ele><time>2026-03-28T15:11:30.994Z</time></trkpt><trkpt lat="46.13964140385604" lon="9.779508403441625"><ele>1123.0</ele><time>2026-03-28T15:11:32.994Z</time></trkpt><trkpt lat="46.13956440372785" lon="9.779500632345583"><ele>1137.0</ele><time>2026-03-28T15:11:34.994Z</time></trkpt><trkpt lat="46.13949915299291" lon="9.779553320227892"><ele>1137.0</ele><time>2026-03-28T15:12:01.994Z</time></trkpt><trkpt lat="46.139398021422124" lon="9.779565535454573"><ele>1137.0</ele><time>2026-03-28T15:12:03.994Z</time></trkpt><trkpt lat="46.13932531025023" lon="9.779531892832015"><ele>1137.0</ele><time>2026-03-28T15:12:04.994Z</time></trkpt><trkpt lat="46.139263412519924" lon="9.77950862902821"><ele>1137.0</ele><time>2026-03-28T15:12:05.994Z</time></trkpt><trkpt lat="46.13920166091561" lon="9.779490848469502"><ele>1137.0</ele><time>2026-03-28T15:12:06.994Z</time></trkpt><trkpt lat="46.13910313524697" lon="9.779396145473289"><ele>1137.0</ele><time>2026-03-28T15:12:08.994Z</time></trkpt><trkpt lat="46.13903035402905" lon="9.77931255332268"><ele>1138.0</ele><time>2026-03-28T15:12:10.994Z</time></trkpt><trkpt lat="46.138960826968216" lon="9.779252966598932"><ele>1139.0</ele><time>2026-03-28T15:12:12.994Z</time></trkpt><trkpt lat="46.13888833683478" lon="9.779216576748736"><ele>1140.0</ele><time>2026-03-28T15:12:14.994Z</time></trkpt><trkpt lat="46.13882230805977" lon="9.77917180550738"><ele>1141.0</ele><time>2026-03-28T15:12:18.993Z</time></trkpt><trkpt lat="46.138679531060454" lon="9.779149524127336"><ele>1142.0</ele><time>2026-03-28T15:12:21.993Z</time></trkpt><trkpt lat="46.13856845752464" lon="9.779150217897136"><ele>1142.0</ele><time>2026-03-28T15:12:23.993Z</time></trkpt><trkpt lat="46.13849590015796" lon="9.779160034888635"><ele>1142.0</ele><time>2026-03-28T15:12:26.993Z</time></trkpt><trkpt lat="46.13841530352904" lon="9.779106416719213"><ele>1142.0</ele><time>2026-03-28T15:12:28.993Z</time></trkpt><trkpt lat="46.138348096309095" lon="9.779053942135752"><ele>1142.0</ele><time>2026-03-28T15:12:30.993Z</time></trkpt><trkpt lat="46.13835842738153" lon="9.779161567674922"><ele>1142.0</ele><time>2026-03-28T15:12:35.993Z</time></trkpt><trkpt lat="46.138348036668575" lon="9.779269303687144"><ele>1142.0</ele><time>2026-03-28T15:12:37.993Z</time></trkpt><trkpt lat="46.13841743520576" lon="9.779389149814614"><ele>1147.4</ele><time>2026-03-28T15:12:39.993Z</time></trkpt><trkpt lat="46.13846451328133" lon="9.779520347897472"><ele>1152.8000000000002</ele><time>2026-03-28T15:12:41.993Z</time></trkpt><trkpt lat="46.13853355328607" lon="9.7796533256404"><ele>1158.2</ele><time>2026-03-28T15:12:43.993Z</time></trkpt><trkpt lat="46.13862274522519" lon="9.779751813470499"><ele>1163.6000000000001</ele><time>2026-03-28T15:12:45.993Z</time></trkpt><trkpt lat="46.13868437530675" lon="9.779852095120068"><ele>1169.0</ele><time>2026-03-28T15:12:48.993Z</time></trkpt><trkpt lat="46.13873522676844" lon="9.779913786098302"><ele>1169.0</ele><time>2026-03-28T15:12:50.994Z</time></trkpt><trkpt lat="46.13868074155785" lon="9.779860071597385"><ele>1169.0</ele><time>2026-03-28T15:13:02.993Z</time></trkpt><trkpt lat="46.138669771640785" lon="9.779741356532952"><ele>1169.0</ele><time>2026-03-28T15:13:04.993Z</time></trkpt><trkpt lat="46.138621766964434" lon="9.7796515604839"><ele>1169.0</ele><time>2026-03-28T15:13:06.993Z</time></trkpt><trkpt lat="46.13860902611956" lon="9.779557192995426"><ele>1169.0</ele><time>2026-03-28T15:13:07.993Z</time></trkpt><trkpt lat="46.13854397636467" lon="9.779536391879283"><ele>1169.0</ele><time>2026-03-28T15:13:10.993Z</time></trkpt><trkpt lat="46.13843709499614" lon="9.779504735428162"><ele>1169.0</ele><time>2026-03-28T15:13:12.993Z</time></trkpt><trkpt lat="46.13834808799215" lon="9.779411691296477"><ele>1169.0</ele><time>2026-03-28T15:13:14.993Z</time></trkpt><trkpt lat="46.138279214900486" lon="9.779296530463842"><ele>1169.0</ele><time>2026-03-28T15:13:16.993Z</time></trkpt><trkpt lat="46.13816962523623" lon="9.77926894116528"><ele>1169.0</ele><time>2026-03-28T15:13:21.993Z</time></trkpt><trkpt lat="46.138095243913305" lon="9.77922961957714"><ele>1169.0</ele><time>2026-03-28T15:13:23.993Z</time></trkpt><trkpt lat="46.13804221981357" lon="9.77913320705671"><ele>1171.8</ele><time>2026-03-28T15:13:25.993Z</time></trkpt><trkpt lat="46.1379622065238" lon="9.779112027043897"><ele>1174.6000000000001</ele><time>2026-03-28T15:13:27.993Z</time></trkpt><trkpt lat="46.13786434609873" lon="9.779168586921793"><ele>1177.4</ele><time>2026-03-28T15:13:29.993Z</time></trkpt><trkpt lat="46.13778601865941" lon="9.77924178885791"><ele>1180.2</ele><time>2026-03-28T15:13:31.993Z</time></trkpt><trkpt lat="46.13775467436658" lon="9.77932746859767"><ele>1183.0</ele><time>2026-03-28T15:13:32.993Z</time></trkpt><trkpt lat="46.13769499725638" lon="9.779465780542937"><ele>1183.0</ele><time>2026-03-28T15:13:34.993Z</time></trkpt><trkpt lat="46.13773724053884" lon="9.779554675626741"><ele>1183.0</ele><time>2026-03-28T15:13:38.992Z</time></trkpt><trkpt lat="46.13778797911392" lon="9.779615356411114"><ele>1183.0</ele><time>2026-03-28T15:13:40.992Z</time></trkpt><trkpt lat="46.1378190117977" lon="9.779695602261844"><ele>1183.0</ele><time>2026-03-28T15:13:42.992Z</time></trkpt><trkpt lat="46.13784289870662" lon="9.779799105266795"><ele>1183.0</ele><time>2026-03-28T15:13:45.992Z</time></trkpt><trkpt lat="46.13785315278437" lon="9.779900016341191"><ele>1183.0</ele><time>2026-03-28T15:13:47.992Z</time></trkpt><trkpt lat="46.137845700658765" lon="9.780072591596026"><ele>1187.3333333333333</ele><time>2026-03-28T15:13:52.992Z</time></trkpt><trkpt lat="46.1378981060831" lon="9.78023371869859"><ele>1191.6666666666665</ele><time>2026-03-28T15:13:54.992Z</time></trkpt><trkpt lat="46.137946100113204" lon="9.780347725439395"><ele>1196.0</ele><time>2026-03-28T15:13:56.992Z</time></trkpt><trkpt lat="46.1379013331801" lon="9.780422041899744"><ele>1200.3333333333333</ele><time>2026-03-28T15:14:07.992Z</time></trkpt><trkpt lat="46.137899687673446" lon="9.78054211271332"><ele>1204.6666666666667</ele><time>2026-03-28T15:14:22.992Z</time></trkpt><trkpt lat="46.13795617310234" lon="9.780628177667861"><ele>1209.0</ele><time>2026-03-28T15:14:24.992Z</time></trkpt><trkpt lat="46.138014618392155" lon="9.78067430757963"><ele>1209.0</ele><time>2026-03-28T15:14:26.992Z</time></trkpt><trkpt lat="46.138108189468284" lon="9.780647620981204"><ele>1209.0</ele><time>2026-03-28T15:14:28.992Z</time></trkpt><trkpt lat="46.138044621590474" lon="9.78076448429281"><ele>1209.0</ele><time>2026-03-28T15:14:34.992Z</time></trkpt><trkpt lat="46.13809438335081" lon="9.780848104547273"><ele>1209.0</ele><time>2026-03-28T15:14:39.992Z</time></trkpt><trkpt lat="46.138173030764385" lon="9.780959485800192"><ele>1209.0</ele><time>2026-03-28T15:14:42.992Z</time></trkpt><trkpt lat="46.13816228593788" lon="9.78108077548572"><ele>1210.5</ele><time>2026-03-28T15:14:47.992Z</time></trkpt><trkpt lat="46.13814646891141" lon="9.781194525307638"><ele>1212.0</ele><time>2026-03-28T15:14:49.992Z</time></trkpt><trkpt lat="46.13812589346397" lon="9.781284655971453"><ele>1213.5</ele><time>2026-03-28T15:14:50.992Z</time></trkpt><trkpt lat="46.13810317492327" lon="9.7813730944656"><ele>1215.0</ele><time>2026-03-28T15:14:51.993Z</time></trkpt><trkpt lat="46.13807148635067" lon="9.781507921202278"><ele>1216.5</ele><time>2026-03-28T15:14:53.993Z</time></trkpt><trkpt lat="46.13802513010185" lon="9.781684655227908"><ele>1218.0</ele><time>2026-03-28T15:14:55.992Z</time></trkpt><trkpt lat="46.13799857614071" lon="9.781804040850561"><ele>1218.8</ele><time>2026-03-28T15:14:56.992Z</time></trkpt><trkpt lat="46.13797347392137" lon="9.781932141234275"><ele>1219.6</ele><time>2026-03-28T15:14:57.992Z</time></trkpt><trkpt lat="46.13796405361985" lon="9.782067843348603"><ele>1220.4</ele><time>2026-03-28T15:14:58.992Z</time></trkpt><trkpt lat="46.137900420494624" lon="9.782230150242995"><ele>1221.2</ele><time>2026-03-28T15:15:00.993Z</time></trkpt><trkpt lat="46.137854257119166" lon="9.782327524429865"><ele>1222.0</ele><time>2026-03-28T15:15:01.993Z</time></trkpt><trkpt lat="46.13778588077548" lon="9.782398500755708"><ele>1222.0</ele><time>2026-03-28T15:15:02.992Z</time></trkpt><trkpt lat="46.13768441241774" lon="9.782414402594831"><ele>1222.0</ele><time>2026-03-28T15:15:03.992Z</time></trkpt><trkpt lat="46.13759404418034" lon="9.7824078014756"><ele>1222.0</ele><time>2026-03-28T15:15:04.992Z</time></trkpt><trkpt lat="46.13751799634684" lon="9.782419682463134"><ele>1222.0</ele><time>2026-03-28T15:15:05.992Z</time></trkpt><trkpt lat="46.137435103600055" lon="9.782431611954607"><ele>1222.0</ele><time>2026-03-28T15:15:06.992Z</time></trkpt><trkpt lat="46.137330380764084" lon="9.782451889934412"><ele>1227.0</ele><time>2026-03-28T15:15:07.992Z</time></trkpt><trkpt lat="46.13723602259195" lon="9.782469335224985"><ele>1232.0</ele><time>2026-03-28T15:15:09.992Z</time></trkpt><trkpt lat="46.137183284014" lon="9.782535000226861"><ele>1237.0</ele><time>2026-03-28T15:15:10.992Z</time></trkpt><trkpt lat="46.137103782118736" lon="9.782635273529822"><ele>1242.0</ele><time>2026-03-28T15:15:12.992Z</time></trkpt><trkpt lat="46.1370102083974" lon="9.782773409984957"><ele>1247.0</ele><time>2026-03-28T15:15:14.992Z</time></trkpt><trkpt lat="46.13697093441578" lon="9.782892587187161"><ele>1247.1666666666667</ele><time>2026-03-28T15:15:15.992Z</time></trkpt><trkpt lat="46.13693668542321" lon="9.78298994472223"><ele>1247.3333333333335</ele><time>2026-03-28T15:15:16.992Z</time></trkpt><trkpt lat="46.136894139789476" lon="9.783091988854773"><ele>1247.5</ele><time>2026-03-28T15:15:17.992Z</time></trkpt><trkpt lat="46.13685448944271" lon="9.783171821814806"><ele>1247.6666666666667</ele><time>2026-03-28T15:15:18.992Z</time></trkpt><trkpt lat="46.136790270901315" lon="9.783273570287273"><ele>1247.8333333333333</ele><time>2026-03-28T15:15:20.992Z</time></trkpt><trkpt lat="46.13679530063832" lon="9.78343862823451"><ele>1248.0</ele><time>2026-03-28T15:15:22.992Z</time></trkpt><trkpt lat="46.13676155218377" lon="9.783544562126107"><ele>1248.1666666666667</ele><time>2026-03-28T15:15:24.992Z</time></trkpt><trkpt lat="46.13669700653368" lon="9.783614472831763"><ele>1248.3333333333333</ele><time>2026-03-28T15:15:26.992Z</time></trkpt><trkpt lat="46.13662115576562" lon="9.783657362315667"><ele>1248.5</ele><time>2026-03-28T15:15:28.992Z</time></trkpt><trkpt lat="46.13657983900998" lon="9.783767289060174"><ele>1248.6666666666665</ele><time>2026-03-28T15:15:30.992Z</time></trkpt><trkpt lat="46.136529933257016" lon="9.783907279633572"><ele>1248.8333333333333</ele><time>2026-03-28T15:15:32.992Z</time></trkpt><trkpt lat="46.13649270508966" lon="9.78398566893724"><ele>1249.0</ele><time>2026-03-28T15:15:33.992Z</time></trkpt><trkpt lat="46.13642079450354" lon="9.78406506070573"><ele>1257.0</ele><time>2026-03-28T15:15:35.992Z</time></trkpt><trkpt lat="46.1363966111374" lon="9.784172962707995"><ele>1265.0</ele><time>2026-03-28T15:15:37.992Z</time></trkpt><trkpt lat="46.13633313476867" lon="9.7842003529949"><ele>1273.0</ele><time>2026-03-28T15:15:40.992Z</time></trkpt><trkpt lat="46.13625209607406" lon="9.784120233464083"><ele>1281.0</ele><time>2026-03-28T15:15:43.992Z</time></trkpt><trkpt lat="46.13620713326863" lon="9.784045215564014"><ele>1289.0</ele><time>2026-03-28T15:15:45.992Z</time></trkpt><trkpt lat="46.13615373266347" lon="9.783945139210429"><ele>1297.0</ele><time>2026-03-28T15:15:48.992Z</time></trkpt><trkpt lat="46.13610117583855" lon="9.783845434901517"><ele>1297.0</ele><time>2026-03-28T15:15:51.992Z</time></trkpt><trkpt lat="46.136052893803395" lon="9.783754426052987"><ele>1297.0</ele><time>2026-03-28T15:15:56.991Z</time></trkpt><trkpt lat="46.13600299002648" lon="9.783696366073505"><ele>1297.0</ele><time>2026-03-28T15:16:01.991Z</time></trkpt><trkpt lat="46.13598403480314" lon="9.783604615188054"><ele>1297.0</ele><time>2026-03-28T15:16:47.991Z</time></trkpt><trkpt lat="46.135996483129" lon="9.783497600081297"><ele>1297.0</ele><time>2026-03-28T15:16:49.991Z</time></trkpt><trkpt lat="46.13603295983295" lon="9.783317565271684"><ele>1297.0</ele><time>2026-03-28T15:16:52.991Z</time></trkpt><trkpt lat="46.13603547010341" lon="9.78322421202839"><ele>1293.3999999999999</ele><time>2026-03-28T15:16:53.991Z</time></trkpt><trkpt lat="46.13601561642191" lon="9.783057628968123"><ele>1289.8</ele><time>2026-03-28T15:16:55.991Z</time></trkpt><trkpt lat="46.13599729477114" lon="9.782901411274441"><ele>1286.2</ele><time>2026-03-28T15:16:57.992Z</time></trkpt><trkpt lat="46.13595174737223" lon="9.78274511695781"><ele>1282.6</ele><time>2026-03-28T15:16:59.992Z</time></trkpt><trkpt lat="46.135982957477296" lon="9.782611706687117"><ele>1279.0</ele><time>2026-03-28T15:17:01.992Z</time></trkpt><trkpt lat="46.13604957089982" lon="9.782468774570418"><ele>1277.1666666666665</ele><time>2026-03-28T15:17:03.992Z</time></trkpt><trkpt lat="46.136083977183134" lon="9.782390893598308"><ele>1275.3333333333333</ele><time>2026-03-28T15:17:04.992Z</time></trkpt><trkpt lat="46.136139362913184" lon="9.782265311825492"><ele>1273.5</ele><time>2026-03-28T15:17:06.992Z</time></trkpt><trkpt lat="46.13617116825109" lon="9.782140179753473"><ele>1271.6666666666667</ele><time>2026-03-28T15:17:08.992Z</time></trkpt><trkpt lat="46.13608932583878" lon="9.782075293559808"><ele>1269.8333333333335</ele><time>2026-03-28T15:17:12.992Z</time></trkpt><trkpt lat="46.136029150260455" lon="9.78210402482899"><ele>1268.0</ele><time>2026-03-28T15:17:13.992Z</time></trkpt><trkpt lat="46.13597001291626" lon="9.782143651569285"><ele>1268.0</ele><time>2026-03-28T15:17:14.992Z</time></trkpt><trkpt lat="46.135893504523985" lon="9.782166457741287"><ele>1268.0</ele><time>2026-03-28T15:17:15.992Z</time></trkpt><trkpt lat="46.13583262775451" lon="9.78221928025934"><ele>1268.0</ele><time>2026-03-28T15:17:16.992Z</time></trkpt><trkpt lat="46.13575493598298" lon="9.78226653524924"><ele>1268.0</ele><time>2026-03-28T15:17:17.992Z</time></trkpt><trkpt lat="46.13569124827189" lon="9.782290102157877"><ele>1268.0</ele><time>2026-03-28T15:17:18.992Z</time></trkpt><trkpt lat="46.13557536410598" lon="9.782277937355163"><ele>1268.0</ele><time>2026-03-28T15:17:20.992Z</time></trkpt><trkpt lat="46.135476344231826" lon="9.782187411597828"><ele>1269.6666666666667</ele><time>2026-03-28T15:17:22.992Z</time></trkpt><trkpt lat="46.13541918986677" lon="9.782110037421715"><ele>1271.3333333333335</ele><time>2026-03-28T15:17:24.992Z</time></trkpt><trkpt lat="46.13536103650363" lon="9.78202274388483"><ele>1273.0</ele><time>2026-03-28T15:17:26.992Z</time></trkpt><trkpt lat="46.13530887002726" lon="9.781971872278575"><ele>1274.6666666666667</ele><time>2026-03-28T15:17:28.992Z</time></trkpt><trkpt lat="46.13525297618321" lon="9.78189354768162"><ele>1276.3333333333333</ele><time>2026-03-28T15:17:30.992Z</time></trkpt><trkpt lat="46.13518857319344" lon="9.78177338906837"><ele>1278.0</ele><time>2026-03-28T15:17:32.992Z</time></trkpt><trkpt lat="46.135138083604204" lon="9.781611295662428"><ele>1278.0</ele><time>2026-03-28T15:17:34.992Z</time></trkpt><trkpt lat="46.13509065815822" lon="9.781537075284552"><ele>1278.0</ele><time>2026-03-28T15:17:35.992Z</time></trkpt><trkpt lat="46.135033690477954" lon="9.781467758599304"><ele>1278.0</ele><time>2026-03-28T15:17:36.992Z</time></trkpt><trkpt lat="46.134956316354966" lon="9.781467233887907"><ele>1278.0</ele><time>2026-03-28T15:17:37.992Z</time></trkpt><trkpt lat="46.134849562183" lon="9.781502196826512"><ele>1278.0</ele><time>2026-03-28T15:17:38.992Z</time></trkpt><trkpt lat="46.134759526777685" lon="9.781526975676103"><ele>1278.0</ele><time>2026-03-28T15:17:39.992Z</time></trkpt><trkpt lat="46.134693334611654" lon="9.78156173796243"><ele>1279.3333333333333</ele><time>2026-03-28T15:17:40.992Z</time></trkpt><trkpt lat="46.13460149517297" lon="9.781608008687451"><ele>1280.6666666666667</ele><time>2026-03-28T15:17:42.991Z</time></trkpt><trkpt lat="46.13453802083001" lon="9.78161421674597"><ele>1282.0</ele><time>2026-03-28T15:17:46.991Z</time></trkpt><trkpt lat="46.13459641485457" lon="9.78167553461411"><ele>1283.3333333333335</ele><time>2026-03-28T15:17:53.991Z</time></trkpt><trkpt lat="46.134674961297755" lon="9.781686156311617"><ele>1284.6666666666667</ele><time>2026-03-28T15:17:55.991Z</time></trkpt><trkpt lat="46.13475003080757" lon="9.781739662367082"><ele>1286.0</ele><time>2026-03-28T15:17:56.991Z</time></trkpt><trkpt lat="46.134812050779395" lon="9.78182569802143"><ele>1289.6666666666667</ele><time>2026-03-28T15:17:58.991Z</time></trkpt><trkpt lat="46.1348565570282" lon="9.781891879334433"><ele>1293.3333333333335</ele><time>2026-03-28T15:17:59.991Z</time></trkpt><trkpt lat="46.134900601427276" lon="9.782017683659346"><ele>1297.0</ele><time>2026-03-28T15:18:01.991Z</time></trkpt><trkpt lat="46.13483611888626" lon="9.782118871710656"><ele>1300.6666666666667</ele><time>2026-03-28T15:18:08.991Z</time></trkpt><trkpt lat="46.13475339868942" lon="9.782125712776166"><ele>1304.3333333333333</ele><time>2026-03-28T15:18:11.991Z</time></trkpt><trkpt lat="46.13468573624937" lon="9.782090003810989"><ele>1308.0</ele><time>2026-03-28T15:18:14.991Z</time></trkpt><trkpt lat="46.13460669784385" lon="9.782087592288427"><ele>1310.1666666666667</ele><time>2026-03-28T15:18:17.991Z</time></trkpt><trkpt lat="46.134554694945166" lon="9.782151191539576"><ele>1312.3333333333333</ele><time>2026-03-28T15:18:21.991Z</time></trkpt><trkpt lat="46.13450912741934" lon="9.782261684552553"><ele>1314.5</ele><time>2026-03-28T15:18:24.991Z</time></trkpt><trkpt lat="46.134460932848924" lon="9.782363739344206"><ele>1316.6666666666665</ele><time>2026-03-28T15:18:26.991Z</time></trkpt><trkpt lat="46.13439722525576" lon="9.78242659051032"><ele>1318.8333333333333</ele><time>2026-03-28T15:18:31.991Z</time></trkpt><trkpt lat="46.13435651110045" lon="9.78252584607831"><ele>1321.0</ele><time>2026-03-28T15:18:33.991Z</time></trkpt><trkpt lat="46.134339488484436" lon="9.782637327132116"><ele>1326.6666666666665</ele><time>2026-03-28T15:18:35.991Z</time></trkpt><trkpt lat="46.134292208010585" lon="9.782720095704155"><ele>1332.3333333333333</ele><time>2026-03-28T15:18:37.991Z</time></trkpt><trkpt lat="46.13429465871848" lon="9.782828617694706"><ele>1338.0</ele><time>2026-03-28T15:18:40.991Z</time></trkpt><trkpt lat="46.13435540100421" lon="9.78288109623711"><ele>1343.6666666666667</ele><time>2026-03-28T15:18:42.991Z</time></trkpt><trkpt lat="46.13430943839205" lon="9.782945244340448"><ele>1349.3333333333335</ele><time>2026-03-28T15:19:00.991Z</time></trkpt><trkpt lat="46.134388988932635" lon="9.783011517202103"><ele>1355.0</ele><time>2026-03-28T15:19:28.991Z</time></trkpt><trkpt lat="46.134418566994796" lon="9.78315344558372"><ele>1355.0</ele><time>2026-03-28T15:19:30.991Z</time></trkpt><trkpt lat="46.134328817600334" lon="9.783241245290807"><ele>1355.0</ele><time>2026-03-28T15:19:32.991Z</time></trkpt><trkpt lat="46.13423954167599" lon="9.783234752013588"><ele>1355.0</ele><time>2026-03-28T15:19:34.991Z</time></trkpt><trkpt lat="46.13414586338263" lon="9.783221243133644"><ele>1355.0</ele><time>2026-03-28T15:19:38.991Z</time></trkpt><trkpt lat="46.13404402663908" lon="9.783282946537073"><ele>1355.0</ele><time>2026-03-28T15:19:40.991Z</time></trkpt><trkpt lat="46.13395679189848" lon="9.783308155698831"><ele>1358.3333333333335</ele><time>2026-03-28T15:19:42.991Z</time></trkpt><trkpt lat="46.133883352103084" lon="9.783291766966991"><ele>1361.6666666666667</ele><time>2026-03-28T15:19:44.991Z</time></trkpt><trkpt lat="46.1338497950927" lon="9.783370310546998"><ele>1365.0</ele><time>2026-03-28T15:20:31.991Z</time></trkpt><trkpt lat="46.133910291742545" lon="9.783344866529106"><ele>1368.3333333333333</ele><time>2026-03-28T15:20:39.991Z</time></trkpt><trkpt lat="46.13397464667045" lon="9.783349706835676"><ele>1371.6666666666665</ele><time>2026-03-28T15:20:42.991Z</time></trkpt><trkpt lat="46.13405138998817" lon="9.783469798092256"><ele>1375.0</ele><time>2026-03-28T15:21:18.991Z</time></trkpt><trkpt lat="46.134022827984694" lon="9.783578156632815"><ele>1375.0</ele><time>2026-03-28T15:21:25.991Z</time></trkpt><trkpt lat="46.13396981224517" lon="9.783502375882538"><ele>1375.0</ele><time>2026-03-28T15:21:31.991Z</time></trkpt><trkpt lat="46.1339145030891" lon="9.783547384399473"><ele>1375.0</ele><time>2026-03-28T15:21:42.991Z</time></trkpt><trkpt lat="46.13377015895709" lon="9.78359550948649"><ele>1375.0</ele><time>2026-03-28T15:21:56.991Z</time></trkpt><trkpt lat="46.13372202235763" lon="9.783669209219518"><ele>1375.0</ele><time>2026-03-28T15:22:12.99Z</time></trkpt><trkpt lat="46.13376376997146" lon="9.783738727852214"><ele>1375.0</ele><time>2026-03-28T15:22:50.99Z</time></trkpt><trkpt lat="46.13369733352272" lon="9.783711555972822"><ele>1379.6666666666665</ele><time>2026-03-28T15:22:56.99Z</time></trkpt><trkpt lat="46.13367602522358" lon="9.783815225713129"><ele>1384.3333333333333</ele><time>2026-03-28T15:24:35.989Z</time></trkpt><trkpt lat="46.13371764373987" lon="9.783901072363905"><ele>1389.0</ele><time>2026-03-28T15:24:53.989Z</time></trkpt><trkpt lat="46.13376886604469" lon="9.783954603145263"><ele>1393.6666666666667</ele><time>2026-03-28T15:25:06.989Z</time></trkpt><trkpt lat="46.13367732820974" lon="9.783915657812974"><ele>1398.3333333333335</ele><time>2026-03-28T15:25:23.989Z</time></trkpt><trkpt lat="46.13373234848743" lon="9.783852129791734"><ele>1403.0</ele><time>2026-03-28T15:25:27.989Z</time></trkpt><trkpt lat="46.13364760993364" lon="9.783889949408618"><ele>1402.9999999999998</ele><time>2026-03-28T15:25:48.989Z</time></trkpt><trkpt lat="46.13370100984415" lon="9.783939202681232"><ele>1403.0</ele><time>2026-03-28T15:26:08.989Z</time></trkpt><trkpt lat="46.13374972363827" lon="9.78386632747874"><ele>1403.0</ele><time>2026-03-28T15:26:25.989Z</time></trkpt><trkpt lat="46.1336843689574" lon="9.783912053806262"><ele>1403.0</ele><time>2026-03-28T15:26:31.989Z</time></trkpt><trkpt lat="46.13360822042888" lon="9.783899060559085"><ele>1403.0</ele><time>2026-03-28T15:26:33.989Z</time></trkpt><trkpt lat="46.13361134099919" lon="9.78399463550867"><ele>1402.9999999999998</ele><time>2026-03-28T15:26:38.989Z</time></trkpt><trkpt lat="46.13360526569913" lon="9.784087536385261"><ele>1403.0</ele><time>2026-03-28T15:26:45.989Z</time></trkpt><trkpt lat="46.133663225344165" lon="9.784036520839436"><ele>1403.0</ele><time>2026-03-28T15:27:03.988Z</time></trkpt><trkpt lat="46.133680016500435" lon="9.784128118178751"><ele>1403.0</ele><time>2026-03-28T15:27:06.988Z</time></trkpt><trkpt lat="46.13360079899662" lon="9.78409893796707"><ele>1403.0</ele><time>2026-03-28T15:27:10.988Z</time></trkpt><trkpt lat="46.13352534725149" lon="9.784060126650456"><ele>1403.0</ele><time>2026-03-28T15:27:14.988Z</time></trkpt><trkpt lat="46.133454177916555" lon="9.784096468502831"><ele>1403.0</ele><time>2026-03-28T15:27:16.988Z</time></trkpt><trkpt lat="46.13334573544505" lon="9.784112406433273"><ele>1403.0</ele><time>2026-03-28T15:27:18.988Z</time></trkpt><trkpt lat="46.13327119908685" lon="9.7840627264881"><ele>1402.9999999999998</ele><time>2026-03-28T15:27:22.988Z</time></trkpt><trkpt lat="46.13320881917678" lon="9.784042821809955"><ele>1403.0</ele><time>2026-03-28T15:27:35.988Z</time></trkpt><trkpt lat="46.133212287734" lon="9.783950799741717"><ele>1403.0</ele><time>2026-03-28T15:27:45.988Z</time></trkpt><trkpt lat="46.13322176122633" lon="9.783856820126196"><ele>1403.0</ele><time>2026-03-28T15:28:08.988Z</time></trkpt><trkpt lat="46.13322682179561" lon="9.783763534075655"><ele>1403.0</ele><time>2026-03-28T15:28:30.988Z</time></trkpt><trkpt lat="46.13325050023943" lon="9.783660986531201"><ele>1402.9999999999998</ele><time>2026-03-28T15:28:36.988Z</time></trkpt><trkpt lat="46.13323285031207" lon="9.783569676955182"><ele>1403.0</ele><time>2026-03-28T15:28:42.988Z</time></trkpt><trkpt lat="46.133182689299495" lon="9.78350749350235"><ele>1401.0</ele><time>2026-03-28T15:28:46.988Z</time></trkpt><trkpt lat="46.13315221648528" lon="9.783417656091823"><ele>1399.0</ele><time>2026-03-28T15:28:49.988Z</time></trkpt><trkpt lat="46.13310463831836" lon="9.783337608817398"><ele>1397.0</ele><time>2026-03-28T15:28:53.988Z</time></trkpt><trkpt lat="46.133049543163345" lon="9.783285486386134"><ele>1395.0</ele><time>2026-03-28T15:28:59.988Z</time></trkpt><trkpt lat="46.132983001874926" lon="9.783269204582245"><ele>1393.0</ele><time>2026-03-28T15:29:03.988Z</time></trkpt><trkpt lat="46.132881410435544" lon="9.783328943199418"><ele>1391.0</ele><time>2026-03-28T15:29:09.988Z</time></trkpt><trkpt lat="46.132763981934" lon="9.783374433197379"><ele>1391.0</ele><time>2026-03-28T15:29:11.988Z</time></trkpt><trkpt lat="46.1326859590757" lon="9.783409898323676"><ele>1391.0</ele><time>2026-03-28T15:29:13.988Z</time></trkpt><trkpt lat="46.13259559278174" lon="9.78343836510112"><ele>1391.0</ele><time>2026-03-28T15:29:15.987Z</time></trkpt><trkpt lat="46.13248908477527" lon="9.783433588442604"><ele>1391.0</ele><time>2026-03-28T15:29:17.987Z</time></trkpt><trkpt lat="46.13238323914795" lon="9.783391312414738"><ele>1391.0</ele><time>2026-03-28T15:29:19.987Z</time></trkpt><trkpt lat="46.13229721784082" lon="9.783400828934916"><ele>1394.4</ele><time>2026-03-28T15:29:21.987Z</time></trkpt><trkpt lat="46.132230728198955" lon="9.78340247319766"><ele>1397.8</ele><time>2026-03-28T15:29:23.987Z</time></trkpt><trkpt lat="46.132105411249476" lon="9.783374558096591"><ele>1401.2</ele><time>2026-03-28T15:29:25.987Z</time></trkpt><trkpt lat="46.13204140877138" lon="9.78334901979004"><ele>1404.6000000000001</ele><time>2026-03-28T15:29:26.987Z</time></trkpt><trkpt lat="46.131951946238445" lon="9.783241039552971"><ele>1408.0</ele><time>2026-03-28T15:29:28.987Z</time></trkpt><trkpt lat="46.13187485908255" lon="9.783221033358837"><ele>1408.0</ele><time>2026-03-28T15:29:29.987Z</time></trkpt><trkpt lat="46.13176112665725" lon="9.783217060363095"><ele>1408.0</ele><time>2026-03-28T15:29:31.988Z</time></trkpt><trkpt lat="46.131678679743125" lon="9.783191216260901"><ele>1408.0</ele><time>2026-03-28T15:29:33.988Z</time></trkpt><trkpt lat="46.13159838048787" lon="9.783148197577361"><ele>1408.0</ele><time>2026-03-28T15:29:35.988Z</time></trkpt><trkpt lat="46.13151875478615" lon="9.78312259451389"><ele>1408.0</ele><time>2026-03-28T15:29:37.988Z</time></trkpt><trkpt lat="46.13145676846524" lon="9.783150861023726"><ele>1408.0</ele><time>2026-03-28T15:29:40.988Z</time></trkpt><trkpt lat="46.131387242529854" lon="9.783131308972896"><ele>1410.0</ele><time>2026-03-28T15:29:43.988Z</time></trkpt><trkpt lat="46.13133114846337" lon="9.783086696651798"><ele>1412.0</ele><time>2026-03-28T15:29:45.988Z</time></trkpt><trkpt lat="46.131247719902426" lon="9.783049443201111"><ele>1414.0</ele><time>2026-03-28T15:29:47.988Z</time></trkpt><trkpt lat="46.131168267269274" lon="9.783021467751004"><ele>1416.0</ele><time>2026-03-28T15:29:49.988Z</time></trkpt><trkpt lat="46.13109004852452" lon="9.783021975470987"><ele>1418.0</ele><time>2026-03-28T15:29:51.988Z</time></trkpt><trkpt lat="46.13102875007477" lon="9.783060030085752"><ele>1420.0</ele><time>2026-03-28T15:29:53.988Z</time></trkpt><trkpt lat="46.130948307955414" lon="9.783077003347818"><ele>1420.0</ele><time>2026-03-28T15:29:56.988Z</time></trkpt><trkpt lat="46.13088209757838" lon="9.783076627887775"><ele>1420.0</ele><time>2026-03-28T15:29:58.988Z</time></trkpt><trkpt lat="46.130809446092314" lon="9.783068413965374"><ele>1420.0</ele><time>2026-03-28T15:29:59.988Z</time></trkpt><trkpt lat="46.13074763237924" lon="9.783033992168251"><ele>1420.0</ele><time>2026-03-28T15:30:00.988Z</time></trkpt><trkpt lat="46.13063728099921" lon="9.78303922535315"><ele>1420.0</ele><time>2026-03-28T15:30:02.987Z</time></trkpt><trkpt lat="46.13056312076872" lon="9.783036354272001"><ele>1420.0</ele><time>2026-03-28T15:30:03.987Z</time></trkpt><trkpt lat="46.13048074355839" lon="9.783005354743052"><ele>1418.1666666666665</ele><time>2026-03-28T15:30:05.987Z</time></trkpt><trkpt lat="46.130412432257586" lon="9.78301902697942"><ele>1416.3333333333333</ele><time>2026-03-28T15:30:08.987Z</time></trkpt><trkpt lat="46.13032486987978" lon="9.78308797348021"><ele>1414.5</ele><time>2026-03-28T15:30:11.987Z</time></trkpt><trkpt lat="46.130243823666504" lon="9.783141269157325"><ele>1412.6666666666667</ele><time>2026-03-28T15:30:12.987Z</time></trkpt><trkpt lat="46.13016660913503" lon="9.783167075908931"><ele>1410.8333333333335</ele><time>2026-03-28T15:30:13.987Z</time></trkpt><trkpt lat="46.130077898204924" lon="9.783197105898681"><ele>1409.0</ele><time>2026-03-28T15:30:14.987Z</time></trkpt><trkpt lat="46.12999286210415" lon="9.783253845948064"><ele>1409.0</ele><time>2026-03-28T15:30:15.987Z</time></trkpt><trkpt lat="46.12992205021588" lon="9.783311941197901"><ele>1409.0</ele><time>2026-03-28T15:30:16.987Z</time></trkpt><trkpt lat="46.12985384712806" lon="9.783364474759106"><ele>1409.0</ele><time>2026-03-28T15:30:17.987Z</time></trkpt><trkpt lat="46.12976669651622" lon="9.783370417655492"><ele>1409.0</ele><time>2026-03-28T15:30:18.987Z</time></trkpt><trkpt lat="46.129695541196746" lon="9.783420606786423"><ele>1409.0</ele><time>2026-03-28T15:30:19.987Z</time></trkpt><trkpt lat="46.129634137181704" lon="9.783476390520944"><ele>1409.0</ele><time>2026-03-28T15:30:20.987Z</time></trkpt><trkpt lat="46.129567343072196" lon="9.783534588050149"><ele>1412.6</ele><time>2026-03-28T15:30:21.987Z</time></trkpt><trkpt lat="46.129458223451344" lon="9.783601823258769"><ele>1416.2</ele><time>2026-03-28T15:30:23.987Z</time></trkpt><trkpt lat="46.12938268228399" lon="9.783674339437612"><ele>1419.8</ele><time>2026-03-28T15:30:25.987Z</time></trkpt><trkpt lat="46.12932388896093" lon="9.783727350232041"><ele>1423.3999999999999</ele><time>2026-03-28T15:30:26.987Z</time></trkpt><trkpt lat="46.12923695593316" lon="9.78378908573821"><ele>1427.0</ele><time>2026-03-28T15:30:27.987Z</time></trkpt><trkpt lat="46.12916901189171" lon="9.78385711322422"><ele>1427.0</ele><time>2026-03-28T15:30:28.987Z</time></trkpt><trkpt lat="46.12912518651842" lon="9.783964230058398"><ele>1427.0</ele><time>2026-03-28T15:30:29.987Z</time></trkpt><trkpt lat="46.129113197002546" lon="9.784064847148166"><ele>1427.0</ele><time>2026-03-28T15:30:30.987Z</time></trkpt><trkpt lat="46.129080027717904" lon="9.784193786252425"><ele>1427.0</ele><time>2026-03-28T15:30:31.987Z</time></trkpt><trkpt lat="46.12906262383956" lon="9.78429274392587"><ele>1427.0</ele><time>2026-03-28T15:30:32.987Z</time></trkpt><trkpt lat="46.129089013141716" lon="9.784470943235958"><ele>1427.0</ele><time>2026-03-28T15:30:34.987Z</time></trkpt><trkpt lat="46.129092737873385" lon="9.78457437101114"><ele>1430.3333333333335</ele><time>2026-03-28T15:30:35.987Z</time></trkpt><trkpt lat="46.12909238383469" lon="9.78468116921155"><ele>1433.6666666666667</ele><time>2026-03-28T15:30:36.987Z</time></trkpt><trkpt lat="46.12904472140566" lon="9.784797816010089"><ele>1437.0</ele><time>2026-03-28T15:30:38.987Z</time></trkpt><trkpt lat="46.12892240826245" lon="9.784820772270582"><ele>1440.3333333333333</ele><time>2026-03-28T15:30:40.987Z</time></trkpt><trkpt lat="46.12883901972194" lon="9.784823471943016"><ele>1443.6666666666665</ele><time>2026-03-28T15:30:43.987Z</time></trkpt><trkpt lat="46.12877091926426" lon="9.784820238278872"><ele>1447.0</ele><time>2026-03-28T15:30:46.987Z</time></trkpt><trkpt lat="46.12870529638708" lon="9.78484398491083"><ele>1447.0</ele><time>2026-03-28T15:30:59.987Z</time></trkpt><trkpt lat="46.12863956569818" lon="9.784797335174352"><ele>1447.0</ele><time>2026-03-28T15:31:07.987Z</time></trkpt><trkpt lat="46.1285712153129" lon="9.784809644816939"><ele>1447.0</ele><time>2026-03-28T15:31:11.987Z</time></trkpt><trkpt lat="46.128508169486956" lon="9.78480989044009"><ele>1447.0</ele><time>2026-03-28T15:31:25.987Z</time></trkpt><trkpt lat="46.128428813951494" lon="9.78481284916042"><ele>1447.0</ele><time>2026-03-28T15:31:27.987Z</time></trkpt><trkpt lat="46.12830808200315" lon="9.784816184705173"><ele>1447.0</ele><time>2026-03-28T15:31:29.987Z</time></trkpt><trkpt lat="46.12823630788174" lon="9.784783964004657"><ele>1442.6666666666665</ele><time>2026-03-28T15:31:30.987Z</time></trkpt><trkpt lat="46.1281539813992" lon="9.78477690073586"><ele>1438.3333333333333</ele><time>2026-03-28T15:31:31.987Z</time></trkpt><trkpt lat="46.128086079228964" lon="9.78479618435405"><ele>1434.0</ele><time>2026-03-28T15:31:32.986Z</time></trkpt><trkpt lat="46.12803024613695" lon="9.784872532255024"><ele>1429.6666666666667</ele><time>2026-03-28T15:31:33.986Z</time></trkpt><trkpt lat="46.127960130857936" lon="9.78492991058549"><ele>1425.3333333333335</ele><time>2026-03-28T15:31:34.986Z</time></trkpt><trkpt lat="46.127855250000806" lon="9.784989587615424"><ele>1421.0</ele><time>2026-03-28T15:31:36.986Z</time></trkpt><trkpt lat="46.12780786220965" lon="9.785058676482086"><ele>1421.0</ele><time>2026-03-28T15:31:37.987Z</time></trkpt><trkpt lat="46.127740776434145" lon="9.78517381385878"><ele>1421.0</ele><time>2026-03-28T15:31:39.987Z</time></trkpt><trkpt lat="46.12772146015387" lon="9.785265299921319"><ele>1421.0</ele><time>2026-03-28T15:31:40.987Z</time></trkpt><trkpt lat="46.127740986332064" lon="9.785389544289483"><ele>1421.0</ele><time>2026-03-28T15:31:42.988Z</time></trkpt><trkpt lat="46.127771010357755" lon="9.785494011996507"><ele>1421.0</ele><time>2026-03-28T15:31:44.987Z</time></trkpt><trkpt lat="46.12778592591629" lon="9.785597989672043"><ele>1421.0</ele><time>2026-03-28T15:31:47.987Z</time></trkpt><trkpt lat="46.127786132618986" lon="9.785710614800648"><ele>1427.8333333333335</ele><time>2026-03-28T15:31:51.987Z</time></trkpt><trkpt lat="46.127808510923494" lon="9.785805341231242"><ele>1434.6666666666667</ele><time>2026-03-28T15:31:53.987Z</time></trkpt><trkpt lat="46.12783715805937" lon="9.78593409447415"><ele>1441.5</ele><time>2026-03-28T15:31:55.987Z</time></trkpt><trkpt lat="46.12786461842095" lon="9.78603610332194"><ele>1448.3333333333333</ele><time>2026-03-28T15:31:57.987Z</time></trkpt><trkpt lat="46.12787160283505" lon="9.78617352763081"><ele>1455.1666666666665</ele><time>2026-03-28T15:32:01.987Z</time></trkpt><trkpt lat="46.12778289725754" lon="9.786204175763539"><ele>1462.0</ele><time>2026-03-28T15:32:03.987Z</time></trkpt><trkpt lat="46.12769801146245" lon="9.786263691107507"><ele>1467.5714285714284</ele><time>2026-03-28T15:32:05.987Z</time></trkpt><trkpt lat="46.127638404074126" lon="9.786328901505025"><ele>1473.142857142857</ele><time>2026-03-28T15:32:07.987Z</time></trkpt><trkpt lat="46.12758330881841" lon="9.786387185332472"><ele>1478.7142857142858</ele><time>2026-03-28T15:32:10.987Z</time></trkpt><trkpt lat="46.12752066739898" lon="9.786353605401834"><ele>1484.2857142857142</ele><time>2026-03-28T15:32:15.987Z</time></trkpt><trkpt lat="46.12746976686974" lon="9.78628349836613"><ele>1489.857142857143</ele><time>2026-03-28T15:32:21.987Z</time></trkpt><trkpt lat="46.127413842255876" lon="9.78624162119363"><ele>1495.4285714285713</ele><time>2026-03-28T15:32:25.987Z</time></trkpt><trkpt lat="46.127357210376005" lon="9.786170903786546"><ele>1501.0</ele><time>2026-03-28T15:32:27.987Z</time></trkpt><trkpt lat="46.127293049208355" lon="9.786219959098352"><ele>1501.0</ele><time>2026-03-28T15:32:39.987Z</time></trkpt><trkpt lat="46.12721137553952" lon="9.786233431494558"><ele>1501.0</ele><time>2026-03-28T15:32:41.987Z</time></trkpt><trkpt lat="46.1271167626113" lon="9.786239559485356"><ele>1501.0</ele><time>2026-03-28T15:32:44.987Z</time></trkpt><trkpt lat="46.12702732480532" lon="9.786285554714114"><ele>1501.0</ele><time>2026-03-28T15:32:47.987Z</time></trkpt><trkpt lat="46.12695821582262" lon="9.78634793008427"><ele>1501.0</ele><time>2026-03-28T15:32:50.987Z</time></trkpt><trkpt lat="46.126867096360385" lon="9.786444698177856"><ele>1501.0</ele><time>2026-03-28T15:32:52.987Z</time></trkpt><trkpt lat="46.12678357758633" lon="9.786464276509644"><ele>1501.0</ele><time>2026-03-28T15:32:55.987Z</time></trkpt><trkpt lat="46.12671567391314" lon="9.786470300754267"><ele>1501.0</ele><time>2026-03-28T15:33:10.986Z</time></trkpt><trkpt lat="46.12660153702062" lon="9.786512200691075"><ele>1501.0</ele><time>2026-03-28T15:33:12.986Z</time></trkpt><trkpt lat="46.12652151720496" lon="9.786492482877897"><ele>1501.0</ele><time>2026-03-28T15:33:14.986Z</time></trkpt><trkpt lat="46.126464308264495" lon="9.786437644912496"><ele>1501.0</ele><time>2026-03-28T15:33:18.986Z</time></trkpt><trkpt lat="46.12639402754518" lon="9.786443356679772"><ele>1497.8</ele><time>2026-03-28T15:33:20.986Z</time></trkpt><trkpt lat="46.12630003013873" lon="9.78650403625979"><ele>1494.6</ele><time>2026-03-28T15:33:22.986Z</time></trkpt><trkpt lat="46.12620652988605" lon="9.78655373875956"><ele>1491.4</ele><time>2026-03-28T15:33:23.986Z</time></trkpt><trkpt lat="46.126139631506526" lon="9.786618067661154"><ele>1488.2</ele><time>2026-03-28T15:33:24.986Z</time></trkpt><trkpt lat="46.126073806820514" lon="9.786692148807969"><ele>1485.0</ele><time>2026-03-28T15:33:25.986Z</time></trkpt><trkpt lat="46.12601693772281" lon="9.786801751067749"><ele>1489.5</ele><time>2026-03-28T15:33:26.986Z</time></trkpt><trkpt lat="46.12597352969011" lon="9.78689118926857"><ele>1494.0</ele><time>2026-03-28T15:33:27.986Z</time></trkpt><trkpt lat="46.12588187618228" lon="9.78695344878506"><ele>1498.5</ele><time>2026-03-28T15:33:29.986Z</time></trkpt><trkpt lat="46.125796402442276" lon="9.786951889259354"><ele>1503.0</ele><time>2026-03-28T15:33:31.986Z</time></trkpt><trkpt lat="46.12571166949065" lon="9.78699490714814"><ele>1507.5</ele><time>2026-03-28T15:33:33.986Z</time></trkpt><trkpt lat="46.1256593719418" lon="9.787046159077654"><ele>1512.0</ele><time>2026-03-28T15:33:34.986Z</time></trkpt><trkpt lat="46.12560086875667" lon="9.787088205299652"><ele>1512.0</ele><time>2026-03-28T15:33:35.986Z</time></trkpt><trkpt lat="46.12554136402172" lon="9.787132882543544"><ele>1512.0</ele><time>2026-03-28T15:33:39.986Z</time></trkpt><trkpt lat="46.12545708233358" lon="9.787178514562354"><ele>1512.0</ele><time>2026-03-28T15:33:42.986Z</time></trkpt><trkpt lat="46.12536666680208" lon="9.787170005676378"><ele>1512.0</ele><time>2026-03-28T15:33:45.987Z</time></trkpt><trkpt lat="46.125284547460325" lon="9.78718728198311"><ele>1512.0</ele><time>2026-03-28T15:33:47.986Z</time></trkpt><trkpt lat="46.125198437869976" lon="9.787227140562822"><ele>1512.0</ele><time>2026-03-28T15:33:49.987Z</time></trkpt><trkpt lat="46.12512001714177" lon="9.787245951828705"><ele>1512.0</ele><time>2026-03-28T15:33:51.987Z</time></trkpt><trkpt lat="46.12505782104083" lon="9.787343635646428"><ele>1512.0</ele><time>2026-03-28T15:33:55.986Z</time></trkpt><trkpt lat="46.12498644223641" lon="9.787387126211822"><ele>1512.0</ele><time>2026-03-28T15:33:57.986Z</time></trkpt><trkpt lat="46.12491729503809" lon="9.787470342204237"><ele>1512.0</ele><time>2026-03-28T15:33:59.986Z</time></trkpt><trkpt lat="46.12480759150381" lon="9.78743580592166"><ele>1512.0</ele><time>2026-03-28T15:35:17.986Z</time></trkpt><trkpt lat="46.1248860597165" lon="9.787486924199698"><ele>1512.0</ele><time>2026-03-28T15:35:31.985Z</time></trkpt><trkpt lat="46.12496147564314" lon="9.787493254548279"><ele>1512.0</ele><time>2026-03-28T15:35:34.985Z</time></trkpt><trkpt lat="46.12504155699483" lon="9.787481504990609"><ele>1512.0</ele><time>2026-03-28T15:35:36.985Z</time></trkpt><trkpt lat="46.12507829335626" lon="9.787398817503334"><ele>1512.0</ele><time>2026-03-28T15:35:39.985Z</time></trkpt><trkpt lat="46.12514699723823" lon="9.787384586413847"><ele>1512.0</ele><time>2026-03-28T15:35:44.985Z</time></trkpt><trkpt lat="46.12524022519526" lon="9.787319164391956"><ele>1512.0</ele><time>2026-03-28T15:35:48.985Z</time></trkpt><trkpt lat="46.12531543925591" lon="9.787286111669655"><ele>1512.0</ele><time>2026-03-28T15:35:51.986Z</time></trkpt><trkpt lat="46.12538178919323" lon="9.787233209818064"><ele>1512.0</ele><time>2026-03-28T15:35:54.987Z</time></trkpt><trkpt lat="46.125445646300435" lon="9.787178948247622"><ele>1512.0</ele><time>2026-03-28T15:35:57.986Z</time></trkpt><trkpt lat="46.12552636706345" lon="9.787130247730433"><ele>1512.0</ele><time>2026-03-28T15:35:59.986Z</time></trkpt><trkpt lat="46.12557730454831" lon="9.787067806701623"><ele>1512.0</ele><time>2026-03-28T15:36:01.986Z</time></trkpt><trkpt lat="46.12561771851271" lon="9.786989277950402"><ele>1512.0</ele><time>2026-03-28T15:36:04.986Z</time></trkpt><trkpt lat="46.12568198101019" lon="9.786917928795372"><ele>1515.5</ele><time>2026-03-28T15:36:07.986Z</time></trkpt><trkpt lat="46.125755649271504" lon="9.786893219100687"><ele>1519.0</ele><time>2026-03-28T15:36:09.986Z</time></trkpt><trkpt lat="46.12584617434964" lon="9.786849316960302"><ele>1522.5</ele><time>2026-03-28T15:36:12.986Z</time></trkpt><trkpt lat="46.12592286776862" lon="9.786817663205941"><ele>1526.0</ele><time>2026-03-28T15:36:14.986Z</time></trkpt><trkpt lat="46.12599505205174" lon="9.786812797512288"><ele>1529.5</ele><time>2026-03-28T15:36:16.986Z</time></trkpt><trkpt lat="46.12605391876891" lon="9.786770537327563"><ele>1533.0</ele><time>2026-03-28T15:36:19.986Z</time></trkpt><trkpt lat="46.12609060876894" lon="9.78669570054025"><ele>1525.0</ele><time>2026-03-28T15:36:20.986Z</time></trkpt><trkpt lat="46.126155988418404" lon="9.786532021080768"><ele>1517.0</ele><time>2026-03-28T15:36:22.986Z</time></trkpt><trkpt lat="46.12625165735499" lon="9.78643677117524"><ele>1509.0</ele><time>2026-03-28T15:36:24.986Z</time></trkpt><trkpt lat="46.126316880652" lon="9.78641759126328"><ele>1501.0</ele><time>2026-03-28T15:36:25.986Z</time></trkpt><trkpt lat="46.126380020534356" lon="9.786391037231835"><ele>1493.0</ele><time>2026-03-28T15:36:26.986Z</time></trkpt><trkpt lat="46.12644806063331" lon="9.786413029176913"><ele>1485.0</ele><time>2026-03-28T15:36:28.986Z</time></trkpt><trkpt lat="46.1265450670927" lon="9.786413198867152"><ele>1487.6666666666667</ele><time>2026-03-28T15:36:52.985Z</time></trkpt><trkpt lat="46.126614313163" lon="9.786427593960621"><ele>1490.3333333333333</ele><time>2026-03-28T15:36:55.985Z</time></trkpt><trkpt lat="46.12670370572693" lon="9.786421587753"><ele>1493.0</ele><time>2026-03-28T15:36:59.985Z</time></trkpt><trkpt lat="46.126812011700395" lon="9.786373094151115"><ele>1495.6666666666665</ele><time>2026-03-28T15:37:01.985Z</time></trkpt><trkpt lat="46.12688367151614" lon="9.786347447114675"><ele>1498.3333333333333</ele><time>2026-03-28T15:37:02.985Z</time></trkpt><trkpt lat="46.12694793295899" lon="9.786330559266258"><ele>1501.0</ele><time>2026-03-28T15:37:03.985Z</time></trkpt><trkpt lat="46.127029753728756" lon="9.786292745855624"><ele>1501.0</ele><time>2026-03-28T15:37:06.985Z</time></trkpt><trkpt lat="46.127159467305496" lon="9.786256141420969"><ele>1501.0</ele><time>2026-03-28T15:37:08.985Z</time></trkpt><trkpt lat="46.12723072629895" lon="9.786238115449402"><ele>1501.0</ele><time>2026-03-28T15:37:09.985Z</time></trkpt><trkpt lat="46.127339628463325" lon="9.786238097470351"><ele>1501.0</ele><time>2026-03-28T15:37:11.985Z</time></trkpt><trkpt lat="46.12742752316294" lon="9.786307217368023"><ele>1501.0</ele><time>2026-03-28T15:37:13.985Z</time></trkpt><trkpt lat="46.12747733685125" lon="9.786384095765493"><ele>1502.6666666666665</ele><time>2026-03-28T15:37:15.985Z</time></trkpt><trkpt lat="46.12753969613781" lon="9.786407290749793"><ele>1504.3333333333333</ele><time>2026-03-28T15:37:20.985Z</time></trkpt><trkpt lat="46.127616048940084" lon="9.786384603579215"><ele>1506.0</ele><time>2026-03-28T15:37:21.985Z</time></trkpt><trkpt lat="46.12767302826626" lon="9.78627417152326"><ele>1507.6666666666667</ele><time>2026-03-28T15:37:22.985Z</time></trkpt><trkpt lat="46.1277745014249" lon="9.786167825771052"><ele>1509.3333333333335</ele><time>2026-03-28T15:37:24.985Z</time></trkpt><trkpt lat="46.127815340064366" lon="9.786095778213834"><ele>1511.0</ele><time>2026-03-28T15:37:25.985Z</time></trkpt><trkpt lat="46.127791160210364" lon="9.785893467599863"><ele>1501.1999999999998</ele><time>2026-03-28T15:37:27.985Z</time></trkpt><trkpt lat="46.12773688179048" lon="9.785703103759758"><ele>1491.3999999999999</ele><time>2026-03-28T15:37:28.985Z</time></trkpt><trkpt lat="46.12770840567829" lon="9.785602634050688"><ele>1481.6</ele><time>2026-03-28T15:37:29.985Z</time></trkpt><trkpt lat="46.12767363291602" lon="9.785434831666494"><ele>1471.8</ele><time>2026-03-28T15:37:31.985Z</time></trkpt><trkpt lat="46.12764607545961" lon="9.785317380770335"><ele>1462.0</ele><time>2026-03-28T15:37:33.985Z</time></trkpt><trkpt lat="46.127682918418344" lon="9.785195719806222"><ele>1453.8</ele><time>2026-03-28T15:37:35.985Z</time></trkpt><trkpt lat="46.12776606650706" lon="9.78508751392143"><ele>1445.6</ele><time>2026-03-28T15:37:37.985Z</time></trkpt><trkpt lat="46.127861324154715" lon="9.785031863764862"><ele>1437.3999999999999</ele><time>2026-03-28T15:37:39.985Z</time></trkpt><trkpt lat="46.12793586481314" lon="9.784992186235565"><ele>1429.1999999999998</ele><time>2026-03-28T15:37:41.985Z</time></trkpt><trkpt lat="46.12801830528688" lon="9.784956107000227"><ele>1421.0</ele><time>2026-03-28T15:37:44.985Z</time></trkpt><trkpt lat="46.12809102566748" lon="9.784861448011032"><ele>1421.0</ele><time>2026-03-28T15:37:46.985Z</time></trkpt><trkpt lat="46.128160856865804" lon="9.78482377160407"><ele>1421.0</ele><time>2026-03-28T15:37:48.985Z</time></trkpt><trkpt lat="46.12825359879436" lon="9.784822761031243"><ele>1421.0</ele><time>2026-03-28T15:37:50.985Z</time></trkpt><trkpt lat="46.12836396953076" lon="9.784809509109246"><ele>1421.0</ele><time>2026-03-28T15:37:52.985Z</time></trkpt><trkpt lat="46.12844489620335" lon="9.784862275974767"><ele>1421.0</ele><time>2026-03-28T15:37:54.985Z</time></trkpt><trkpt lat="46.12853092597715" lon="9.78488668002159"><ele>1425.3333333333335</ele><time>2026-03-28T15:37:57.986Z</time></trkpt><trkpt lat="46.12859558783165" lon="9.784902055925174"><ele>1429.6666666666667</ele><time>2026-03-28T15:38:00.986Z</time></trkpt><trkpt lat="46.12868814979189" lon="9.784899685909847"><ele>1434.0</ele><time>2026-03-28T15:38:04.986Z</time></trkpt><trkpt lat="46.12876470033086" lon="9.784893049900841"><ele>1438.3333333333333</ele><time>2026-03-28T15:38:06.986Z</time></trkpt><trkpt lat="46.12886210143366" lon="9.784877289893542"><ele>1442.6666666666665</ele><time>2026-03-28T15:38:09.986Z</time></trkpt><trkpt lat="46.128968955743446" lon="9.784829201436505"><ele>1447.0</ele><time>2026-03-28T15:38:11.986Z</time></trkpt><trkpt lat="46.12904532042542" lon="9.784742753970795"><ele>1447.0</ele><time>2026-03-28T15:38:13.986Z</time></trkpt><trkpt lat="46.12903467041922" lon="9.784588337888618"><ele>1447.0</ele><time>2026-03-28T15:38:15.986Z</time></trkpt><trkpt lat="46.1290115587392" lon="9.78446107763415"><ele>1447.0</ele><time>2026-03-28T15:38:16.986Z</time></trkpt><trkpt lat="46.12901912435185" lon="9.78428875062968"><ele>1447.0</ele><time>2026-03-28T15:38:18.985Z</time></trkpt><trkpt lat="46.129032296453985" lon="9.78419623198283"><ele>1447.0</ele><time>2026-03-28T15:38:19.985Z</time></trkpt><trkpt lat="46.129105449190476" lon="9.78406600443837"><ele>1443.6666666666665</ele><time>2026-03-28T15:38:21.985Z</time></trkpt><trkpt lat="46.12918518630558" lon="9.783916127120476"><ele>1440.3333333333333</ele><time>2026-03-28T15:38:23.985Z</time></trkpt><trkpt lat="46.12924886814072" lon="9.783786073938753"><ele>1437.0</ele><time>2026-03-28T15:38:25.985Z</time></trkpt><trkpt lat="46.129322605679555" lon="9.783738979038748"><ele>1433.6666666666667</ele><time>2026-03-28T15:38:26.985Z</time></trkpt><trkpt lat="46.12938043068347" lon="9.783700886255849"><ele>1430.3333333333335</ele><time>2026-03-28T15:38:27.985Z</time></trkpt><trkpt lat="46.12943362385477" lon="9.783651550023682"><ele>1427.0</ele><time>2026-03-28T15:38:28.985Z</time></trkpt><trkpt lat="46.12953924732428" lon="9.783583051075293"><ele>1427.0</ele><time>2026-03-28T15:38:30.985Z</time></trkpt><trkpt lat="46.129597132608005" lon="9.783541127859307"><ele>1427.0</ele><time>2026-03-28T15:38:31.985Z</time></trkpt><trkpt lat="46.1297019110528" lon="9.7834733662817"><ele>1427.0</ele><time>2026-03-28T15:38:33.985Z</time></trkpt><trkpt lat="46.129761649421525" lon="9.783423035800915"><ele>1427.0</ele><time>2026-03-28T15:38:34.985Z</time></trkpt><trkpt lat="46.12988739296945" lon="9.783335985035489"><ele>1427.0</ele><time>2026-03-28T15:38:36.985Z</time></trkpt><trkpt lat="46.12996588850261" lon="9.783304959352211"><ele>1424.0</ele><time>2026-03-28T15:38:37.985Z</time></trkpt><trkpt lat="46.13004993733204" lon="9.783302951620914"><ele>1421.0</ele><time>2026-03-28T15:38:38.985Z</time></trkpt><trkpt lat="46.13011637835979" lon="9.78328755700431"><ele>1418.0</ele><time>2026-03-28T15:38:39.985Z</time></trkpt><trkpt lat="46.13016471040155" lon="9.783222147422485"><ele>1415.0</ele><time>2026-03-28T15:38:40.985Z</time></trkpt><trkpt lat="46.1302713347345" lon="9.78313860770751"><ele>1412.0</ele><time>2026-03-28T15:38:42.985Z</time></trkpt><trkpt lat="46.13031072324286" lon="9.78305718108521"><ele>1409.0</ele><time>2026-03-28T15:38:45.985Z</time></trkpt><trkpt lat="46.130400294314164" lon="9.783070949468186"><ele>1409.0</ele><time>2026-03-28T15:38:49.985Z</time></trkpt><trkpt lat="46.130484000398525" lon="9.783076570787358"><ele>1409.0</ele><time>2026-03-28T15:38:52.985Z</time></trkpt><trkpt lat="46.13054826347726" lon="9.783090453752617"><ele>1409.0</ele><time>2026-03-28T15:38:54.985Z</time></trkpt><trkpt lat="46.13061607250039" lon="9.783087874407194"><ele>1409.0</ele><time>2026-03-28T15:38:56.985Z</time></trkpt><trkpt lat="46.1306888073669" lon="9.78309277088479"><ele>1409.0</ele><time>2026-03-28T15:38:58.985Z</time></trkpt><trkpt lat="46.13076596939512" lon="9.783092360007615"><ele>1409.0</ele><time>2026-03-28T15:39:00.985Z</time></trkpt><trkpt lat="46.13083885826452" lon="9.783105302044413"><ele>1409.0</ele><time>2026-03-28T15:39:02.985Z</time></trkpt><trkpt lat="46.13091874041378" lon="9.783109635946653"><ele>1410.8333333333335</ele><time>2026-03-28T15:39:04.985Z</time></trkpt><trkpt lat="46.13102422402248" lon="9.783102068079954"><ele>1412.6666666666667</ele><time>2026-03-28T15:39:06.985Z</time></trkpt><trkpt lat="46.131123850279536" lon="9.783104370154607"><ele>1414.5</ele><time>2026-03-28T15:39:08.985Z</time></trkpt><trkpt lat="46.131208447626456" lon="9.783116308846594"><ele>1416.3333333333333</ele><time>2026-03-28T15:39:10.985Z</time></trkpt><trkpt lat="46.131280546295" lon="9.783134193349069"><ele>1418.1666666666665</ele><time>2026-03-28T15:39:12.985Z</time></trkpt><trkpt lat="46.13135927729989" lon="9.783148339894112"><ele>1420.0</ele><time>2026-03-28T15:39:14.985Z</time></trkpt><trkpt lat="46.13142310451613" lon="9.783171305150868"><ele>1420.0</ele><time>2026-03-28T15:39:15.985Z</time></trkpt><trkpt lat="46.13148890077271" lon="9.783183826155245"><ele>1420.0</ele><time>2026-03-28T15:39:16.985Z</time></trkpt><trkpt lat="46.13160003341" lon="9.783201878713559"><ele>1420.0</ele><time>2026-03-28T15:39:18.985Z</time></trkpt><trkpt lat="46.13168291782282" lon="9.783213179754846"><ele>1420.0</ele><time>2026-03-28T15:39:19.985Z</time></trkpt><trkpt lat="46.13174783168836" lon="9.783232625747754"><ele>1420.0</ele><time>2026-03-28T15:39:20.985Z</time></trkpt><trkpt lat="46.13181102111363" lon="9.783266716481965"><ele>1420.0</ele><time>2026-03-28T15:39:21.985Z</time></trkpt><trkpt lat="46.13187856220047" lon="9.783299965231496"><ele>1418.0</ele><time>2026-03-28T15:39:22.985Z</time></trkpt><trkpt lat="46.13197355497348" lon="9.783314986858818"><ele>1416.0</ele><time>2026-03-28T15:39:24.985Z</time></trkpt><trkpt lat="46.13204364035868" lon="9.783352129568383"><ele>1414.0</ele><time>2026-03-28T15:39:26.985Z</time></trkpt><trkpt lat="46.132122757296955" lon="9.78339099198244"><ele>1412.0</ele><time>2026-03-28T15:39:28.985Z</time></trkpt><trkpt lat="46.13220620840678" lon="9.783397488317398"><ele>1410.0</ele><time>2026-03-28T15:39:29.985Z</time></trkpt><trkpt lat="46.132298149266134" lon="9.783395699388103"><ele>1408.0</ele><time>2026-03-28T15:39:30.985Z</time></trkpt><trkpt lat="46.13236881276876" lon="9.783385316757698"><ele>1404.6000000000001</ele><time>2026-03-28T15:39:31.985Z</time></trkpt><trkpt lat="46.132442364250416" lon="9.783374841724712"><ele>1401.2</ele><time>2026-03-28T15:39:32.985Z</time></trkpt><trkpt lat="46.132560550877365" lon="9.783379738880168"><ele>1397.8</ele><time>2026-03-28T15:39:34.985Z</time></trkpt><trkpt lat="46.13262886160995" lon="9.783347530424589"><ele>1394.4</ele><time>2026-03-28T15:39:35.985Z</time></trkpt><trkpt lat="46.13272769339707" lon="9.783324111373645"><ele>1391.0</ele><time>2026-03-28T15:39:37.985Z</time></trkpt><trkpt lat="46.13282731986933" lon="9.783330344440175"><ele>1391.0</ele><time>2026-03-28T15:39:39.985Z</time></trkpt><trkpt lat="46.132935108003785" lon="9.783338695627021"><ele>1391.0</ele><time>2026-03-28T15:39:41.985Z</time></trkpt><trkpt lat="46.13302463847536" lon="9.783253709961592"><ele>1391.0</ele><time>2026-03-28T15:39:43.985Z</time></trkpt><trkpt lat="46.13308956583368" lon="9.783268176991243"><ele>1391.0</ele><time>2026-03-28T15:39:45.985Z</time></trkpt><trkpt lat="46.133144784440894" lon="9.783341305511557"><ele>1391.0</ele><time>2026-03-28T15:39:47.985Z</time></trkpt><trkpt lat="46.133220772016344" lon="9.783374655727322"><ele>1391.0</ele><time>2026-03-28T15:39:49.984Z</time></trkpt><trkpt lat="46.133290421472985" lon="9.78338348243567"><ele>1387.8</ele><time>2026-03-28T15:39:50.984Z</time></trkpt><trkpt lat="46.13341130746552" lon="9.783341148461057"><ele>1384.6</ele><time>2026-03-28T15:39:52.984Z</time></trkpt><trkpt lat="46.13353713043484" lon="9.783303166707585"><ele>1381.4</ele><time>2026-03-28T15:39:54.984Z</time></trkpt><trkpt lat="46.13363199453047" lon="9.783261422508739"><ele>1378.2</ele><time>2026-03-28T15:39:56.984Z</time></trkpt><trkpt lat="46.13371175447235" lon="9.783260333357218"><ele>1375.0</ele><time>2026-03-28T15:39:58.984Z</time></trkpt><trkpt lat="46.13380780433144" lon="9.78325804913071"><ele>1374.9999999999998</ele><time>2026-03-28T15:40:00.986Z</time></trkpt><trkpt lat="46.13387815730965" lon="9.78325839995166"><ele>1375.0</ele><time>2026-03-28T15:40:02.985Z</time></trkpt><trkpt lat="46.13394183186674" lon="9.783219222770354"><ele>1375.0</ele><time>2026-03-28T15:40:04.985Z</time></trkpt><trkpt lat="46.13403098751107" lon="9.783229417174526"><ele>1375.0</ele><time>2026-03-28T15:40:06.986Z</time></trkpt><trkpt lat="46.13409589027617" lon="9.783224513588797"><ele>1375.0</ele><time>2026-03-28T15:40:08.985Z</time></trkpt><trkpt lat="46.13417464365946" lon="9.783196241338567"><ele>1374.9999999999998</ele><time>2026-03-28T15:40:10.985Z</time></trkpt><trkpt lat="46.13423922621481" lon="9.783143538108824"><ele>1375.0</ele><time>2026-03-28T15:42:04.983Z</time></trkpt><trkpt lat="46.13432367938515" lon="9.783163255222268"><ele>1371.6666666666665</ele><time>2026-03-28T15:42:10.985Z</time></trkpt><trkpt lat="46.134405517147314" lon="9.783144108286834"><ele>1368.3333333333333</ele><time>2026-03-28T15:42:12.985Z</time></trkpt><trkpt lat="46.134487385166615" lon="9.783134850881122"><ele>1365.0</ele><time>2026-03-28T15:42:14.985Z</time></trkpt><trkpt lat="46.13457171849671" lon="9.783180658758928"><ele>1361.6666666666667</ele><time>2026-03-28T15:42:17.985Z</time></trkpt><trkpt lat="46.134637695315554" lon="9.783263153378533"><ele>1358.3333333333335</ele><time>2026-03-28T15:42:19.985Z</time></trkpt><trkpt lat="46.13469857265316" lon="9.783328795765252"><ele>1355.0</ele><time>2026-03-28T15:42:21.985Z</time></trkpt><trkpt lat="46.13471393452375" lon="9.783447034115186"><ele>1354.4285714285716</ele><time>2026-03-28T15:42:24.985Z</time></trkpt><trkpt lat="46.1347346654331" lon="9.783544494345522"><ele>1353.857142857143</ele><time>2026-03-28T15:42:27.985Z</time></trkpt><trkpt lat="46.13477955320467" lon="9.783648809203534"><ele>1353.2857142857142</ele><time>2026-03-28T15:42:29.985Z</time></trkpt><trkpt lat="46.13484364471936" lon="9.783718710861871"><ele>1352.7142857142858</ele><time>2026-03-28T15:42:31.985Z</time></trkpt><trkpt lat="46.134889809973785" lon="9.783805548532744"><ele>1352.142857142857</ele><time>2026-03-28T15:42:33.985Z</time></trkpt><trkpt lat="46.134909255618325" lon="9.783899949694298"><ele>1351.5714285714287</ele><time>2026-03-28T15:42:35.985Z</time></trkpt><trkpt lat="46.13493923219218" lon="9.783983615798258"><ele>1351.0</ele><time>2026-03-28T15:42:37.985Z</time></trkpt><trkpt lat="46.134977471360884" lon="9.784103605279634"><ele>1351.0</ele><time>2026-03-28T15:42:39.985Z</time></trkpt><trkpt lat="46.13502907873849" lon="9.78420914139615"><ele>1351.0</ele><time>2026-03-28T15:42:41.985Z</time></trkpt><trkpt lat="46.135092454496146" lon="9.78428002710255"><ele>1351.0</ele><time>2026-03-28T15:42:43.985Z</time></trkpt><trkpt lat="46.1351610882163" lon="9.784315707455951"><ele>1351.0</ele><time>2026-03-28T15:42:44.985Z</time></trkpt><trkpt lat="46.13525527909939" lon="9.784374280523613"><ele>1351.0</ele><time>2026-03-28T15:42:46.985Z</time></trkpt><trkpt lat="46.13523717198934" lon="9.784485324969907"><ele>1351.0</ele><time>2026-03-28T15:42:49.985Z</time></trkpt><trkpt lat="46.135253553903866" lon="9.78459648378624"><ele>1351.8333333333333</ele><time>2026-03-28T15:42:51.985Z</time></trkpt><trkpt lat="46.13523990956349" lon="9.78472151696376"><ele>1352.6666666666665</ele><time>2026-03-28T15:42:54.984Z</time></trkpt><trkpt lat="46.13524672226175" lon="9.784855760237063"><ele>1353.5</ele><time>2026-03-28T15:42:57.984Z</time></trkpt><trkpt lat="46.13521634382798" lon="9.784998982270855"><ele>1354.3333333333333</ele><time>2026-03-28T15:43:00.984Z</time></trkpt><trkpt lat="46.135215065187786" lon="9.785102363940114"><ele>1355.1666666666667</ele><time>2026-03-28T15:43:02.984Z</time></trkpt><trkpt lat="46.135199682676244" lon="9.78519854162728"><ele>1356.0</ele><time>2026-03-28T15:43:05.984Z</time></trkpt><trkpt lat="46.13518190081423" lon="9.78529821164023"><ele>1352.1666666666667</ele><time>2026-03-28T15:43:07.984Z</time></trkpt><trkpt lat="46.13514560500364" lon="9.785380047730012"><ele>1348.3333333333333</ele><time>2026-03-28T15:43:09.984Z</time></trkpt><trkpt lat="46.135146401372936" lon="9.785475765779587"><ele>1344.5</ele><time>2026-03-28T15:43:11.984Z</time></trkpt><trkpt lat="46.135112600880625" lon="9.78555861488139"><ele>1340.6666666666665</ele><time>2026-03-28T15:43:13.984Z</time></trkpt><trkpt lat="46.13509560710802" lon="9.785734720041333"><ele>1336.8333333333333</ele><time>2026-03-28T15:43:16.984Z</time></trkpt><trkpt lat="46.135081135390976" lon="9.785870814122875"><ele>1333.0</ele><time>2026-03-28T15:43:18.984Z</time></trkpt><trkpt lat="46.135024597081156" lon="9.785995322015653"><ele>1327.5</ele><time>2026-03-28T15:43:20.984Z</time></trkpt><trkpt lat="46.134981455346804" lon="9.786065812046305"><ele>1322.0</ele><time>2026-03-28T15:43:22.984Z</time></trkpt><trkpt lat="46.134958349961984" lon="9.786150978024153"><ele>1316.5</ele><time>2026-03-28T15:43:24.984Z</time></trkpt><trkpt lat="46.13494187449156" lon="9.786270587137766"><ele>1311.0</ele><time>2026-03-28T15:43:26.984Z</time></trkpt><trkpt lat="46.134956350421824" lon="9.786376998298852"><ele>1305.5</ele><time>2026-03-28T15:43:34.984Z</time></trkpt><trkpt lat="46.134921306700775" lon="9.786504170887799"><ele>1300.0</ele><time>2026-03-28T15:43:37.984Z</time></trkpt><trkpt lat="46.134862925238565" lon="9.786607422424137"><ele>1304.2</ele><time>2026-03-28T15:43:39.984Z</time></trkpt><trkpt lat="46.134824450880565" lon="9.78674996082494"><ele>1308.4</ele><time>2026-03-28T15:43:41.984Z</time></trkpt><trkpt lat="46.13477464620274" lon="9.786893784986642"><ele>1312.6</ele><time>2026-03-28T15:43:43.984Z</time></trkpt><trkpt lat="46.13472259673531" lon="9.787005564663133"><ele>1316.8</ele><time>2026-03-28T15:43:45.984Z</time></trkpt><trkpt lat="46.1346731765211" lon="9.78708078257434"><ele>1321.0</ele><time>2026-03-28T15:43:47.984Z</time></trkpt><trkpt lat="46.134582687046645" lon="9.787136644569486"><ele>1321.0</ele><time>2026-03-28T15:43:50.984Z</time></trkpt><trkpt lat="46.13448801163137" lon="9.787200134609044"><ele>1321.0</ele><time>2026-03-28T15:43:52.984Z</time></trkpt><trkpt lat="46.134424808954876" lon="9.78731130019943"><ele>1321.0</ele><time>2026-03-28T15:43:54.984Z</time></trkpt><trkpt lat="46.13433872535873" lon="9.787420161955556"><ele>1321.0</ele><time>2026-03-28T15:43:56.984Z</time></trkpt><trkpt lat="46.13429016460864" lon="9.787530139007016"><ele>1321.0</ele><time>2026-03-28T15:43:58.984Z</time></trkpt><trkpt lat="46.13423275503289" lon="9.78762450613518"><ele>1315.0</ele><time>2026-03-28T15:44:00.984Z</time></trkpt><trkpt lat="46.13419260559958" lon="9.787718343521835"><ele>1309.0</ele><time>2026-03-28T15:44:02.984Z</time></trkpt><trkpt lat="46.13416049624613" lon="9.787798002601182"><ele>1303.0</ele><time>2026-03-28T15:44:04.984Z</time></trkpt><trkpt lat="46.13413370318933" lon="9.787894316485925"><ele>1297.0</ele><time>2026-03-28T15:44:07.984Z</time></trkpt><trkpt lat="46.1341166713407" lon="9.787985303685515"><ele>1291.0</ele><time>2026-03-28T15:44:09.984Z</time></trkpt><trkpt lat="46.13407923248533" lon="9.78810431323832"><ele>1285.0</ele><time>2026-03-28T15:44:11.984Z</time></trkpt><trkpt lat="46.13407023307098" lon="9.788223994536246"><ele>1294.1666666666665</ele><time>2026-03-28T15:44:13.984Z</time></trkpt><trkpt lat="46.13404632753175" lon="9.78833005424645"><ele>1303.3333333333333</ele><time>2026-03-28T15:44:15.985Z</time></trkpt><trkpt lat="46.13400203033023" lon="9.788414869326346"><ele>1312.5</ele><time>2026-03-28T15:44:17.984Z</time></trkpt><trkpt lat="46.13401577269262" lon="9.788554918144825"><ele>1321.6666666666667</ele><time>2026-03-28T15:44:20.985Z</time></trkpt><trkpt lat="46.13404574947528" lon="9.788691308408286"><ele>1330.8333333333335</ele><time>2026-03-28T15:44:22.985Z</time></trkpt><trkpt lat="46.13404293487128" lon="9.788836930679265"><ele>1340.0</ele><time>2026-03-28T15:44:25.985Z</time></trkpt><trkpt lat="46.134022986552516" lon="9.78893907011013"><ele>1340.0</ele><time>2026-03-28T15:44:27.985Z</time></trkpt><trkpt lat="46.133986279705" lon="9.789054991000153"><ele>1340.0</ele><time>2026-03-28T15:44:29.985Z</time></trkpt><trkpt lat="46.13399652823156" lon="9.789177920780485"><ele>1340.0</ele><time>2026-03-28T15:44:31.985Z</time></trkpt><trkpt lat="46.13397206985991" lon="9.789303728825427"><ele>1340.0</ele><time>2026-03-28T15:44:33.985Z</time></trkpt><trkpt lat="46.134005050409336" lon="9.789426682889829"><ele>1340.0</ele><time>2026-03-28T15:44:35.985Z</time></trkpt><trkpt lat="46.13408719511243" lon="9.789507421831416"><ele>1329.6666666666667</ele><time>2026-03-28T15:44:37.985Z</time></trkpt><trkpt lat="46.13415300507038" lon="9.789579047208212"><ele>1319.3333333333335</ele><time>2026-03-28T15:44:39.984Z</time></trkpt><trkpt lat="46.13421040811828" lon="9.789630216231432"><ele>1309.0</ele><time>2026-03-28T15:44:41.984Z</time></trkpt><trkpt lat="46.134275853158506" lon="9.789667822386301"><ele>1298.6666666666667</ele><time>2026-03-28T15:44:43.984Z</time></trkpt><trkpt lat="46.13434895629378" lon="9.789724499955057"><ele>1288.3333333333333</ele><time>2026-03-28T15:44:45.984Z</time></trkpt><trkpt lat="46.13440266796892" lon="9.789834500914138"><ele>1278.0</ele><time>2026-03-28T15:44:47.984Z</time></trkpt><trkpt lat="46.134480734365205" lon="9.789956876931802"><ele>1278.0</ele><time>2026-03-28T15:44:49.984Z</time></trkpt><trkpt lat="46.13456303887615" lon="9.79006313972872"><ele>1278.0</ele><time>2026-03-28T15:44:51.984Z</time></trkpt><trkpt lat="46.13459811707268" lon="9.790163638745547"><ele>1278.0</ele><time>2026-03-28T15:44:53.984Z</time></trkpt><trkpt lat="46.13464798165679" lon="9.790316035455017"><ele>1278.0</ele><time>2026-03-28T15:44:55.984Z</time></trkpt><trkpt lat="46.13467420340015" lon="9.79041466819951"><ele>1278.0</ele><time>2026-03-28T15:44:56.984Z</time></trkpt><trkpt lat="46.13470216433542" lon="9.790515918494867"><ele>1277.4</ele><time>2026-03-28T15:44:57.984Z</time></trkpt><trkpt lat="46.13472841413374" lon="9.790605698679935"><ele>1276.8</ele><time>2026-03-28T15:44:58.984Z</time></trkpt><trkpt lat="46.13478232894372" lon="9.790783874311751"><ele>1276.2</ele><time>2026-03-28T15:45:00.984Z</time></trkpt><trkpt lat="46.13482915875294" lon="9.790949937635126"><ele>1275.6</ele><time>2026-03-28T15:45:02.984Z</time></trkpt><trkpt lat="46.134826532073824" lon="9.791103991378296"><ele>1275.0</ele><time>2026-03-28T15:45:04.984Z</time></trkpt><trkpt lat="46.13480220785115" lon="9.791230869898147"><ele>1271.8</ele><time>2026-03-28T15:45:06.984Z</time></trkpt><trkpt lat="46.134805394747005" lon="9.791379941957144"><ele>1268.6</ele><time>2026-03-28T15:45:08.984Z</time></trkpt><trkpt lat="46.134825294872044" lon="9.791515510765754"><ele>1265.4</ele><time>2026-03-28T15:45:10.984Z</time></trkpt><trkpt lat="46.13484323509907" lon="9.79164497775347"><ele>1262.2</ele><time>2026-03-28T15:45:12.984Z</time></trkpt><trkpt lat="46.13486515358462" lon="9.791818060644788"><ele>1259.0</ele><time>2026-03-28T15:45:14.984Z</time></trkpt><trkpt lat="46.13490355344454" lon="9.79200264032749"><ele>1257.6000000000001</ele><time>2026-03-28T15:45:16.984Z</time></trkpt><trkpt lat="46.134920024777394" lon="9.792149075183708"><ele>1256.2</ele><time>2026-03-28T15:45:18.984Z</time></trkpt><trkpt lat="46.13491702364548" lon="9.79227918907675"><ele>1254.8000000000002</ele><time>2026-03-28T15:45:20.984Z</time></trkpt><trkpt lat="46.13488956899793" lon="9.792367101307926"><ele>1253.4</ele><time>2026-03-28T15:45:22.984Z</time></trkpt><trkpt lat="46.134860254891066" lon="9.79246774231357"><ele>1252.0</ele><time>2026-03-28T15:45:24.984Z</time></trkpt><trkpt lat="46.13480543077993" lon="9.792614216025987"><ele>1250.6</ele><time>2026-03-28T15:45:26.984Z</time></trkpt><trkpt lat="46.134744183546246" lon="9.792750530406728"><ele>1249.2</ele><time>2026-03-28T15:45:28.984Z</time></trkpt><trkpt lat="46.13471736934897" lon="9.792834173648785"><ele>1247.8</ele><time>2026-03-28T15:45:29.984Z</time></trkpt><trkpt lat="46.13471358491317" lon="9.793006760616775"><ele>1246.4</ele><time>2026-03-28T15:45:31.984Z</time></trkpt><trkpt lat="46.13472175471045" lon="9.793114559019662"><ele>1245.0</ele><time>2026-03-28T15:45:32.984Z</time></trkpt><trkpt lat="46.13472667184484" lon="9.793230752214686"><ele>1245.0</ele><time>2026-03-28T15:45:33.984Z</time></trkpt><trkpt lat="46.1347167544781" lon="9.793341680634049"><ele>1245.0</ele><time>2026-03-28T15:45:34.984Z</time></trkpt><trkpt lat="46.13471216151049" lon="9.793440671193848"><ele>1245.0</ele><time>2026-03-28T15:45:35.984Z</time></trkpt><trkpt lat="46.13467837644829" lon="9.793599802458365"><ele>1245.0</ele><time>2026-03-28T15:45:37.984Z</time></trkpt><trkpt lat="46.13465111027288" lon="9.793751132965216"><ele>1245.0</ele><time>2026-03-28T15:45:39.984Z</time></trkpt><trkpt lat="46.134704213721854" lon="9.793868965735218"><ele>1242.8333333333333</ele><time>2026-03-28T15:45:41.984Z</time></trkpt><trkpt lat="46.134738963051575" lon="9.794019471195854"><ele>1240.6666666666667</ele><time>2026-03-28T15:45:43.984Z</time></trkpt><trkpt lat="46.13470012964444" lon="9.794127888427871"><ele>1238.5</ele><time>2026-03-28T15:45:45.984Z</time></trkpt><trkpt lat="46.134644782151305" lon="9.794184992040801"><ele>1236.3333333333335</ele><time>2026-03-28T15:45:47.984Z</time></trkpt><trkpt lat="46.13459169835226" lon="9.794264193151193"><ele>1234.1666666666667</ele><time>2026-03-28T15:45:49.984Z</time></trkpt><trkpt lat="46.13454511859526" lon="9.794340094901969"><ele>1232.0</ele><time>2026-03-28T15:45:51.984Z</time></trkpt><trkpt lat="46.134507632529385" lon="9.794415336136069"><ele>1227.6</ele><time>2026-03-28T15:45:53.984Z</time></trkpt><trkpt lat="46.134437139277864" lon="9.794461001243217"><ele>1223.2</ele><time>2026-03-28T15:45:55.984Z</time></trkpt><trkpt lat="46.13434035382463" lon="9.794540322199335"><ele>1218.8</ele><time>2026-03-28T15:45:57.984Z</time></trkpt><trkpt lat="46.13424326928602" lon="9.794671944254471"><ele>1214.4</ele><time>2026-03-28T15:45:59.984Z</time></trkpt><trkpt lat="46.1341848864224" lon="9.794730399411629"><ele>1210.0</ele><time>2026-03-28T15:46:00.984Z</time></trkpt><trkpt lat="46.13413624469397" lon="9.794924692601263"><ele>1210.0</ele><time>2026-03-28T15:46:02.984Z</time></trkpt><trkpt lat="46.13412024593923" lon="9.795032239526474"><ele>1210.0</ele><time>2026-03-28T15:46:03.984Z</time></trkpt><trkpt lat="46.13410746584775" lon="9.795126847723463"><ele>1210.0</ele><time>2026-03-28T15:46:04.984Z</time></trkpt><trkpt lat="46.1340847470851" lon="9.795223468197205"><ele>1210.0</ele><time>2026-03-28T15:46:05.984Z</time></trkpt><trkpt lat="46.13404289980138" lon="9.795324279672297"><ele>1210.0</ele><time>2026-03-28T15:46:06.984Z</time></trkpt><trkpt lat="46.133995155608446" lon="9.795413553335502"><ele>1210.0</ele><time>2026-03-28T15:46:07.984Z</time></trkpt><trkpt lat="46.133969117168284" lon="9.795570943829398"><ele>1210.0</ele><time>2026-03-28T15:46:09.983Z</time></trkpt><trkpt lat="46.133909861343255" lon="9.795648678322577"><ele>1210.0</ele><time>2026-03-28T15:46:38.985Z</time></trkpt><trkpt lat="46.13396367375465" lon="9.795556663778395"><ele>1210.0</ele><time>2026-03-28T15:46:50.985Z</time></trkpt><trkpt lat="46.13396683873828" lon="9.795464244843034"><ele>1210.0</ele><time>2026-03-28T15:47:05.984Z</time></trkpt><trkpt lat="46.13401257567577" lon="9.795302198849186"><ele>1210.0</ele><time>2026-03-28T15:47:07.984Z</time></trkpt><trkpt lat="46.13406564420837" lon="9.795246952732716"><ele>1210.0</ele><time>2026-03-28T15:47:08.984Z</time></trkpt><trkpt lat="46.13413271334499" lon="9.795113161631235"><ele>1210.0</ele><time>2026-03-28T15:47:10.984Z</time></trkpt><trkpt lat="46.134142004262934" lon="9.795018773949591"><ele>1210.0</ele><time>2026-03-28T15:47:11.984Z</time></trkpt><trkpt lat="46.13415370684935" lon="9.79491679006111"><ele>1210.0</ele><time>2026-03-28T15:47:12.984Z</time></trkpt><trkpt lat="46.1342164156646" lon="9.794755389841832"><ele>1210.0</ele><time>2026-03-28T15:47:14.984Z</time></trkpt><trkpt lat="46.134281701406564" lon="9.794688995446538"><ele>1210.0</ele><time>2026-03-28T15:47:15.984Z</time></trkpt><trkpt lat="46.13435043553481" lon="9.794654229788843"><ele>1210.0</ele><time>2026-03-28T15:47:16.984Z</time></trkpt><trkpt lat="46.13445641454787" lon="9.794553682030507"><ele>1210.0</ele><time>2026-03-28T15:47:18.984Z</time></trkpt><trkpt lat="46.1345121010992" lon="9.794500026739724"><ele>1210.0</ele><time>2026-03-28T15:47:19.984Z</time></trkpt><trkpt lat="46.134560635742666" lon="9.794428761033533"><ele>1210.0</ele><time>2026-03-28T15:47:20.984Z</time></trkpt><trkpt lat="46.13460913088551" lon="9.794265705984499"><ele>1210.0</ele><time>2026-03-28T15:47:22.984Z</time></trkpt><trkpt lat="46.1346507336192" lon="9.79419397490184"><ele>1210.0</ele><time>2026-03-28T15:47:23.984Z</time></trkpt><trkpt lat="46.13468802588543" lon="9.794060999339894"><ele>1210.0</ele><time>2026-03-28T15:47:25.984Z</time></trkpt><trkpt lat="46.13468406423322" lon="9.793933582812354"><ele>1213.6666666666665</ele><time>2026-03-28T15:47:27.984Z</time></trkpt><trkpt lat="46.13465468888054" lon="9.79380301489151"><ele>1217.3333333333333</ele><time>2026-03-28T15:47:30.984Z</time></trkpt><trkpt lat="46.13466402966289" lon="9.793702310052547"><ele>1221.0</ele><time>2026-03-28T15:47:32.984Z</time></trkpt><trkpt lat="46.1347049958073" lon="9.793591542099174"><ele>1224.6666666666667</ele><time>2026-03-28T15:47:35.984Z</time></trkpt><trkpt lat="46.134785934660144" lon="9.793456212253748"><ele>1228.3333333333335</ele><time>2026-03-28T15:47:37.984Z</time></trkpt><trkpt lat="46.13485622119446" lon="9.793483327138018"><ele>1232.0</ele><time>2026-03-28T15:48:07.984Z</time></trkpt><trkpt lat="46.134843639974775" lon="9.793590649122965"><ele>1232.0</ele><time>2026-03-28T15:48:14.984Z</time></trkpt><trkpt lat="46.134882592870525" lon="9.793668591242573"><ele>1232.0</ele><time>2026-03-28T15:48:20.984Z</time></trkpt><trkpt lat="46.134945253986146" lon="9.793706601683501"><ele>1232.0</ele><time>2026-03-28T15:48:23.983Z</time></trkpt><trkpt lat="46.13502392451907" lon="9.793673705499614"><ele>1232.0</ele><time>2026-03-28T15:48:29.985Z</time></trkpt><trkpt lat="46.13508495455177" lon="9.793646574567587"><ele>1232.0</ele><time>2026-03-28T15:48:34.984Z</time></trkpt><trkpt lat="46.13513494075975" lon="9.793710298925122"><ele>1232.0</ele><time>2026-03-28T15:48:37.984Z</time></trkpt><trkpt lat="46.13519574135724" lon="9.793743057580382"><ele>1232.0</ele><time>2026-03-28T15:48:40.984Z</time></trkpt><trkpt lat="46.13525895341624" lon="9.793676609167028"><ele>1225.5</ele><time>2026-03-28T15:48:44.984Z</time></trkpt><trkpt lat="46.135303767586294" lon="9.793581338916379"><ele>1219.0</ele><time>2026-03-28T15:48:48.984Z</time></trkpt><trkpt lat="46.135328366367226" lon="9.793485180729444"><ele>1212.5</ele><time>2026-03-28T15:48:51.984Z</time></trkpt><trkpt lat="46.13537063852144" lon="9.793347496351501"><ele>1206.0</ele><time>2026-03-28T15:48:53.984Z</time></trkpt><trkpt lat="46.13537379505089" lon="9.793213566292456"><ele>1199.5</ele><time>2026-03-28T15:48:55.984Z</time></trkpt><trkpt lat="46.135393820711265" lon="9.793102567103821"><ele>1193.0</ele><time>2026-03-28T15:48:56.984Z</time></trkpt><trkpt lat="46.13541152471853" lon="9.79299561787855"><ele>1192.9999999999998</ele><time>2026-03-28T15:48:57.984Z</time></trkpt><trkpt lat="46.1354334467454" lon="9.792901775690977"><ele>1193.0</ele><time>2026-03-28T15:48:58.984Z</time></trkpt><trkpt lat="46.135449768740685" lon="9.79281062753893"><ele>1193.0</ele><time>2026-03-28T15:48:59.984Z</time></trkpt><trkpt lat="46.13547361320705" lon="9.79272257301906"><ele>1193.0</ele><time>2026-03-28T15:49:00.984Z</time></trkpt><trkpt lat="46.13549859443019" lon="9.792594728743671"><ele>1193.0</ele><time>2026-03-28T15:49:02.984Z</time></trkpt><trkpt lat="46.1355438552808" lon="9.792519320065374"><ele>1192.9999999999998</ele><time>2026-03-28T15:49:05.984Z</time></trkpt><trkpt lat="46.13553149141481" lon="9.792412901500189"><ele>1193.0</ele><time>2026-03-28T15:49:08.984Z</time></trkpt><trkpt lat="46.13555255867418" lon="9.792319341743001"><ele>1195.1666666666667</ele><time>2026-03-28T15:49:10.984Z</time></trkpt><trkpt lat="46.13559948005621" lon="9.79222911966947"><ele>1197.3333333333335</ele><time>2026-03-28T15:49:12.984Z</time></trkpt><trkpt lat="46.13563882512214" lon="9.792153366721747"><ele>1199.5</ele><time>2026-03-28T15:49:15.984Z</time></trkpt><trkpt lat="46.135685882630106" lon="9.79222486672737"><ele>1201.6666666666667</ele><time>2026-03-28T15:49:18.984Z</time></trkpt><trkpt lat="46.13569121834731" lon="9.792327656227139"><ele>1203.8333333333333</ele><time>2026-03-28T15:49:20.984Z</time></trkpt><trkpt lat="46.135747960192596" lon="9.792254694604628"><ele>1206.0</ele><time>2026-03-28T15:49:26.984Z</time></trkpt><trkpt lat="46.13580655929551" lon="9.792155668963682"><ele>1200.5</ele><time>2026-03-28T15:49:29.984Z</time></trkpt><trkpt lat="46.135814583337506" lon="9.792035536286274"><ele>1195.0</ele><time>2026-03-28T15:49:33.984Z</time></trkpt><trkpt lat="46.13586391659076" lon="9.791960040112118"><ele>1189.5</ele><time>2026-03-28T15:49:35.984Z</time></trkpt><trkpt lat="46.13590876538334" lon="9.79188998512741"><ele>1184.0</ele><time>2026-03-28T15:49:38.984Z</time></trkpt><trkpt lat="46.13597779456057" lon="9.791920727452128"><ele>1178.5</ele><time>2026-03-28T15:50:02.983Z</time></trkpt><trkpt lat="46.13599727936506" lon="9.79201343133613"><ele>1173.0</ele><time>2026-03-28T15:50:05.983Z</time></trkpt><trkpt lat="46.13599836015908" lon="9.792144227117438"><ele>1173.0</ele><time>2026-03-28T15:50:08.983Z</time></trkpt><trkpt lat="46.13597646121087" lon="9.792240017494679"><ele>1173.0</ele><time>2026-03-28T15:50:17.983Z</time></trkpt><trkpt lat="46.13598471939022" lon="9.792344671509712"><ele>1173.0</ele><time>2026-03-28T15:50:20.983Z</time></trkpt><trkpt lat="46.136052487268046" lon="9.79230016305661"><ele>1173.0</ele><time>2026-03-28T15:50:35.984Z</time></trkpt><trkpt lat="46.13605911023198" lon="9.792198302296852"><ele>1173.0</ele><time>2026-03-28T15:50:42.984Z</time></trkpt><trkpt lat="46.13609083000964" lon="9.792106188725159"><ele>1173.0</ele><time>2026-03-28T15:51:00.984Z</time></trkpt><trkpt lat="46.13616792368207" lon="9.792023502328924"><ele>1173.0000000000002</ele><time>2026-03-28T15:51:03.984Z</time></trkpt><trkpt lat="46.13621243172939" lon="9.791924092578931"><ele>1173.0</ele><time>2026-03-28T15:51:07.984Z</time></trkpt><trkpt lat="46.136264112697084" lon="9.79200070369716"><ele>1173.0</ele><time>2026-03-28T15:51:10.984Z</time></trkpt><trkpt lat="46.1362815891499" lon="9.792114343511797"><ele>1173.0</ele><time>2026-03-28T15:51:12.984Z</time></trkpt><trkpt lat="46.13625686123598" lon="9.792213891725876"><ele>1173.0</ele><time>2026-03-28T15:51:32.984Z</time></trkpt><trkpt lat="46.13624639499917" lon="9.792309491839848"><ele>1173.0000000000002</ele><time>2026-03-28T15:52:09.983Z</time></trkpt><trkpt lat="46.13621004281155" lon="9.792392955218139"><ele>1173.0</ele><time>2026-03-28T15:52:31.983Z</time></trkpt><trkpt lat="46.136226992336006" lon="9.792497563540376"><ele>1173.0000000000002</ele><time>2026-03-28T15:52:40.984Z</time></trkpt><trkpt lat="46.13622344163259" lon="9.79261282982141"><ele>1173.0</ele><time>2026-03-28T15:52:51.984Z</time></trkpt><trkpt lat="46.13624436214642" lon="9.792485834408506"><ele>1173.0</ele><time>2026-03-28T15:53:14.984Z</time></trkpt><trkpt lat="46.13618774362055" lon="9.792545784826382"><ele>1173.0</ele><time>2026-03-28T15:53:43.983Z</time></trkpt><trkpt lat="46.13621787824443" lon="9.792628638726512"><ele>1173.0</ele><time>2026-03-28T15:53:48.983Z</time></trkpt><trkpt lat="46.136251223678386" lon="9.79271539841479"><ele>1173.0000000000002</ele><time>2026-03-28T15:53:54.983Z</time></trkpt><trkpt lat="46.13627203068696" lon="9.79281145018816"><ele>1173.0</ele><time>2026-03-28T15:53:59.983Z</time></trkpt><trkpt lat="46.13628918898334" lon="9.792718853967727"><ele>1173.0000000000002</ele><time>2026-03-28T15:54:14.983Z</time></trkpt><trkpt lat="46.136258864170955" lon="9.79263024925183"><ele>1173.0</ele><time>2026-03-28T15:54:21.983Z</time></trkpt><trkpt lat="46.1362666711232" lon="9.792532000612901"><ele>1173.0</ele><time>2026-03-28T15:54:31.983Z</time></trkpt><trkpt lat="46.1362093773794" lon="9.79244303402372"><ele>1173.0</ele><time>2026-03-28T15:54:55.984Z</time></trkpt><trkpt lat="46.13627352199776" lon="9.792418090154204"><ele>1173.0</ele><time>2026-03-28T15:57:33.984Z</time></trkpt><trkpt lat="46.13620501286342" lon="9.792429646156275"><ele>1173.0000000000002</ele><time>2026-03-28T15:57:57.983Z</time></trkpt><trkpt lat="46.13618157190848" lon="9.792341847919873"><ele>1173.0</ele><time>2026-03-28T15:58:24.98Z</time></trkpt><trkpt lat="46.13624257413878" lon="9.79241492158695"><ele>1173.0000000000002</ele><time>2026-03-28T15:58:33.98Z</time></trkpt><trkpt lat="46.136218925862536" lon="9.792507296208303"><ele>1173.0</ele><time>2026-03-28T15:59:17.98Z</time></trkpt><trkpt lat="46.13621316715844" lon="9.792409235454718"><ele>1173.0</ele><time>2026-03-28T16:02:46.977Z</time></trkpt><trkpt lat="46.13624988486203" lon="9.792328907009349"><ele>1173.0</ele><time>2026-03-28T16:02:52.977Z</time></trkpt><trkpt lat="46.13625646603608" lon="9.792233204932005"><ele>1173.0</ele><time>2026-03-28T16:02:57.977Z</time></trkpt><trkpt lat="46.13623981637793" lon="9.792331675807892"><ele>1173.0000000000002</ele><time>2026-03-28T16:03:12.978Z</time></trkpt><trkpt lat="46.136222001885585" lon="9.792426014640235"><ele>1173.0</ele><time>2026-03-28T16:03:16.978Z</time></trkpt><trkpt lat="46.136264676989036" lon="9.79249521647205"><ele>1173.0</ele><time>2026-03-28T16:03:59.977Z</time></trkpt><trkpt lat="46.13618904281712" lon="9.792606776380564"><ele>1173.0</ele><time>2026-03-28T16:04:45.976Z</time></trkpt><trkpt lat="46.13622007354055" lon="9.79270726710999"><ele>1173.0</ele><time>2026-03-28T16:04:48.976Z</time></trkpt><trkpt lat="46.13623171991425" lon="9.792811124122963"><ele>1173.0</ele><time>2026-03-28T16:04:54.976Z</time></trkpt><trkpt lat="46.136223182263336" lon="9.792940095324488"><ele>1173.0</ele><time>2026-03-28T16:04:57.976Z</time></trkpt><trkpt lat="46.13620742940554" lon="9.793059447006678"><ele>1173.0</ele><time>2026-03-28T16:05:00.976Z</time></trkpt><trkpt lat="46.13620246923972" lon="9.793153483064383"><ele>1171.4285714285716</ele><time>2026-03-28T16:05:03.976Z</time></trkpt><trkpt lat="46.13623082496773" lon="9.793258054232432"><ele>1169.857142857143</ele><time>2026-03-28T16:05:05.976Z</time></trkpt><trkpt lat="46.1362070062929" lon="9.793342500952603"><ele>1168.2857142857142</ele><time>2026-03-28T16:05:12.977Z</time></trkpt><trkpt lat="46.13622053298859" lon="9.793432706671473"><ele>1166.7142857142858</ele><time>2026-03-28T16:05:30.977Z</time></trkpt><trkpt lat="46.13617440681037" lon="9.793497945967962"><ele>1165.142857142857</ele><time>2026-03-28T16:05:48.977Z</time></trkpt><trkpt lat="46.13624112537411" lon="9.79344106447845"><ele>1163.5714285714287</ele><time>2026-03-28T16:06:01.977Z</time></trkpt><trkpt lat="46.13620002464282" lon="9.793369091906673"><ele>1162.0</ele><time>2026-03-28T16:06:08.977Z</time></trkpt><trkpt lat="46.136167319041604" lon="9.79347665388087"><ele>1159.5714285714287</ele><time>2026-03-28T16:06:13.977Z</time></trkpt><trkpt lat="46.136157892816904" lon="9.793615130291906"><ele>1157.142857142857</ele><time>2026-03-28T16:06:16.977Z</time></trkpt><trkpt lat="46.13617191855903" lon="9.793719552386921"><ele>1154.7142857142858</ele><time>2026-03-28T16:06:18.977Z</time></trkpt><trkpt lat="46.13616253159817" lon="9.793810324891126"><ele>1152.2857142857142</ele><time>2026-03-28T16:06:21.977Z</time></trkpt><trkpt lat="46.136160691631204" lon="9.793905060892408"><ele>1149.857142857143</ele><time>2026-03-28T16:06:25.977Z</time></trkpt><trkpt lat="46.13613573631727" lon="9.794003557690138"><ele>1147.4285714285716</ele><time>2026-03-28T16:06:28.977Z</time></trkpt><trkpt lat="46.13614063382013" lon="9.794113933872342"><ele>1145.0</ele><time>2026-03-28T16:06:31.977Z</time></trkpt><trkpt lat="46.13612648910877" lon="9.794216255229406"><ele>1145.0</ele><time>2026-03-28T16:06:33.977Z</time></trkpt><trkpt lat="46.13615148469666" lon="9.794304807387434"><ele>1145.0</ele><time>2026-03-28T16:06:36.976Z</time></trkpt><trkpt lat="46.136186940085686" lon="9.794469269996668"><ele>1145.0</ele><time>2026-03-28T16:06:52.976Z</time></trkpt><trkpt lat="46.13618788976387" lon="9.79458999137569"><ele>1145.0</ele><time>2026-03-28T16:06:58.976Z</time></trkpt><trkpt lat="46.13622208220429" lon="9.794679026271716"><ele>1145.0</ele><time>2026-03-28T16:07:02.976Z</time></trkpt><trkpt lat="46.13623899244322" lon="9.794789259218817"><ele>1145.0</ele><time>2026-03-28T16:07:05.976Z</time></trkpt><trkpt lat="46.136251258480165" lon="9.794878898445509"><ele>1144.1666666666667</ele><time>2026-03-28T16:07:07.976Z</time></trkpt><trkpt lat="46.13634485037606" lon="9.794960797971594"><ele>1143.3333333333335</ele><time>2026-03-28T16:07:09.976Z</time></trkpt><trkpt lat="46.136399507364764" lon="9.79502877539985"><ele>1142.5</ele><time>2026-03-28T16:07:11.976Z</time></trkpt><trkpt lat="46.13642798148006" lon="9.795119808805424"><ele>1141.6666666666667</ele><time>2026-03-28T16:07:13.976Z</time></trkpt><trkpt lat="46.13650866566584" lon="9.795130273249248"><ele>1140.8333333333333</ele><time>2026-03-28T16:07:16.976Z</time></trkpt><trkpt lat="46.13650975629515" lon="9.795236354103215"><ele>1140.0</ele><time>2026-03-28T16:07:18.976Z</time></trkpt><trkpt lat="46.13657655967634" lon="9.795249398929037"><ele>1132.5</ele><time>2026-03-28T16:07:22.976Z</time></trkpt><trkpt lat="46.13665469188465" lon="9.795202960559779"><ele>1125.0</ele><time>2026-03-28T16:07:25.977Z</time></trkpt><trkpt lat="46.13669408226702" lon="9.795123002556597"><ele>1117.5</ele><time>2026-03-28T16:07:29.978Z</time></trkpt><trkpt lat="46.13678279106981" lon="9.795133578830177"><ele>1110.0</ele><time>2026-03-28T16:07:33.977Z</time></trkpt><trkpt lat="46.13683337652371" lon="9.795194445085018"><ele>1102.5</ele><time>2026-03-28T16:07:35.977Z</time></trkpt><trkpt lat="46.1368331510944" lon="9.795082432277175"><ele>1095.0</ele><time>2026-03-28T16:07:41.977Z</time></trkpt><trkpt lat="46.13683811100807" lon="9.794972808169414"><ele>1095.0</ele><time>2026-03-28T16:07:44.977Z</time></trkpt><trkpt lat="46.13687863230082" lon="9.79489442793453"><ele>1095.0</ele><time>2026-03-28T16:07:47.977Z</time></trkpt><trkpt lat="46.13694430210206" lon="9.79495968498041"><ele>1095.0</ele><time>2026-03-28T16:07:51.977Z</time></trkpt><trkpt lat="46.13701473940107" lon="9.795026880711504"><ele>1095.0</ele><time>2026-03-28T16:07:53.977Z</time></trkpt><trkpt lat="46.13704185522144" lon="9.79493417680322"><ele>1095.0</ele><time>2026-03-28T16:07:59.977Z</time></trkpt><trkpt lat="46.137089273525014" lon="9.794840199665408"><ele>1095.0</ele><time>2026-03-28T16:08:02.977Z</time></trkpt><trkpt lat="46.137130574174854" lon="9.79473259626769"><ele>1095.0</ele><time>2026-03-28T16:08:04.977Z</time></trkpt><trkpt lat="46.13715491293006" lon="9.794620958592601"><ele>1095.0</ele><time>2026-03-28T16:08:07.977Z</time></trkpt><trkpt lat="46.13720458113497" lon="9.794684265710936"><ele>1095.0</ele><time>2026-03-28T16:08:11.976Z</time></trkpt><trkpt lat="46.137276327313224" lon="9.794789654420756"><ele>1095.0</ele><time>2026-03-28T16:08:18.976Z</time></trkpt><trkpt lat="46.13732192473942" lon="9.794874498121976"><ele>1095.0</ele><time>2026-03-28T16:08:20.976Z</time></trkpt><trkpt lat="46.137373345764466" lon="9.794976024726619"><ele>1095.0</ele><time>2026-03-28T16:08:22.976Z</time></trkpt><trkpt lat="46.137358399129" lon="9.795090998226021"><ele>1094.1666666666667</ele><time>2026-03-28T16:08:25.976Z</time></trkpt><trkpt lat="46.13736161038388" lon="9.795188471854722"><ele>1093.3333333333333</ele><time>2026-03-28T16:08:27.976Z</time></trkpt><trkpt lat="46.1373741625914" lon="9.795301657201888"><ele>1092.5</ele><time>2026-03-28T16:08:29.976Z</time></trkpt><trkpt lat="46.13738723842543" lon="9.795391128435483"><ele>1091.6666666666665</ele><time>2026-03-28T16:08:33.976Z</time></trkpt><trkpt lat="46.13742402113619" lon="9.795476192793092"><ele>1090.8333333333333</ele><time>2026-03-28T16:08:42.976Z</time></trkpt><trkpt lat="46.137423907853886" lon="9.795579029653206"><ele>1090.0</ele><time>2026-03-28T16:09:31.977Z</time></trkpt><trkpt lat="46.13751055295548" lon="9.795646265288099"><ele>1079.6666666666665</ele><time>2026-03-28T16:12:00.976Z</time></trkpt><trkpt lat="46.13754301250202" lon="9.795733988625857"><ele>1069.3333333333333</ele><time>2026-03-28T16:12:02.976Z</time></trkpt><trkpt lat="46.13754958713782" lon="9.795848108470429"><ele>1059.0</ele><time>2026-03-28T16:12:05.976Z</time></trkpt><trkpt lat="46.13758723818483" lon="9.795945489293254"><ele>1048.6666666666667</ele><time>2026-03-28T16:12:13.976Z</time></trkpt><trkpt lat="46.137682424753955" lon="9.79600608841989"><ele>1038.3333333333335</ele><time>2026-03-28T16:12:15.976Z</time></trkpt><trkpt lat="46.137758357978015" lon="9.796058404883913"><ele>1028.0</ele><time>2026-03-28T16:12:17.976Z</time></trkpt><trkpt lat="46.13782070213245" lon="9.79608576745699"><ele>1028.0</ele><time>2026-03-28T16:12:19.976Z</time></trkpt><trkpt lat="46.13782390205009" lon="9.79619559017857"><ele>1028.0</ele><time>2026-03-28T16:12:25.976Z</time></trkpt><trkpt lat="46.137899580329666" lon="9.796220531311812"><ele>1028.0</ele><time>2026-03-28T16:12:29.976Z</time></trkpt><trkpt lat="46.13797381400968" lon="9.796190511276848"><ele>1028.0</ele><time>2026-03-28T16:12:32.976Z</time></trkpt><trkpt lat="46.13805027079766" lon="9.796121543549562"><ele>1028.0</ele><time>2026-03-28T16:12:35.976Z</time></trkpt><trkpt lat="46.13808929643169" lon="9.796035162315066"><ele>1028.0</ele><time>2026-03-28T16:12:38.976Z</time></trkpt><trkpt lat="46.138153228151495" lon="9.795982589417008"><ele>1025.0</ele><time>2026-03-28T16:12:42.976Z</time></trkpt><trkpt lat="46.138192285386765" lon="9.796068295268745"><ele>1022.0</ele><time>2026-03-28T16:12:44.975Z</time></trkpt><trkpt lat="46.13822785927726" lon="9.796222234048717"><ele>1019.0</ele><time>2026-03-28T16:12:46.975Z</time></trkpt><trkpt lat="46.138249588065726" lon="9.796377570699045"><ele>1016.0</ele><time>2026-03-28T16:12:48.975Z</time></trkpt><trkpt lat="46.138242380402666" lon="9.796491126646151"><ele>1013.0</ele><time>2026-03-28T16:12:52.975Z</time></trkpt><trkpt lat="46.13815160828384" lon="9.796488496631364"><ele>1013.0</ele><time>2026-03-28T16:12:55.975Z</time></trkpt><trkpt lat="46.13806187804194" lon="9.79651991240142"><ele>1013.0</ele><time>2026-03-28T16:12:57.975Z</time></trkpt><trkpt lat="46.13796695744805" lon="9.796591591348365"><ele>1013.0</ele><time>2026-03-28T16:12:59.975Z</time></trkpt><trkpt lat="46.13795151463669" lon="9.796711796270012"><ele>1013.0</ele><time>2026-03-28T16:13:03.975Z</time></trkpt><trkpt lat="46.137985500935166" lon="9.796832574730663"><ele>1013.0</ele><time>2026-03-28T16:13:05.975Z</time></trkpt><trkpt lat="46.13805975775923" lon="9.796979073833711"><ele>1009.7142857142858</ele><time>2026-03-28T16:13:07.975Z</time></trkpt><trkpt lat="46.13810331808481" lon="9.797053422996434"><ele>1006.4285714285716</ele><time>2026-03-28T16:13:08.975Z</time></trkpt><trkpt lat="46.13814808062298" lon="9.797118493261932"><ele>1003.1428571428571</ele><time>2026-03-28T16:13:09.975Z</time></trkpt><trkpt lat="46.138204314480525" lon="9.797164806011283"><ele>999.8571428571429</ele><time>2026-03-28T16:13:10.975Z</time></trkpt><trkpt lat="46.13825301131941" lon="9.79725405485988"><ele>996.5714285714286</ele><time>2026-03-28T16:13:12.975Z</time></trkpt><trkpt lat="46.13824802946869" lon="9.797355496687013"><ele>993.2857142857142</ele><time>2026-03-28T16:13:15.975Z</time></trkpt><trkpt lat="46.138234323252874" lon="9.797448599546737"><ele>989.9999999999999</ele><time>2026-03-28T16:13:18.975Z</time></trkpt><trkpt lat="46.13821111916683" lon="9.797557756796616"><ele>982.5</ele><time>2026-03-28T16:13:20.975Z</time></trkpt><trkpt lat="46.138165126290026" lon="9.797691387573858"><ele>975.0</ele><time>2026-03-28T16:13:22.975Z</time></trkpt><trkpt lat="46.138125047577816" lon="9.797830803311205"><ele>967.5</ele><time>2026-03-28T16:13:24.975Z</time></trkpt><trkpt lat="46.13809100943637" lon="9.797907437525513"><ele>960.0</ele><time>2026-03-28T16:13:26.975Z</time></trkpt><trkpt lat="46.13816064001861" lon="9.797923653098698"><ele>952.5</ele><time>2026-03-28T16:13:29.975Z</time></trkpt><trkpt lat="46.13822896525571" lon="9.797811031676748"><ele>945.0</ele><time>2026-03-28T16:13:31.975Z</time></trkpt><trkpt lat="46.13831950047318" lon="9.797711034170089"><ele>946.6</ele><time>2026-03-28T16:13:33.975Z</time></trkpt><trkpt lat="46.138432239210346" lon="9.79766201765456"><ele>948.2</ele><time>2026-03-28T16:13:35.976Z</time></trkpt><trkpt lat="46.13852168782442" lon="9.797687446677415"><ele>949.8</ele><time>2026-03-28T16:13:37.976Z</time></trkpt><trkpt lat="46.13858773116282" lon="9.79764855623235"><ele>951.4</ele><time>2026-03-28T16:13:39.976Z</time></trkpt><trkpt lat="46.13867677197263" lon="9.797509446358072"><ele>953.0</ele><time>2026-03-28T16:13:41.976Z</time></trkpt><trkpt lat="46.13872270563091" lon="9.79735926276404"><ele>953.0</ele><time>2026-03-28T16:13:43.976Z</time></trkpt><trkpt lat="46.13869629071118" lon="9.797239579520243"><ele>953.0</ele><time>2026-03-28T16:13:45.977Z</time></trkpt><trkpt lat="46.13874814742218" lon="9.797132108540087"><ele>953.0</ele><time>2026-03-28T16:13:47.977Z</time></trkpt><trkpt lat="46.13883355061602" lon="9.797157881785477"><ele>953.0</ele><time>2026-03-28T16:13:49.977Z</time></trkpt><trkpt lat="46.13892490425634" lon="9.797147231359839"><ele>953.0</ele><time>2026-03-28T16:13:51.976Z</time></trkpt><trkpt lat="46.13901791842796" lon="9.7970795210378"><ele>947.2</ele><time>2026-03-28T16:13:53.976Z</time></trkpt><trkpt lat="46.1390818102749" lon="9.796962423623002"><ele>941.4</ele><time>2026-03-28T16:13:55.976Z</time></trkpt><trkpt lat="46.139130702631185" lon="9.79677605988231"><ele>935.6000000000001</ele><time>2026-03-28T16:13:57.976Z</time></trkpt><trkpt lat="46.13918396916384" lon="9.796617637227627"><ele>929.8000000000001</ele><time>2026-03-28T16:13:59.976Z</time></trkpt><trkpt lat="46.13921931842414" lon="9.796531495310829"><ele>924.0</ele><time>2026-03-28T16:14:00.976Z</time></trkpt><trkpt lat="46.13926081926919" lon="9.796460334293183"><ele>924.0</ele><time>2026-03-28T16:14:01.976Z</time></trkpt><trkpt lat="46.13933222501508" lon="9.796341012671567"><ele>924.0000000000001</ele><time>2026-03-28T16:14:03.976Z</time></trkpt><trkpt lat="46.139408141909314" lon="9.796224767099694"><ele>924.0000000000001</ele><time>2026-03-28T16:14:05.976Z</time></trkpt><trkpt lat="46.13946191849231" lon="9.796095731359646"><ele>924.0</ele><time>2026-03-28T16:14:07.976Z</time></trkpt><trkpt lat="46.13949895946046" lon="9.79593211317652"><ele>924.0</ele><time>2026-03-28T16:14:09.976Z</time></trkpt><trkpt lat="46.13955478459068" lon="9.795830252699188"><ele>924.0</ele><time>2026-03-28T16:14:11.975Z</time></trkpt><trkpt lat="46.1396130816008" lon="9.795945757260073"><ele>924.0</ele><time>2026-03-28T16:14:14.975Z</time></trkpt><trkpt lat="46.139619291280006" lon="9.796109233907373"><ele>924.0</ele><time>2026-03-28T16:14:16.975Z</time></trkpt><trkpt lat="46.13962961793504" lon="9.796221808633197"><ele>924.0</ele><time>2026-03-28T16:14:17.975Z</time></trkpt><trkpt lat="46.13963662561404" lon="9.796332473285794"><ele>924.0</ele><time>2026-03-28T16:14:18.975Z</time></trkpt><trkpt lat="46.13962993406243" lon="9.796425522251903"><ele>924.0</ele><time>2026-03-28T16:14:19.975Z</time></trkpt><trkpt lat="46.13962201433878" lon="9.796587787080044"><ele>924.0</ele><time>2026-03-28T16:14:21.975Z</time></trkpt><trkpt lat="46.13959014776637" lon="9.796775453642827"><ele>924.0000000000001</ele><time>2026-03-28T16:14:23.975Z</time></trkpt><trkpt lat="46.13957802788766" lon="9.796893073472447"><ele>924.0000000000001</ele><time>2026-03-28T16:14:24.975Z</time></trkpt><trkpt lat="46.13957067891263" lon="9.797032714266129"><ele>924.0</ele><time>2026-03-28T16:14:25.975Z</time></trkpt><trkpt lat="46.13957294795205" lon="9.797170694693097"><ele>924.0</ele><time>2026-03-28T16:14:26.975Z</time></trkpt><trkpt lat="46.13957011695333" lon="9.797265615285571"><ele>922.6</ele><time>2026-03-28T16:14:27.975Z</time></trkpt><trkpt lat="46.13949702456604" lon="9.797417783569124"><ele>921.2</ele><time>2026-03-28T16:14:29.974Z</time></trkpt><trkpt lat="46.13944613814605" lon="9.797562844503753"><ele>919.8000000000001</ele><time>2026-03-28T16:14:31.974Z</time></trkpt><trkpt lat="46.139545083841995" lon="9.797655620054847"><ele>918.4000000000001</ele><time>2026-03-28T16:14:33.974Z</time></trkpt><trkpt lat="46.139609709875735" lon="9.797738740696408"><ele>917.0</ele><time>2026-03-28T16:14:34.974Z</time></trkpt><trkpt lat="46.13965888162317" lon="9.797823882437125"><ele>914.6666666666667</ele><time>2026-03-28T16:14:35.974Z</time></trkpt><trkpt lat="46.139713257293195" lon="9.797956407138516"><ele>912.3333333333334</ele><time>2026-03-28T16:14:36.974Z</time></trkpt><trkpt lat="46.1397327371018" lon="9.798053858914463"><ele>910.0</ele><time>2026-03-28T16:14:37.974Z</time></trkpt><trkpt lat="46.13967850478494" lon="9.798191313534474"><ele>907.6666666666667</ele><time>2026-03-28T16:14:39.974Z</time></trkpt><trkpt lat="46.13964011983967" lon="9.798294970328815"><ele>905.3333333333334</ele><time>2026-03-28T16:14:41.974Z</time></trkpt><trkpt lat="46.13968331527447" lon="9.798362024779754"><ele>903.0</ele><time>2026-03-28T16:14:43.974Z</time></trkpt><trkpt lat="46.13973694722396" lon="9.79828862669766"><ele>903.0</ele><time>2026-03-28T16:14:45.974Z</time></trkpt><trkpt lat="46.13984819308261" lon="9.798234225792262"><ele>903.0</ele><time>2026-03-28T16:14:47.974Z</time></trkpt><trkpt lat="46.139928468643404" lon="9.798141587492411"><ele>903.0</ele><time>2026-03-28T16:14:49.974Z</time></trkpt><trkpt lat="46.1399909947699" lon="9.79808226847994"><ele>903.0</ele><time>2026-03-28T16:14:51.974Z</time></trkpt><trkpt lat="46.140023291287974" lon="9.798210432299756"><ele>903.0</ele><time>2026-03-28T16:14:53.974Z</time></trkpt><trkpt lat="46.140006405720555" lon="9.79839867674256"><ele>897.1666666666666</ele><time>2026-03-28T16:14:55.974Z</time></trkpt><trkpt lat="46.13995861195128" lon="9.798525901315104"><ele>891.3333333333333</ele><time>2026-03-28T16:14:56.974Z</time></trkpt><trkpt lat="46.13990111731695" lon="9.79859775307686"><ele>885.5</ele><time>2026-03-28T16:14:57.974Z</time></trkpt><trkpt lat="46.13996516507847" lon="9.798614993206371"><ele>879.6666666666666</ele><time>2026-03-28T16:15:01.974Z</time></trkpt><trkpt lat="46.1400201946675" lon="9.798539394188682"><ele>873.8333333333333</ele><time>2026-03-28T16:15:02.974Z</time></trkpt><trkpt lat="46.14006834544662" lon="9.798468135450493"><ele>868.0</ele><time>2026-03-28T16:15:03.974Z</time></trkpt><trkpt lat="46.14010949404843" lon="9.798382984332466"><ele>867.9999999999999</ele><time>2026-03-28T16:15:04.974Z</time></trkpt><trkpt lat="46.14015505683457" lon="9.798316294727245"><ele>868.0</ele><time>2026-03-28T16:15:05.974Z</time></trkpt><trkpt lat="46.14019316992262" lon="9.798243606566182"><ele>868.0</ele><time>2026-03-28T16:15:06.974Z</time></trkpt><trkpt lat="46.14023097873947" lon="9.798164673328465"><ele>868.0</ele><time>2026-03-28T16:15:07.974Z</time></trkpt><trkpt lat="46.140304974385444" lon="9.79800327387813"><ele>867.9999999999999</ele><time>2026-03-28T16:15:09.974Z</time></trkpt><trkpt lat="46.140301360427934" lon="9.797871924118105"><ele>868.0</ele><time>2026-03-28T16:15:11.974Z</time></trkpt><trkpt lat="46.140192142308806" lon="9.797776042165916"><ele>867.9999999999999</ele><time>2026-03-28T16:15:13.974Z</time></trkpt><trkpt lat="46.14014861369735" lon="9.797687530919342"><ele>868.0</ele><time>2026-03-28T16:15:14.974Z</time></trkpt><trkpt lat="46.140106010589825" lon="9.797577055209997"><ele>868.0</ele><time>2026-03-28T16:15:15.974Z</time></trkpt><trkpt lat="46.140087862641636" lon="9.797466503710048"><ele>868.0</ele><time>2026-03-28T16:15:16.974Z</time></trkpt><trkpt lat="46.14011250927404" lon="9.797325740905356"><ele>867.9999999999999</ele><time>2026-03-28T16:15:17.974Z</time></trkpt><trkpt lat="46.140136500650605" lon="9.797210439953847"><ele>868.0</ele><time>2026-03-28T16:15:18.974Z</time></trkpt><trkpt lat="46.14018899322967" lon="9.797122127740582"><ele>868.8333333333333</ele><time>2026-03-28T16:15:19.974Z</time></trkpt><trkpt lat="46.140284528385976" lon="9.797047691419106"><ele>869.6666666666666</ele><time>2026-03-28T16:15:20.973Z</time></trkpt><trkpt lat="46.14034634675237" lon="9.796969965408714"><ele>870.5</ele><time>2026-03-28T16:15:21.973Z</time></trkpt><trkpt lat="46.140397220973064" lon="9.796888592476888"><ele>871.3333333333333</ele><time>2026-03-28T16:15:22.973Z</time></trkpt><trkpt lat="46.14048176783371" lon="9.796837300664453"><ele>872.1666666666666</ele><time>2026-03-28T16:15:23.973Z</time></trkpt><trkpt lat="46.14055726155841" lon="9.796791658514444"><ele>873.0</ele><time>2026-03-28T16:15:24.973Z</time></trkpt><trkpt lat="46.140620212123835" lon="9.796772408352473"><ele>874.4</ele><time>2026-03-28T16:15:25.973Z</time></trkpt><trkpt lat="46.14066509763632" lon="9.796588022737794"><ele>875.8</ele><time>2026-03-28T16:15:27.973Z</time></trkpt><trkpt lat="46.140681661248266" lon="9.796471608190206"><ele>877.2</ele><time>2026-03-28T16:15:28.973Z</time></trkpt><trkpt lat="46.140702834029256" lon="9.796345890539232"><ele>878.6</ele><time>2026-03-28T16:15:29.973Z</time></trkpt><trkpt lat="46.140730073809074" lon="9.796259864505435"><ele>880.0</ele><time>2026-03-28T16:15:30.973Z</time></trkpt><trkpt lat="46.140772998229096" lon="9.796392623356185"><ele>878.8333333333333</ele><time>2026-03-28T16:15:33.973Z</time></trkpt><trkpt lat="46.14075837122012" lon="9.796499309486364"><ele>877.6666666666666</ele><time>2026-03-28T16:15:34.973Z</time></trkpt><trkpt lat="46.1407650931762" lon="9.796595450974493"><ele>876.5</ele><time>2026-03-28T16:15:35.973Z</time></trkpt><trkpt lat="46.14075210826714" lon="9.79671472145019"><ele>875.3333333333333</ele><time>2026-03-28T16:15:36.973Z</time></trkpt><trkpt lat="46.14074313168948" lon="9.796843724592943"><ele>874.1666666666666</ele><time>2026-03-28T16:15:37.973Z</time></trkpt><trkpt lat="46.140711479818535" lon="9.796957337939133"><ele>873.0</ele><time>2026-03-28T16:15:38.973Z</time></trkpt><trkpt lat="46.14066532722935" lon="9.797038196827943"><ele>873.0</ele><time>2026-03-28T16:15:39.973Z</time></trkpt><trkpt lat="46.1406083482257" lon="9.797093499365515"><ele>873.0</ele><time>2026-03-28T16:15:40.973Z</time></trkpt><trkpt lat="46.14054177531933" lon="9.797147123451323"><ele>873.0</ele><time>2026-03-28T16:15:41.974Z</time></trkpt><trkpt lat="46.140502983039866" lon="9.797267403383206"><ele>873.0</ele><time>2026-03-28T16:15:43.973Z</time></trkpt><trkpt lat="46.14060887833126" lon="9.797299691951581"><ele>873.0</ele><time>2026-03-28T16:15:45.974Z</time></trkpt><trkpt lat="46.1407111524241" lon="9.797406419649581"><ele>862.4</ele><time>2026-03-28T16:15:47.974Z</time></trkpt><trkpt lat="46.140772482677846" lon="9.797495377315997"><ele>851.8</ele><time>2026-03-28T16:15:48.973Z</time></trkpt><trkpt lat="46.140839328697005" lon="9.797601660808603"><ele>841.2</ele><time>2026-03-28T16:15:49.973Z</time></trkpt><trkpt lat="46.14092096525059" lon="9.797690299221566"><ele>830.6</ele><time>2026-03-28T16:15:50.974Z</time></trkpt><trkpt lat="46.140991981943266" lon="9.797801921588595"><ele>820.0</ele><time>2026-03-28T16:15:51.974Z</time></trkpt><trkpt lat="46.14103724791517" lon="9.797887101890144"><ele>820.0</ele><time>2026-03-28T16:15:52.974Z</time></trkpt><trkpt lat="46.141092988071115" lon="9.798044211863191"><ele>820.0</ele><time>2026-03-28T16:15:54.974Z</time></trkpt><trkpt lat="46.14110494097514" lon="9.798137130445664"><ele>820.0</ele><time>2026-03-28T16:15:55.974Z</time></trkpt><trkpt lat="46.141146332128365" lon="9.798238430301543"><ele>820.0</ele><time>2026-03-28T16:15:56.974Z</time></trkpt><trkpt lat="46.14117212489086" lon="9.798388080953606"><ele>820.0</ele><time>2026-03-28T16:15:57.974Z</time></trkpt><trkpt lat="46.141191164305745" lon="9.798492532691629"><ele>820.0</ele><time>2026-03-28T16:15:58.973Z</time></trkpt><trkpt lat="46.14122726678664" lon="9.798628259803657"><ele>820.0</ele><time>2026-03-28T16:16:00.973Z</time></trkpt><trkpt lat="46.1413235391077" lon="9.798603285941557"><ele>820.0</ele><time>2026-03-28T16:16:02.973Z</time></trkpt><trkpt lat="46.14139456258558" lon="9.798446045877839"><ele>820.0</ele><time>2026-03-28T16:16:04.973Z</time></trkpt><trkpt lat="46.14143028039159" lon="9.79835388250796"><ele>820.0</ele><time>2026-03-28T16:16:05.973Z</time></trkpt><trkpt lat="46.14147729923551" lon="9.798271290995752"><ele>819.9999999999999</ele><time>2026-03-28T16:16:06.973Z</time></trkpt><trkpt lat="46.14149179147984" lon="9.798171376968803"><ele>820.0</ele><time>2026-03-28T16:16:07.973Z</time></trkpt><trkpt lat="46.14150793932413" lon="9.798064781164554"><ele>820.0</ele><time>2026-03-28T16:16:08.973Z</time></trkpt><trkpt lat="46.141528846847116" lon="9.797948141629018"><ele>820.0</ele><time>2026-03-28T16:16:09.973Z</time></trkpt><trkpt lat="46.14154356934491" lon="9.797826459371064"><ele>819.9999999999999</ele><time>2026-03-28T16:16:10.973Z</time></trkpt><trkpt lat="46.14152302722885" lon="9.797711737077508"><ele>820.0</ele><time>2026-03-28T16:16:12.973Z</time></trkpt><trkpt lat="46.141390424800356" lon="9.797606624752891"><ele>819.6666666666666</ele><time>2026-03-28T16:16:14.973Z</time></trkpt><trkpt lat="46.14131323154403" lon="9.797528719248582"><ele>819.3333333333333</ele><time>2026-03-28T16:16:15.973Z</time></trkpt><trkpt lat="46.14127272909967" lon="9.797402477653499"><ele>819.0</ele><time>2026-03-28T16:16:16.973Z</time></trkpt><trkpt lat="46.14126931307459" lon="9.797279762797523"><ele>818.6666666666667</ele><time>2026-03-28T16:16:17.973Z</time></trkpt><trkpt lat="46.14128921698245" lon="9.797177649319822"><ele>818.3333333333334</ele><time>2026-03-28T16:16:18.973Z</time></trkpt><trkpt lat="46.14132981399943" lon="9.797080128326218"><ele>818.0</ele><time>2026-03-28T16:16:19.973Z</time></trkpt><trkpt lat="46.14144144928284" lon="9.797034781778779"><ele>809.4</ele><time>2026-03-28T16:16:20.973Z</time></trkpt><trkpt lat="46.14156242407523" lon="9.797021468016037"><ele>800.8</ele><time>2026-03-28T16:16:21.973Z</time></trkpt><trkpt lat="46.141671753171806" lon="9.79700509204358"><ele>792.2</ele><time>2026-03-28T16:16:22.973Z</time></trkpt><trkpt lat="46.141748036569936" lon="9.796896498898208"><ele>783.6</ele><time>2026-03-28T16:16:24.973Z</time></trkpt><trkpt lat="46.141764960901284" lon="9.79678739430438"><ele>775.0</ele><time>2026-03-28T16:16:25.973Z</time></trkpt><trkpt lat="46.14180931202238" lon="9.796688821630019"><ele>775.0</ele><time>2026-03-28T16:16:26.973Z</time></trkpt><trkpt lat="46.1418431956868" lon="9.796577975568217"><ele>775.0</ele><time>2026-03-28T16:16:27.973Z</time></trkpt><trkpt lat="46.141924532343616" lon="9.796458324204998"><ele>775.0</ele><time>2026-03-28T16:16:29.973Z</time></trkpt><trkpt lat="46.14197875687569" lon="9.796344984560246"><ele>775.0</ele><time>2026-03-28T16:16:30.973Z</time></trkpt><trkpt lat="46.14205919915573" lon="9.796244229809513"><ele>775.0</ele><time>2026-03-28T16:16:31.973Z</time></trkpt><trkpt lat="46.142138419678794" lon="9.79615934650146"><ele>774.9999999999999</ele><time>2026-03-28T16:16:32.973Z</time></trkpt><trkpt lat="46.14221107001704" lon="9.796074027946174"><ele>775.0</ele><time>2026-03-28T16:16:33.973Z</time></trkpt><trkpt lat="46.14224916086635" lon="9.795983602495827"><ele>775.0</ele><time>2026-03-28T16:16:34.973Z</time></trkpt><trkpt lat="46.14230866090447" lon="9.79587970291275"><ele>775.0</ele><time>2026-03-28T16:16:35.973Z</time></trkpt><trkpt lat="46.14235578700499" lon="9.795779614046728"><ele>774.9999999999999</ele><time>2026-03-28T16:16:36.973Z</time></trkpt><trkpt lat="46.142386252385506" lon="9.795660754441899"><ele>775.0</ele><time>2026-03-28T16:16:38.973Z</time></trkpt><trkpt lat="46.14232308350198" lon="9.795505264785282"><ele>775.0</ele><time>2026-03-28T16:16:40.973Z</time></trkpt><trkpt lat="46.14230399668626" lon="9.795368761567882"><ele>775.0</ele><time>2026-03-28T16:16:42.973Z</time></trkpt><trkpt lat="46.14240682488695" lon="9.795373046812758"><ele>775.0</ele><time>2026-03-28T16:16:44.973Z</time></trkpt><trkpt lat="46.142447757209446" lon="9.795444592080003"><ele>775.0</ele><time>2026-03-28T16:16:45.973Z</time></trkpt><trkpt lat="46.142481220221065" lon="9.795551694472389"><ele>775.0</ele><time>2026-03-28T16:16:47.973Z</time></trkpt><trkpt lat="46.14255687413288" lon="9.795672523798816"><ele>769.6666666666666</ele><time>2026-03-28T16:16:49.973Z</time></trkpt><trkpt lat="46.14263243573277" lon="9.795769771045467"><ele>764.3333333333333</ele><time>2026-03-28T16:16:51.973Z</time></trkpt><trkpt lat="46.142692123590905" lon="9.795853242309471"><ele>759.0</ele><time>2026-03-28T16:16:54.973Z</time></trkpt><trkpt lat="46.142751564784334" lon="9.795919726549354"><ele>753.6666666666666</ele><time>2026-03-28T16:16:56.973Z</time></trkpt><trkpt lat="46.142802138150884" lon="9.795980779370092"><ele>748.3333333333333</ele><time>2026-03-28T16:16:58.973Z</time></trkpt><trkpt lat="46.14291924699301" lon="9.796029590276687"><ele>743.0</ele><time>2026-03-28T16:17:21.972Z</time></trkpt><trkpt lat="46.142967164847526" lon="9.79592021560527"><ele>743.0</ele><time>2026-03-28T16:17:43.972Z</time></trkpt><trkpt lat="46.14300823037035" lon="9.795810953993023"><ele>743.0</ele><time>2026-03-28T16:17:45.972Z</time></trkpt><trkpt lat="46.143083337637876" lon="9.795796431718388"><ele>743.0</ele><time>2026-03-28T16:17:47.973Z</time></trkpt><trkpt lat="46.143190279043324" lon="9.795767078950496"><ele>743.0</ele><time>2026-03-28T16:17:49.972Z</time></trkpt><trkpt lat="46.143255303358465" lon="9.795765207024171"><ele>743.0</ele><time>2026-03-28T16:17:50.972Z</time></trkpt><trkpt lat="46.143338059216845" lon="9.7958276277503"><ele>743.0</ele><time>2026-03-28T16:17:52.973Z</time></trkpt><trkpt lat="46.14340856124179" lon="9.795830865064776"><ele>739.1666666666666</ele><time>2026-03-28T16:17:53.973Z</time></trkpt><trkpt lat="46.143475987359054" lon="9.795798161354512"><ele>735.3333333333333</ele><time>2026-03-28T16:17:54.973Z</time></trkpt><trkpt lat="46.143544976936" lon="9.795762922127109"><ele>731.5</ele><time>2026-03-28T16:17:55.973Z</time></trkpt><trkpt lat="46.14363104794979" lon="9.795701075054826"><ele>727.6666666666666</ele><time>2026-03-28T16:17:57.972Z</time></trkpt><trkpt lat="46.14372290226742" lon="9.795606796416717"><ele>723.8333333333334</ele><time>2026-03-28T16:17:59.972Z</time></trkpt><trkpt lat="46.14380074516357" lon="9.795639192217788"><ele>720.0</ele><time>2026-03-28T16:18:01.972Z</time></trkpt><trkpt lat="46.14386753284163" lon="9.79568345041974"><ele>720.0</ele><time>2026-03-28T16:18:03.972Z</time></trkpt><trkpt lat="46.14392621209773" lon="9.795608373458865"><ele>720.0</ele><time>2026-03-28T16:18:05.972Z</time></trkpt><trkpt lat="46.14392950173278" lon="9.79550977291899"><ele>720.0</ele><time>2026-03-28T16:18:07.972Z</time></trkpt><trkpt lat="46.143974804557864" lon="9.795365205397937"><ele>720.0</ele><time>2026-03-28T16:18:09.972Z</time></trkpt><trkpt lat="46.14399851143768" lon="9.795256128402166"><ele>720.0</ele><time>2026-03-28T16:18:12.972Z</time></trkpt><trkpt lat="46.144080778397296" lon="9.795211811391065"><ele>720.0</ele><time>2026-03-28T16:18:15.972Z</time></trkpt><trkpt lat="46.14414683857083" lon="9.795222924406392"><ele>715.2</ele><time>2026-03-28T16:18:18.972Z</time></trkpt><trkpt lat="46.144240472324064" lon="9.79521417260111"><ele>710.4</ele><time>2026-03-28T16:18:21.972Z</time></trkpt><trkpt lat="46.144313478991236" lon="9.795126273511709"><ele>705.5999999999999</ele><time>2026-03-28T16:18:25.972Z</time></trkpt><trkpt lat="46.144383067147096" lon="9.794995114450327"><ele>700.8</ele><time>2026-03-28T16:18:28.972Z</time></trkpt><trkpt lat="46.144447264823114" lon="9.794913942316734"><ele>696.0</ele><time>2026-03-28T16:18:30.972Z</time></trkpt><trkpt lat="46.14451516240119" lon="9.794867790046876"><ele>696.0</ele><time>2026-03-28T16:18:32.972Z</time></trkpt><trkpt lat="46.14456327879304" lon="9.794791895992823"><ele>696.0</ele><time>2026-03-28T16:18:34.972Z</time></trkpt><trkpt lat="46.14465565088755" lon="9.794711482990719"><ele>696.0</ele><time>2026-03-28T16:18:36.972Z</time></trkpt><trkpt lat="46.144737312323294" lon="9.794629924618667"><ele>696.0</ele><time>2026-03-28T16:18:38.972Z</time></trkpt><trkpt lat="46.14480158566378" lon="9.794522363988175"><ele>696.0</ele><time>2026-03-28T16:18:40.972Z</time></trkpt><trkpt lat="46.144859961834236" lon="9.794404556251475"><ele>689.4</ele><time>2026-03-28T16:18:42.972Z</time></trkpt><trkpt lat="46.14488664219185" lon="9.794281391868061"><ele>682.8</ele><time>2026-03-28T16:18:44.972Z</time></trkpt><trkpt lat="46.1449249973919" lon="9.794159119765338"><ele>676.1999999999999</ele><time>2026-03-28T16:18:47.972Z</time></trkpt><trkpt lat="46.14495598381239" lon="9.794035032977618"><ele>669.5999999999999</ele><time>2026-03-28T16:18:49.972Z</time></trkpt><trkpt lat="46.144977015090355" lon="9.79388875515861"><ele>663.0</ele><time>2026-03-28T16:18:51.971Z</time></trkpt><trkpt lat="46.14500604679327" lon="9.793763729817249"><ele>663.0</ele><time>2026-03-28T16:18:53.971Z</time></trkpt><trkpt lat="46.14501442899517" lon="9.793633018975415"><ele>663.0</ele><time>2026-03-28T16:18:55.971Z</time></trkpt><trkpt lat="46.14506196738872" lon="9.793491867063118"><ele>663.0</ele><time>2026-03-28T16:18:57.971Z</time></trkpt><trkpt lat="46.14509842548149" lon="9.793388528722222"><ele>663.0</ele><time>2026-03-28T16:18:58.971Z</time></trkpt><trkpt lat="46.14511511603974" lon="9.793262327565149"><ele>663.0</ele><time>2026-03-28T16:19:00.971Z</time></trkpt><trkpt lat="46.14517217023671" lon="9.79319356282483"><ele>663.0</ele><time>2026-03-28T16:19:02.971Z</time></trkpt><trkpt lat="46.145238308148805" lon="9.793154170577012"><ele>663.0</ele><time>2026-03-28T16:19:05.971Z</time></trkpt><trkpt lat="46.14528505554206" lon="9.793234895308197"><ele>663.0</ele><time>2026-03-28T16:19:07.971Z</time></trkpt><trkpt lat="46.14533732132723" lon="9.793302273768916"><ele>663.0</ele><time>2026-03-28T16:19:10.971Z</time></trkpt><trkpt lat="46.145407139693525" lon="9.793353016297887"><ele>663.0</ele><time>2026-03-28T16:19:12.971Z</time></trkpt><trkpt lat="46.14546870572103" lon="9.793414755276252"><ele>663.0</ele><time>2026-03-28T16:19:14.971Z</time></trkpt><trkpt lat="46.145521372967934" lon="9.79350970714908"><ele>663.0</ele><time>2026-03-28T16:19:16.971Z</time></trkpt><trkpt lat="46.145565786099155" lon="9.79363060920421"><ele>663.0</ele><time>2026-03-28T16:19:18.971Z</time></trkpt><trkpt lat="46.14564251402736" lon="9.793717214221736"><ele>663.0</ele><time>2026-03-28T16:19:22.971Z</time></trkpt><trkpt lat="46.14572057569278" lon="9.793805972545254"><ele>663.0</ele><time>2026-03-28T16:19:24.971Z</time></trkpt><trkpt lat="46.14578339796726" lon="9.79387618448048"><ele>663.0</ele><time>2026-03-28T16:19:26.971Z</time></trkpt><trkpt lat="46.14588303422662" lon="9.793909927812901"><ele>663.0</ele><time>2026-03-28T16:19:29.971Z</time></trkpt><trkpt lat="46.14597047599427" lon="9.793974769165956"><ele>654.3333333333334</ele><time>2026-03-28T16:19:32.971Z</time></trkpt><trkpt lat="46.14607654858633" lon="9.794029301792694"><ele>645.6666666666666</ele><time>2026-03-28T16:19:34.971Z</time></trkpt><trkpt lat="46.146141858662645" lon="9.794084429837248"><ele>637.0</ele><time>2026-03-28T16:19:35.971Z</time></trkpt><trkpt lat="46.1461862557108" lon="9.794150844465298"><ele>628.3333333333333</ele><time>2026-03-28T16:19:36.971Z</time></trkpt><trkpt lat="46.14622537660756" lon="9.794227861993136"><ele>619.6666666666666</ele><time>2026-03-28T16:19:37.971Z</time></trkpt><trkpt lat="46.14628432807757" lon="9.794327343597194"><ele>611.0</ele><time>2026-03-28T16:19:39.971Z</time></trkpt><trkpt lat="46.14636042389282" lon="9.794430365940949"><ele>610.8</ele><time>2026-03-28T16:19:42.971Z</time></trkpt><trkpt lat="46.146412070348" lon="9.794527172371074"><ele>610.6</ele><time>2026-03-28T16:19:44.971Z</time></trkpt><trkpt lat="46.14647257909717" lon="9.794650550265844"><ele>610.4</ele><time>2026-03-28T16:19:46.971Z</time></trkpt><trkpt lat="46.14650949777298" lon="9.794766299630794"><ele>610.2</ele><time>2026-03-28T16:19:48.971Z</time></trkpt><trkpt lat="46.14655994390778" lon="9.79487047995042"><ele>610.0</ele><time>2026-03-28T16:19:50.971Z</time></trkpt><trkpt lat="46.14661474659759" lon="9.794988747154786"><ele>600.4</ele><time>2026-03-28T16:19:52.971Z</time></trkpt><trkpt lat="46.14670147644108" lon="9.795114953547314"><ele>590.8</ele><time>2026-03-28T16:19:54.972Z</time></trkpt><trkpt lat="46.14672234548672" lon="9.795241231157817"><ele>581.2</ele><time>2026-03-28T16:19:56.972Z</time></trkpt><trkpt lat="46.14675846044353" lon="9.795328370634627"><ele>571.6</ele><time>2026-03-28T16:19:58.971Z</time></trkpt><trkpt lat="46.14686685896558" lon="9.795379817216315"><ele>562.0</ele><time>2026-03-28T16:20:01.972Z</time></trkpt><trkpt lat="46.1469376965253" lon="9.795385684349663"><ele>560.5</ele><time>2026-03-28T16:20:02.971Z</time></trkpt><trkpt lat="46.147002015950946" lon="9.795395674162075"><ele>559.0</ele><time>2026-03-28T16:20:03.971Z</time></trkpt><trkpt lat="46.14711123390796" lon="9.795418015132336"><ele>557.5</ele><time>2026-03-28T16:20:05.971Z</time></trkpt><trkpt lat="46.14719077286622" lon="9.795411219632662"><ele>556.0</ele><time>2026-03-28T16:20:07.971Z</time></trkpt><trkpt lat="46.14726758258783" lon="9.795377925324884"><ele>554.5</ele><time>2026-03-28T16:20:09.971Z</time></trkpt><trkpt lat="46.14734923561531" lon="9.795276059559505"><ele>553.0</ele><time>2026-03-28T16:20:11.971Z</time></trkpt><trkpt lat="46.14738433786139" lon="9.795180876575518"><ele>547.1666666666667</ele><time>2026-03-28T16:20:13.971Z</time></trkpt><trkpt lat="46.147408762174585" lon="9.795090170085174"><ele>541.3333333333334</ele><time>2026-03-28T16:20:15.971Z</time></trkpt><trkpt lat="46.14747336489623" lon="9.795045100321676"><ele>535.5</ele><time>2026-03-28T16:20:17.971Z</time></trkpt><trkpt lat="46.14754750497259" lon="9.794954633370475"><ele>529.6666666666666</ele><time>2026-03-28T16:20:19.97Z</time></trkpt><trkpt lat="46.14760964135533" lon="9.794875827722313"><ele>523.8333333333333</ele><time>2026-03-28T16:20:21.97Z</time></trkpt><trkpt lat="46.14764020310938" lon="9.79478510087741"><ele>518.0</ele><time>2026-03-28T16:20:23.97Z</time></trkpt><trkpt lat="46.14761525004261" lon="9.794684134699752"><ele>518.0</ele><time>2026-03-28T16:20:25.97Z</time></trkpt><trkpt lat="46.1476361868872" lon="9.794576720551891"><ele>518.0</ele><time>2026-03-28T16:20:27.97Z</time></trkpt><trkpt lat="46.14765743919435" lon="9.794481906810974"><ele>518.0</ele><time>2026-03-28T16:20:29.97Z</time></trkpt><trkpt lat="46.14768960166123" lon="9.794386835992835"><ele>518.0</ele><time>2026-03-28T16:20:31.97Z</time></trkpt><trkpt lat="46.14770869748426" lon="9.794292677653662"><ele>518.0</ele><time>2026-03-28T16:20:33.97Z</time></trkpt><trkpt lat="46.14772191128408" lon="9.794157374440577"><ele>518.0</ele><time>2026-03-28T16:20:35.97Z</time></trkpt><trkpt lat="46.14776637727782" lon="9.793987936171304"><ele>518.5</ele><time>2026-03-28T16:20:37.97Z</time></trkpt><trkpt lat="46.14778813309593" lon="9.793877438950119"><ele>519.0</ele><time>2026-03-28T16:20:38.97Z</time></trkpt><trkpt lat="46.14780167894361" lon="9.793752483967532"><ele>519.5</ele><time>2026-03-28T16:20:39.97Z</time></trkpt><trkpt lat="46.1478182306189" lon="9.79363910795486"><ele>520.0</ele><time>2026-03-28T16:20:40.97Z</time></trkpt><trkpt lat="46.14781817327723" lon="9.793521768238405"><ele>520.5</ele><time>2026-03-28T16:20:41.97Z</time></trkpt><trkpt lat="46.1478257102306" lon="9.79341176554015"><ele>521.0</ele><time>2026-03-28T16:20:42.97Z</time></trkpt><trkpt lat="46.147842708735496" lon="9.793292384455329"><ele>521.6666666666666</ele><time>2026-03-28T16:20:43.97Z</time></trkpt><trkpt lat="46.14785650637733" lon="9.793185850363141"><ele>522.3333333333333</ele><time>2026-03-28T16:20:44.97Z</time></trkpt><trkpt lat="46.14788166565854" lon="9.793068278786603"><ele>523.0</ele><time>2026-03-28T16:20:45.97Z</time></trkpt><trkpt lat="46.14791604485438" lon="9.792956765876058"><ele>523.6666666666666</ele><time>2026-03-28T16:20:46.97Z</time></trkpt><trkpt lat="46.147926701041726" lon="9.792848584537959"><ele>524.3333333333334</ele><time>2026-03-28T16:20:47.97Z</time></trkpt><trkpt lat="46.14792963999838" lon="9.792742000987774"><ele>525.0</ele><time>2026-03-28T16:20:48.97Z</time></trkpt><trkpt lat="46.14794226379149" lon="9.792646706053073"><ele>525.0</ele><time>2026-03-28T16:20:49.97Z</time></trkpt><trkpt lat="46.14794764461373" lon="9.792500023839175"><ele>525.0</ele><time>2026-03-28T16:20:51.97Z</time></trkpt><trkpt lat="46.14800608316429" lon="9.79260407082425"><ele>525.0</ele><time>2026-03-28T16:20:53.97Z</time></trkpt><trkpt lat="46.148006931999916" lon="9.792748631334868"><ele>525.0</ele><time>2026-03-28T16:20:54.97Z</time></trkpt><trkpt lat="46.14802293529141" lon="9.792890618747933"><ele>525.0</ele><time>2026-03-28T16:20:55.97Z</time></trkpt><trkpt lat="46.1480263622224" lon="9.792996828320241"><ele>525.0</ele><time>2026-03-28T16:20:56.97Z</time></trkpt><trkpt lat="46.14805022946706" lon="9.793092060496804"><ele>525.0</ele><time>2026-03-28T16:20:58.97Z</time></trkpt><trkpt lat="46.14810623659912" lon="9.79295681976932"><ele>525.0</ele><time>2026-03-28T16:21:01.97Z</time></trkpt><trkpt lat="46.14815167327497" lon="9.792824540546949"><ele>525.0</ele><time>2026-03-28T16:21:03.97Z</time></trkpt><trkpt lat="46.14817218185788" lon="9.792692285651952"><ele>525.0</ele><time>2026-03-28T16:21:05.97Z</time></trkpt><trkpt lat="46.14819414878113" lon="9.792537341748444"><ele>515.6</ele><time>2026-03-28T16:21:07.97Z</time></trkpt><trkpt lat="46.14822347022454" lon="9.792415065090909"><ele>506.2</ele><time>2026-03-28T16:21:09.97Z</time></trkpt><trkpt lat="46.14825628179693" lon="9.792247942216251"><ele>496.79999999999995</ele><time>2026-03-28T16:21:11.97Z</time></trkpt><trkpt lat="46.14828628198691" lon="9.79216688596094"><ele>487.4</ele><time>2026-03-28T16:21:12.97Z</time></trkpt><trkpt lat="46.14832549749927" lon="9.792025985167603"><ele>478.0</ele><time>2026-03-28T16:21:14.97Z</time></trkpt><trkpt lat="46.148341156014986" lon="9.791890726657277"><ele>477.00000000000006</ele><time>2026-03-28T16:21:16.97Z</time></trkpt><trkpt lat="46.14834956011659" lon="9.791770799946265"><ele>476.0</ele><time>2026-03-28T16:21:18.97Z</time></trkpt><trkpt lat="46.148369067798136" lon="9.79165668057876"><ele>475.0</ele><time>2026-03-28T16:21:20.97Z</time></trkpt><trkpt lat="46.148441664570754" lon="9.791568777122688"><ele>474.0</ele><time>2026-03-28T16:21:22.97Z</time></trkpt><trkpt lat="46.148533648014826" lon="9.791525953257318"><ele>473.00000000000006</ele><time>2026-03-28T16:21:24.97Z</time></trkpt><trkpt lat="46.148589969694555" lon="9.791470076531192"><ele>472.0</ele><time>2026-03-28T16:21:26.97Z</time></trkpt><trkpt lat="46.14864732611849" lon="9.791422502460403"><ele>472.00000000000006</ele><time>2026-03-28T16:21:28.97Z</time></trkpt><trkpt lat="46.148704825883826" lon="9.791383409070383"><ele>472.0</ele><time>2026-03-28T16:21:30.97Z</time></trkpt><trkpt lat="46.14877538580182" lon="9.791271042018582"><ele>472.0</ele><time>2026-03-28T16:21:59.971Z</time></trkpt><trkpt lat="46.14884122730451" lon="9.791273849590572"><ele>472.0</ele><time>2026-03-28T16:22:32.969Z</time></trkpt><trkpt lat="46.148931291006704" lon="9.791305723111568"><ele>472.00000000000006</ele><time>2026-03-28T16:22:35.969Z</time></trkpt><trkpt lat="46.14899627400658" lon="9.791297299916598"><ele>472.0</ele><time>2026-03-28T16:22:38.969Z</time></trkpt><trkpt lat="46.148992001515076" lon="9.79117766219787"><ele>472.00000000000006</ele><time>2026-03-28T16:22:45.969Z</time></trkpt><trkpt lat="46.148978791640246" lon="9.791070568275153"><ele>472.0</ele><time>2026-03-28T16:22:47.969Z</time></trkpt><trkpt lat="46.1489731544926" lon="9.790973893366035"><ele>472.0</ele><time>2026-03-28T16:22:49.969Z</time></trkpt><trkpt lat="46.14894317352217" lon="9.790839161626344"><ele>472.0</ele><time>2026-03-28T16:22:51.969Z</time></trkpt><trkpt lat="46.14890528335006" lon="9.7907159190958"><ele>472.00000000000006</ele><time>2026-03-28T16:22:53.969Z</time></trkpt><trkpt lat="46.1488859283481" lon="9.790594931778063"><ele>472.0</ele><time>2026-03-28T16:22:55.969Z</time></trkpt><trkpt lat="46.14884289645691" lon="9.790468661895604"><ele>470.6</ele><time>2026-03-28T16:22:57.969Z</time></trkpt><trkpt lat="46.14882046059567" lon="9.790370824410635"><ele>469.20000000000005</ele><time>2026-03-28T16:22:59.969Z</time></trkpt><trkpt lat="46.14882896125487" lon="9.790251954021455"><ele>467.8</ele><time>2026-03-28T16:23:01.969Z</time></trkpt><trkpt lat="46.14877053541943" lon="9.79015618758124"><ele>466.4</ele><time>2026-03-28T16:23:04.969Z</time></trkpt><trkpt lat="46.14866805683075" lon="9.79011285214477"><ele>465.0</ele><time>2026-03-28T16:23:06.969Z</time></trkpt><trkpt lat="46.14855567689079" lon="9.790059577299216"><ele>467.4</ele><time>2026-03-28T16:23:08.969Z</time></trkpt><trkpt lat="46.14849155104028" lon="9.79002191612239"><ele>469.8</ele><time>2026-03-28T16:23:09.969Z</time></trkpt><trkpt lat="46.14838449304936" lon="9.789916664338461"><ele>472.20000000000005</ele><time>2026-03-28T16:23:11.969Z</time></trkpt><trkpt lat="46.1482793423759" lon="9.789830806403025"><ele>474.6</ele><time>2026-03-28T16:23:13.969Z</time></trkpt><trkpt lat="46.14822914064043" lon="9.789755255925682"><ele>477.0</ele><time>2026-03-28T16:23:14.969Z</time></trkpt><trkpt lat="46.14818134537431" lon="9.789654809656424"><ele>477.0</ele><time>2026-03-28T16:23:15.969Z</time></trkpt><trkpt lat="46.14812462257653" lon="9.78956987563244"><ele>477.00000000000006</ele><time>2026-03-28T16:23:16.969Z</time></trkpt><trkpt lat="46.14806238883129" lon="9.789496575960795"><ele>477.00000000000006</ele><time>2026-03-28T16:23:17.969Z</time></trkpt><trkpt lat="46.147991635272305" lon="9.789430224760316"><ele>477.0</ele><time>2026-03-28T16:23:18.969Z</time></trkpt><trkpt lat="46.14790954919085" lon="9.789307450494329"><ele>477.0</ele><time>2026-03-28T16:23:19.969Z</time></trkpt><trkpt lat="46.14784818627547" lon="9.789205011792175"><ele>471.5</ele><time>2026-03-28T16:23:20.969Z</time></trkpt><trkpt lat="46.1477769429266" lon="9.789135004790177"><ele>466.0</ele><time>2026-03-28T16:23:21.969Z</time></trkpt><trkpt lat="46.14770255593356" lon="9.789068197617816"><ele>460.5</ele><time>2026-03-28T16:23:22.969Z</time></trkpt><trkpt lat="46.14762018722199" lon="9.7890199043717"><ele>455.0</ele><time>2026-03-28T16:23:23.969Z</time></trkpt><trkpt lat="46.14753461723851" lon="9.788970078345791"><ele>449.5</ele><time>2026-03-28T16:23:24.969Z</time></trkpt><trkpt lat="46.14746493098196" lon="9.788930187696765"><ele>444.0</ele><time>2026-03-28T16:23:25.969Z</time></trkpt><trkpt lat="46.14737048704955" lon="9.788890032313775"><ele>444.0</ele><time>2026-03-28T16:23:27.969Z</time></trkpt><trkpt lat="46.14732468927528" lon="9.788765232220102"><ele>444.0</ele><time>2026-03-28T16:23:29.969Z</time></trkpt><trkpt lat="46.14732791990037" lon="9.78865740301328"><ele>444.0</ele><time>2026-03-28T16:23:31.969Z</time></trkpt><trkpt lat="46.14728441043951" lon="9.788584324690056"><ele>444.0</ele><time>2026-03-28T16:23:34.969Z</time></trkpt><trkpt lat="46.14723714111783" lon="9.788474019152694"><ele>444.0</ele><time>2026-03-28T16:23:37.969Z</time></trkpt><trkpt lat="46.147165908996" lon="9.788331598594205"><ele>440.6666666666667</ele><time>2026-03-28T16:23:39.969Z</time></trkpt><trkpt lat="46.14712528656819" lon="9.788229443673307"><ele>437.33333333333337</ele><time>2026-03-28T16:23:40.968Z</time></trkpt><trkpt lat="46.147094670414106" lon="9.788149120858742"><ele>434.0</ele><time>2026-03-28T16:23:41.968Z</time></trkpt><trkpt lat="46.147023423766" lon="9.788033403656286"><ele>430.6666666666667</ele><time>2026-03-28T16:23:43.968Z</time></trkpt><trkpt lat="46.1469547629889" lon="9.78791566210114"><ele>427.33333333333337</ele><time>2026-03-28T16:23:45.968Z</time></trkpt><trkpt lat="46.14696802423947" lon="9.787791458940294"><ele>424.0</ele><time>2026-03-28T16:23:47.968Z</time></trkpt><trkpt lat="46.147045330267574" lon="9.787765688827685"><ele>424.0</ele><time>2026-03-28T16:23:49.968Z</time></trkpt><trkpt lat="46.147124749590446" lon="9.787832791962789"><ele>424.0</ele><time>2026-03-28T16:23:53.968Z</time></trkpt><trkpt lat="46.147207731385464" lon="9.787811469005186"><ele>424.0</ele><time>2026-03-28T16:23:55.968Z</time></trkpt><trkpt lat="46.14735008200754" lon="9.787764300022834"><ele>424.0</ele><time>2026-03-28T16:23:57.968Z</time></trkpt><trkpt lat="46.147417438028455" lon="9.787748207882002"><ele>424.0</ele><time>2026-03-28T16:23:58.968Z</time></trkpt><trkpt lat="46.147493489611165" lon="9.787705125963377"><ele>419.50000000000006</ele><time>2026-03-28T16:24:02.968Z</time></trkpt><trkpt lat="46.14758111472306" lon="9.787664012510007"><ele>415.0</ele><time>2026-03-28T16:24:04.97Z</time></trkpt><trkpt lat="46.14764399879391" lon="9.787646664757789"><ele>410.5</ele><time>2026-03-28T16:24:05.97Z</time></trkpt><trkpt lat="46.14770643107986" lon="9.787620007319948"><ele>406.0</ele><time>2026-03-28T16:24:06.97Z</time></trkpt><trkpt lat="46.14777042408267" lon="9.78764188654584"><ele>401.50000000000006</ele><time>2026-03-28T16:24:08.969Z</time></trkpt><trkpt lat="46.14787811448965" lon="9.787575567270055"><ele>397.0</ele><time>2026-03-28T16:24:10.97Z</time></trkpt><trkpt lat="46.147958184448356" lon="9.78754279876096"><ele>397.0</ele><time>2026-03-28T16:24:11.969Z</time></trkpt><trkpt lat="46.14801527943774" lon="9.787489329767894"><ele>397.0</ele><time>2026-03-28T16:24:12.969Z</time></trkpt><trkpt lat="46.1480794114228" lon="9.787363871788862"><ele>397.0</ele><time>2026-03-28T16:24:14.969Z</time></trkpt><trkpt lat="46.14814002094296" lon="9.78723669943707"><ele>397.0</ele><time>2026-03-28T16:24:16.97Z</time></trkpt><trkpt lat="46.14818277040114" lon="9.787142718797949"><ele>397.0</ele><time>2026-03-28T16:24:17.97Z</time></trkpt><trkpt lat="46.1482455889805" lon="9.787048008681698"><ele>394.1666666666667</ele><time>2026-03-28T16:24:19.97Z</time></trkpt><trkpt lat="46.148304330095094" lon="9.786929245573823"><ele>391.33333333333337</ele><time>2026-03-28T16:24:21.97Z</time></trkpt><trkpt lat="46.14833778363034" lon="9.786820887749244"><ele>388.5</ele><time>2026-03-28T16:24:23.969Z</time></trkpt><trkpt lat="46.14838050827415" lon="9.786722164034222"><ele>385.6666666666667</ele><time>2026-03-28T16:24:26.969Z</time></trkpt><trkpt lat="46.14844262086076" lon="9.786633828199758"><ele>382.83333333333337</ele><time>2026-03-28T16:24:29.969Z</time></trkpt><trkpt lat="46.14851079657695" lon="9.78664529013678"><ele>380.0</ele><time>2026-03-28T16:24:31.969Z</time></trkpt><trkpt lat="46.14858006225504" lon="9.786618366195949"><ele>379.83333333333337</ele><time>2026-03-28T16:24:32.969Z</time></trkpt><trkpt lat="46.14864696874221" lon="9.786552434700484"><ele>379.6666666666667</ele><time>2026-03-28T16:24:33.969Z</time></trkpt><trkpt lat="46.14870937355592" lon="9.786449143515782"><ele>379.5</ele><time>2026-03-28T16:24:35.969Z</time></trkpt><trkpt lat="46.1487764351422" lon="9.786439380887124"><ele>379.3333333333333</ele><time>2026-03-28T16:24:37.969Z</time></trkpt><trkpt lat="46.14886003026791" lon="9.786388168356122"><ele>379.16666666666663</ele><time>2026-03-28T16:24:43.969Z</time></trkpt><trkpt lat="46.14890324305382" lon="9.786305919497831"><ele>379.0</ele><time>2026-03-28T16:24:45.969Z</time></trkpt><trkpt lat="46.148971894703536" lon="9.786285902384227"><ele>375.0</ele><time>2026-03-28T16:24:47.969Z</time></trkpt><trkpt lat="46.1490512400447" lon="9.78626216778406"><ele>371.0</ele><time>2026-03-28T16:24:50.969Z</time></trkpt><trkpt lat="46.14914155302441" lon="9.786232517106658"><ele>367.0</ele><time>2026-03-28T16:24:53.969Z</time></trkpt><trkpt lat="46.14914221146118" lon="9.786082041568609"><ele>363.0</ele><time>2026-03-28T16:24:56.969Z</time></trkpt><trkpt lat="46.149100700185315" lon="9.785981487802696"><ele>359.0</ele><time>2026-03-28T16:24:58.969Z</time></trkpt><trkpt lat="46.14905662946298" lon="9.785839907272933"><ele>362.2</ele><time>2026-03-28T16:25:00.969Z</time></trkpt><trkpt lat="46.14903320971804" lon="9.785692170869336"><ele>365.4</ele><time>2026-03-28T16:25:02.969Z</time></trkpt><trkpt lat="46.149016739750834" lon="9.78552599476193"><ele>368.6</ele><time>2026-03-28T16:25:04.969Z</time></trkpt><trkpt lat="46.14899843421405" lon="9.785405038080679"><ele>371.8</ele><time>2026-03-28T16:25:05.969Z</time></trkpt><trkpt lat="46.14896413254079" lon="9.78530106218572"><ele>375.0</ele><time>2026-03-28T16:25:06.969Z</time></trkpt><trkpt lat="46.148949685034545" lon="9.7851560755507"><ele>375.6</ele><time>2026-03-28T16:25:07.969Z</time></trkpt><trkpt lat="46.14892905805781" lon="9.785045460103646"><ele>376.2</ele><time>2026-03-28T16:25:08.969Z</time></trkpt><trkpt lat="46.14888963665011" lon="9.784878025073677"><ele>376.79999999999995</ele><time>2026-03-28T16:25:10.969Z</time></trkpt><trkpt lat="46.148932163946434" lon="9.784699338581486"><ele>377.4</ele><time>2026-03-28T16:25:12.969Z</time></trkpt><trkpt lat="46.14898900698155" lon="9.784565221281255"><ele>378.0</ele><time>2026-03-28T16:25:14.969Z</time></trkpt><trkpt lat="46.14905917009769" lon="9.78448160384998"><ele>373.2</ele><time>2026-03-28T16:25:16.969Z</time></trkpt><trkpt lat="46.149172352481614" lon="9.78441347122562"><ele>368.4</ele><time>2026-03-28T16:25:18.969Z</time></trkpt><trkpt lat="46.149236489594315" lon="9.78427636676347"><ele>363.59999999999997</ele><time>2026-03-28T16:25:20.969Z</time></trkpt><trkpt lat="46.1493117770902" lon="9.784148950448241"><ele>358.79999999999995</ele><time>2026-03-28T16:25:22.969Z</time></trkpt><trkpt lat="46.14937401388369" lon="9.784128932679685"><ele>354.0</ele><time>2026-03-28T16:25:23.969Z</time></trkpt><trkpt lat="46.14945761062412" lon="9.783981510185244"><ele>354.0</ele><time>2026-03-28T16:25:25.969Z</time></trkpt><trkpt lat="46.149507409372134" lon="9.783893257557308"><ele>354.0</ele><time>2026-03-28T16:25:26.969Z</time></trkpt><trkpt lat="46.149556641788216" lon="9.783754752961487"><ele>354.0</ele><time>2026-03-28T16:25:27.969Z</time></trkpt><trkpt lat="46.149601355558815" lon="9.783661289704877"><ele>354.0</ele><time>2026-03-28T16:25:28.969Z</time></trkpt><trkpt lat="46.149611246503085" lon="9.783548187602097"><ele>354.0</ele><time>2026-03-28T16:25:39.969Z</time></trkpt><trkpt lat="46.149692091664384" lon="9.783487838158639"><ele>354.0</ele><time>2026-03-28T16:25:57.968Z</time></trkpt><trkpt lat="46.14973030334873" lon="9.78340494390558"><ele>357.0</ele><time>2026-03-28T16:26:10.969Z</time></trkpt><trkpt lat="46.14977146049692" lon="9.783328413472589"><ele>360.0</ele><time>2026-03-28T16:26:12.969Z</time></trkpt><trkpt lat="46.14981936140917" lon="9.783254813075212"><ele>363.0</ele><time>2026-03-28T16:26:19.969Z</time></trkpt><trkpt lat="46.149852599661386" lon="9.783153467060757"><ele>366.0</ele><time>2026-03-28T16:26:23.969Z</time></trkpt><trkpt lat="46.14987189552862" lon="9.783016020929933"><ele>369.0</ele><time>2026-03-28T16:26:26.969Z</time></trkpt><trkpt lat="46.14985108696736" lon="9.782924522351973"><ele>372.0</ele><time>2026-03-28T16:26:28.969Z</time></trkpt><trkpt lat="46.14979745925477" lon="9.782833997764024"><ele>372.00000000000006</ele><time>2026-03-28T16:26:31.969Z</time></trkpt><trkpt lat="46.14979676843463" lon="9.78272628447445"><ele>372.0</ele><time>2026-03-28T16:26:34.969Z</time></trkpt><trkpt lat="46.149798133127426" lon="9.782629111872373"><ele>372.0</ele><time>2026-03-28T16:26:37.969Z</time></trkpt><trkpt lat="46.14978495643144" lon="9.78253464520844"><ele>372.0</ele><time>2026-03-28T16:26:39.969Z</time></trkpt><trkpt lat="46.14978892608508" lon="9.782437711966743"><ele>372.0</ele><time>2026-03-28T16:26:42.968Z</time></trkpt><trkpt lat="46.14976501142162" lon="9.782294334333184"><ele>372.00000000000006</ele><time>2026-03-28T16:27:02.968Z</time></trkpt><trkpt lat="46.14979172039991" lon="9.782205141254776"><ele>372.0</ele><time>2026-03-28T16:27:34.968Z</time></trkpt><trkpt lat="46.14981429737841" lon="9.782085397955845"><ele>367.8571428571429</ele><time>2026-03-28T16:27:37.968Z</time></trkpt><trkpt lat="46.149875484506545" lon="9.782052443342845"><ele>363.7142857142857</ele><time>2026-03-28T16:27:39.968Z</time></trkpt><trkpt lat="46.14990288435334" lon="9.781969858936824"><ele>359.57142857142856</ele><time>2026-03-28T16:27:41.968Z</time></trkpt><trkpt lat="46.149967480266454" lon="9.781934787854652"><ele>355.42857142857144</ele><time>2026-03-28T16:27:44.968Z</time></trkpt><trkpt lat="46.15003757567579" lon="9.781911857371627"><ele>351.2857142857143</ele><time>2026-03-28T16:27:46.968Z</time></trkpt><trkpt lat="46.1501050857853" lon="9.781900048666161"><ele>347.14285714285717</ele><time>2026-03-28T16:27:48.968Z</time></trkpt><trkpt lat="46.150189439826974" lon="9.781890732420948"><ele>343.0</ele><time>2026-03-28T16:27:50.968Z</time></trkpt><trkpt lat="46.150280565223625" lon="9.781863413912205"><ele>340.0</ele><time>2026-03-28T16:27:52.968Z</time></trkpt><trkpt lat="46.150344300407035" lon="9.781758379504709"><ele>337.0</ele><time>2026-03-28T16:27:55.968Z</time></trkpt><trkpt lat="46.15038013070698" lon="9.781665393499596"><ele>334.0</ele><time>2026-03-28T16:27:57.968Z</time></trkpt><trkpt lat="46.150312358908785" lon="9.78157563397327"><ele>331.0</ele><time>2026-03-28T16:28:00.967Z</time></trkpt><trkpt lat="46.15026993384173" lon="9.78150344811095"><ele>328.0</ele><time>2026-03-28T16:28:04.967Z</time></trkpt><trkpt lat="46.15022132276598" lon="9.781418357369015"><ele>325.0</ele><time>2026-03-28T16:28:07.967Z</time></trkpt><trkpt lat="46.150278579105475" lon="9.781319661536859"><ele>325.0</ele><time>2026-03-28T16:28:10.967Z</time></trkpt><trkpt lat="46.15029867340914" lon="9.781223119531223"><ele>325.0</ele><time>2026-03-28T16:28:14.967Z</time></trkpt><trkpt lat="46.15035324537813" lon="9.781123007974799"><ele>325.0</ele><time>2026-03-28T16:28:16.969Z</time></trkpt><trkpt lat="46.1504436168396" lon="9.781035248823326"><ele>325.0</ele><time>2026-03-28T16:28:18.968Z</time></trkpt><trkpt lat="46.150525436853854" lon="9.780945497946801"><ele>325.0</ele><time>2026-03-28T16:28:20.968Z</time></trkpt><trkpt lat="46.15058249827681" lon="9.78086501948292"><ele>320.3333333333333</ele><time>2026-03-28T16:28:22.968Z</time></trkpt><trkpt lat="46.15065162929682" lon="9.78077895377212"><ele>315.66666666666663</ele><time>2026-03-28T16:28:25.969Z</time></trkpt><trkpt lat="46.15070368837834" lon="9.780710933633546"><ele>311.0</ele><time>2026-03-28T16:28:27.969Z</time></trkpt><trkpt lat="46.15078181545858" lon="9.78065207046319"><ele>306.3333333333333</ele><time>2026-03-28T16:28:29.968Z</time></trkpt><trkpt lat="46.150848393301416" lon="9.780601648924053"><ele>301.6666666666667</ele><time>2026-03-28T16:28:31.968Z</time></trkpt><trkpt lat="46.15092083873896" lon="9.780572099745449"><ele>297.0</ele><time>2026-03-28T16:28:33.968Z</time></trkpt><trkpt lat="46.15100204788463" lon="9.780514083403862"><ele>293.8333333333333</ele><time>2026-03-28T16:28:35.968Z</time></trkpt><trkpt lat="46.15107604579907" lon="9.780477954135447"><ele>290.6666666666667</ele><time>2026-03-28T16:28:37.968Z</time></trkpt><trkpt lat="46.15113566588604" lon="9.780440922460704"><ele>287.5</ele><time>2026-03-28T16:28:39.968Z</time></trkpt><trkpt lat="46.15123824952964" lon="9.780393891228773"><ele>284.33333333333337</ele><time>2026-03-28T16:28:42.968Z</time></trkpt><trkpt lat="46.151306186378456" lon="9.780343495215712"><ele>281.1666666666667</ele><time>2026-03-28T16:28:44.968Z</time></trkpt><trkpt lat="46.15136815864179" lon="9.780323846918774"><ele>278.0</ele><time>2026-03-28T16:28:47.968Z</time></trkpt><trkpt lat="46.15138843720252" lon="9.78023235203673"><ele>277.0</ele><time>2026-03-28T16:28:59.968Z</time></trkpt><trkpt lat="46.15139285890032" lon="9.780096538257796"><ele>276.0</ele><time>2026-03-28T16:29:09.968Z</time></trkpt><trkpt lat="46.15133888941101" lon="9.779993494131983"><ele>275.0</ele><time>2026-03-28T16:29:12.968Z</time></trkpt><trkpt lat="46.15123003983047" lon="9.779943387209993"><ele>274.0</ele><time>2026-03-28T16:29:14.968Z</time></trkpt><trkpt lat="46.151166786518" lon="9.779931225763384"><ele>273.0</ele><time>2026-03-28T16:29:15.968Z</time></trkpt><trkpt lat="46.151089910189015" lon="9.779939804082936"><ele>272.0</ele><time>2026-03-28T16:29:16.968Z</time></trkpt><trkpt lat="46.15101292799813" lon="9.779952395094602"><ele>272.0</ele><time>2026-03-28T16:29:17.968Z</time></trkpt><trkpt lat="46.15092632091524" lon="9.77995295320125"><ele>272.0</ele><time>2026-03-28T16:29:18.968Z</time></trkpt><trkpt lat="46.150863208259054" lon="9.779957246125965"><ele>272.0</ele><time>2026-03-28T16:29:19.968Z</time></trkpt><trkpt lat="46.15080049129574" lon="9.77996523142962"><ele>272.0</ele><time>2026-03-28T16:29:20.968Z</time></trkpt><trkpt lat="46.15068662051964" lon="9.779971908418888"><ele>272.0</ele><time>2026-03-28T16:29:22.968Z</time></trkpt><trkpt lat="46.15062380676239" lon="9.779985140999807"><ele>272.0</ele><time>2026-03-28T16:29:23.968Z</time></trkpt><trkpt lat="46.150561539066466" lon="9.780001461897774"><ele>273.0</ele><time>2026-03-28T16:29:24.968Z</time></trkpt><trkpt lat="46.15043609052862" lon="9.780017956399051"><ele>274.0</ele><time>2026-03-28T16:29:26.968Z</time></trkpt><trkpt lat="46.15036865898026" lon="9.780019120870998"><ele>275.0</ele><time>2026-03-28T16:29:27.968Z</time></trkpt><trkpt lat="46.15024141857501" lon="9.780038038160823"><ele>276.0</ele><time>2026-03-28T16:29:29.968Z</time></trkpt><trkpt lat="46.15015189527848" lon="9.780058995329465"><ele>277.0</ele><time>2026-03-28T16:29:31.968Z</time></trkpt><trkpt lat="46.15005627088538" lon="9.78005302075288"><ele>277.0</ele><time>2026-03-28T16:29:33.967Z</time></trkpt><trkpt lat="46.149972824661745" lon="9.779987273889972"><ele>277.0</ele><time>2026-03-28T16:29:35.967Z</time></trkpt><trkpt lat="46.14994019849467" lon="9.779899955974658"><ele>277.0</ele><time>2026-03-28T16:30:02.967Z</time></trkpt><trkpt lat="46.14991555316332" lon="9.779763129616455"><ele>277.0</ele><time>2026-03-28T16:30:08.967Z</time></trkpt><trkpt lat="46.14987897612505" lon="9.779646348499861"><ele>277.0</ele><time>2026-03-28T16:30:11.968Z</time></trkpt><trkpt lat="46.14986042378675" lon="9.7795520577373"><ele>277.0</ele><time>2026-03-28T16:30:13.968Z</time></trkpt><trkpt lat="46.14983543227647" lon="9.779449179827996"><ele>283.7142857142857</ele><time>2026-03-28T16:30:16.968Z</time></trkpt><trkpt lat="46.14979523495719" lon="9.779357276796338"><ele>290.4285714285714</ele><time>2026-03-28T16:30:19.968Z</time></trkpt><trkpt lat="46.14974432854388" lon="9.779266032995341"><ele>297.1428571428571</ele><time>2026-03-28T16:30:22.969Z</time></trkpt><trkpt lat="46.149703145711804" lon="9.779186628382464"><ele>303.85714285714283</ele><time>2026-03-28T16:30:26.97Z</time></trkpt><trkpt lat="46.14968234264243" lon="9.779094642662052"><ele>310.57142857142856</ele><time>2026-03-28T16:30:35.97Z</time></trkpt><trkpt lat="46.14965789670026" lon="9.778999970865597"><ele>317.2857142857143</ele><time>2026-03-28T16:30:41.97Z</time></trkpt><trkpt lat="46.14963110145654" lon="9.778901340143292"><ele>324.0</ele><time>2026-03-28T16:31:04.969Z</time></trkpt><trkpt lat="46.14963474829693" lon="9.778786229856138"><ele>324.0</ele><time>2026-03-28T16:31:23.969Z</time></trkpt><trkpt lat="46.14960172747034" lon="9.778672590653033"><ele>324.0</ele><time>2026-03-28T16:31:27.969Z</time></trkpt><trkpt lat="46.14963162327922" lon="9.778583787484436"><ele>324.0</ele><time>2026-03-28T16:31:31.969Z</time></trkpt><trkpt lat="46.14967156773581" lon="9.778472275203809"><ele>324.0</ele><time>2026-03-28T16:31:38.969Z</time></trkpt><trkpt lat="46.14968401426907" lon="9.778372705745808"><ele>324.0</ele><time>2026-03-28T16:31:45.969Z</time></trkpt><trkpt lat="46.14973479603516" lon="9.778289807202562"><ele>324.0</ele><time>2026-03-28T16:31:48.969Z</time></trkpt><trkpt lat="46.149774671286345" lon="9.778202603596984"><ele>323.3333333333333</ele><time>2026-03-28T16:31:50.969Z</time></trkpt><trkpt lat="46.149828511326284" lon="9.77810308144902"><ele>322.6666666666667</ele><time>2026-03-28T16:31:52.969Z</time></trkpt><trkpt lat="46.149880006166356" lon="9.7780443041787"><ele>322.0</ele><time>2026-03-28T16:31:54.969Z</time></trkpt><trkpt lat="46.1499352997201" lon="9.77793822675062"><ele>321.33333333333337</ele><time>2026-03-28T16:31:57.969Z</time></trkpt><trkpt lat="46.14998420165213" lon="9.777839534613971"><ele>320.6666666666667</ele><time>2026-03-28T16:32:00.969Z</time></trkpt><trkpt lat="46.15004086502512" lon="9.777755516083651"><ele>320.0</ele><time>2026-03-28T16:32:03.969Z</time></trkpt><trkpt lat="46.15011577818055" lon="9.777700227764246"><ele>313.7142857142857</ele><time>2026-03-28T16:32:06.969Z</time></trkpt><trkpt lat="46.15017088223921" lon="9.777638197232012"><ele>307.42857142857144</ele><time>2026-03-28T16:32:09.969Z</time></trkpt><trkpt lat="46.15022619257857" lon="9.777544859244033"><ele>301.14285714285717</ele><time>2026-03-28T16:32:12.969Z</time></trkpt><trkpt lat="46.15027082949273" lon="9.777479461978801"><ele>294.8571428571429</ele><time>2026-03-28T16:32:14.969Z</time></trkpt><trkpt lat="46.150275188745844" lon="9.777371547066007"><ele>288.5714285714286</ele><time>2026-03-28T16:32:17.969Z</time></trkpt><trkpt lat="46.150258967446845" lon="9.77726544999297"><ele>282.2857142857143</ele><time>2026-03-28T16:32:19.969Z</time></trkpt><trkpt lat="46.15025176319538" lon="9.777173186525761"><ele>276.0</ele><time>2026-03-28T16:32:20.969Z</time></trkpt><trkpt lat="46.15016505495258" lon="9.777169195214466"><ele>276.0</ele><time>2026-03-28T16:32:30.969Z</time></trkpt><trkpt lat="46.1500686627869" lon="9.777194653427104"><ele>276.0</ele><time>2026-03-28T16:32:32.969Z</time></trkpt><trkpt lat="46.149958632045006" lon="9.777191403250205"><ele>276.0</ele><time>2026-03-28T16:32:34.969Z</time></trkpt><trkpt lat="46.14989309632015" lon="9.777221166686711"><ele>276.0</ele><time>2026-03-28T16:32:36.969Z</time></trkpt><trkpt lat="46.149918739145896" lon="9.777355228197262"><ele>276.0</ele><time>2026-03-28T16:32:39.97Z</time></trkpt><trkpt lat="46.14988400302124" lon="9.777260312698681"><ele>276.0</ele><time>2026-03-28T16:32:42.969Z</time></trkpt><trkpt lat="46.14988628356804" lon="9.777128982303203"><ele>276.25</ele><time>2026-03-28T16:32:44.969Z</time></trkpt><trkpt lat="46.14986683293" lon="9.776980592108385"><ele>276.5</ele><time>2026-03-28T16:32:46.969Z</time></trkpt><trkpt lat="46.14989319891898" lon="9.776814296126023"><ele>276.75</ele><time>2026-03-28T16:32:48.969Z</time></trkpt><trkpt lat="46.149918783954284" lon="9.776681770821966"><ele>277.0</ele><time>2026-03-28T16:32:50.969Z</time></trkpt><trkpt lat="46.14986036591214" lon="9.776507545382454"><ele>282.5</ele><time>2026-03-28T16:32:52.969Z</time></trkpt><trkpt lat="46.14981339004516" lon="9.776437683011947"><ele>288.0</ele><time>2026-03-28T16:32:53.969Z</time></trkpt><trkpt lat="46.14976458245052" lon="9.77636600501622"><ele>293.5</ele><time>2026-03-28T16:32:54.969Z</time></trkpt><trkpt lat="46.14967553733414" lon="9.77623042389628"><ele>299.0</ele><time>2026-03-28T16:32:56.969Z</time></trkpt><trkpt lat="46.14961519076389" lon="9.776178613501939"><ele>304.5</ele><time>2026-03-28T16:32:57.969Z</time></trkpt><trkpt lat="46.14955289383347" lon="9.776148870778304"><ele>310.0</ele><time>2026-03-28T16:32:58.969Z</time></trkpt><trkpt lat="46.1494683136525" lon="9.776124255930243"><ele>310.0</ele><time>2026-03-28T16:33:00.969Z</time></trkpt><trkpt lat="46.149412994142786" lon="9.776047254716163"><ele>310.0</ele><time>2026-03-28T16:33:03.969Z</time></trkpt><trkpt lat="46.149399711880655" lon="9.775927406760474"><ele>310.0</ele><time>2026-03-28T16:33:05.969Z</time></trkpt><trkpt lat="46.149372920033024" lon="9.775787595104731"><ele>310.0</ele><time>2026-03-28T16:33:07.969Z</time></trkpt><trkpt lat="46.14936677138073" lon="9.775690602268549"><ele>310.0</ele><time>2026-03-28T16:33:08.969Z</time></trkpt><trkpt lat="46.14935179825791" lon="9.775541630049249"><ele>310.0</ele><time>2026-03-28T16:33:10.969Z</time></trkpt><trkpt lat="46.149335988641035" lon="9.775416287185347"><ele>308.0</ele><time>2026-03-28T16:33:12.969Z</time></trkpt><trkpt lat="46.149309740464616" lon="9.775267057776551"><ele>306.0</ele><time>2026-03-28T16:33:14.969Z</time></trkpt><trkpt lat="46.14929401567646" lon="9.775101858734015"><ele>304.0</ele><time>2026-03-28T16:33:16.969Z</time></trkpt><trkpt lat="46.14926850107082" lon="9.774960060533362"><ele>302.0</ele><time>2026-03-28T16:33:18.969Z</time></trkpt><trkpt lat="46.14923375249868" lon="9.774852493279255"><ele>300.0</ele><time>2026-03-28T16:33:20.969Z</time></trkpt><trkpt lat="46.149211143853265" lon="9.774767504034168"><ele>298.0</ele><time>2026-03-28T16:33:22.969Z</time></trkpt><trkpt lat="46.149204115527745" lon="9.774673537746272"><ele>296.0</ele><time>2026-03-28T16:33:24.969Z</time></trkpt><trkpt lat="46.14916518035481" lon="9.774539349773452"><ele>294.0</ele><time>2026-03-28T16:33:27.969Z</time></trkpt><trkpt lat="46.149124060578735" lon="9.774455299272054"><ele>292.0</ele><time>2026-03-28T16:33:29.969Z</time></trkpt><trkpt lat="46.14910168140196" lon="9.774344432110636"><ele>290.0</ele><time>2026-03-28T16:33:31.969Z</time></trkpt><trkpt lat="46.14907327651449" lon="9.77424700332028"><ele>288.0</ele><time>2026-03-28T16:33:33.969Z</time></trkpt><trkpt lat="46.14904406698101" lon="9.774144138515025"><ele>294.6666666666667</ele><time>2026-03-28T16:33:36.969Z</time></trkpt><trkpt lat="46.148987720116665" lon="9.774059990311073"><ele>301.3333333333333</ele><time>2026-03-28T16:33:38.969Z</time></trkpt><trkpt lat="46.148946845249455" lon="9.773976033716288"><ele>308.0</ele><time>2026-03-28T16:33:40.969Z</time></trkpt><trkpt lat="46.14889320899906" lon="9.773876517084398"><ele>314.66666666666663</ele><time>2026-03-28T16:33:43.969Z</time></trkpt><trkpt lat="46.14885045683608" lon="9.773787468039068"><ele>321.3333333333333</ele><time>2026-03-28T16:33:45.969Z</time></trkpt><trkpt lat="46.148802261520494" lon="9.773682896230454"><ele>328.0</ele><time>2026-03-28T16:33:48.969Z</time></trkpt><trkpt lat="46.14875972911763" lon="9.773609087177494"><ele>328.0</ele><time>2026-03-28T16:33:51.968Z</time></trkpt><trkpt lat="46.1486701094482" lon="9.773462562573702"><ele>328.0</ele><time>2026-03-28T16:34:33.968Z</time></trkpt><trkpt lat="46.14876335417921" lon="9.773531146157296"><ele>328.0</ele><time>2026-03-28T16:34:37.97Z</time></trkpt><trkpt lat="46.148787606473874" lon="9.773615557147053"><ele>328.0</ele><time>2026-03-28T16:34:38.969Z</time></trkpt><trkpt lat="46.14880887221257" lon="9.77373682015028"><ele>328.0</ele><time>2026-03-28T16:34:40.97Z</time></trkpt><trkpt lat="46.148860558426755" lon="9.77386317671645"><ele>328.0</ele><time>2026-03-28T16:34:42.969Z</time></trkpt><trkpt lat="46.14890851251935" lon="9.773977460026417"><ele>328.0</ele><time>2026-03-28T16:34:44.969Z</time></trkpt><trkpt lat="46.148960579456535" lon="9.77409082016619"><ele>328.0</ele><time>2026-03-28T16:34:46.97Z</time></trkpt><trkpt lat="46.14902900417116" lon="9.774199869510472"><ele>328.0</ele><time>2026-03-28T16:34:48.969Z</time></trkpt><trkpt lat="46.14899045632987" lon="9.774285692179918"><ele>328.0</ele><time>2026-03-28T16:34:51.969Z</time></trkpt><trkpt lat="46.14892975709585" lon="9.774188874591815"><ele>327.99999999999994</ele><time>2026-03-28T16:34:54.969Z</time></trkpt><trkpt lat="46.148876048161895" lon="9.774066780980467"><ele>328.0</ele><time>2026-03-28T16:34:56.969Z</time></trkpt><trkpt lat="46.14883219142935" lon="9.773994617884382"><ele>328.0</ele><time>2026-03-28T16:34:58.969Z</time></trkpt><trkpt lat="46.14876451148049" lon="9.774025811642504"><ele>328.0</ele><time>2026-03-28T16:35:17.969Z</time></trkpt><trkpt lat="46.14882736207217" lon="9.774032513465913"><ele>328.0</ele><time>2026-03-28T16:35:52.968Z</time></trkpt><trkpt lat="46.14886845323" lon="9.774103364921439"><ele>327.99999999999994</ele><time>2026-03-28T16:35:59.968Z</time></trkpt><trkpt lat="46.1489123081546" lon="9.774185095290006"><ele>328.0</ele><time>2026-03-28T16:36:03.968Z</time></trkpt><trkpt lat="46.148946330180536" lon="9.77426588587933"><ele>327.99999999999994</ele><time>2026-03-28T16:36:06.968Z</time></trkpt><trkpt lat="46.149029524700836" lon="9.774298310568968"><ele>328.0</ele><time>2026-03-28T16:36:10.968Z</time></trkpt><trkpt lat="46.14908490129607" lon="9.774356515207764"><ele>328.0</ele><time>2026-03-28T16:36:13.968Z</time></trkpt><trkpt lat="46.149152632353655" lon="9.774429386460541"><ele>328.0</ele><time>2026-03-28T16:36:15.968Z</time></trkpt><trkpt lat="46.14921440041885" lon="9.77440957965671"><ele>328.0</ele><time>2026-03-28T16:36:16.968Z</time></trkpt><trkpt lat="46.14927804058845" lon="9.774376884864434"><ele>327.99999999999994</ele><time>2026-03-28T16:36:17.968Z</time></trkpt><trkpt lat="46.149346074485365" lon="9.774351175480488"><ele>328.0</ele><time>2026-03-28T16:36:18.968Z</time></trkpt><trkpt lat="46.149389985399374" lon="9.774235218025296"><ele>318.79999999999995</ele><time>2026-03-28T16:36:31.968Z</time></trkpt><trkpt lat="46.14936697178131" lon="9.774131715610427"><ele>309.59999999999997</ele><time>2026-03-28T16:36:32.968Z</time></trkpt><trkpt lat="46.14933246354819" lon="9.774005679720897"><ele>300.4</ele><time>2026-03-28T16:36:33.968Z</time></trkpt><trkpt lat="46.14927814257475" lon="9.773861252654019"><ele>291.2</ele><time>2026-03-28T16:36:34.968Z</time></trkpt><trkpt lat="46.149218752664595" lon="9.773710789503893"><ele>282.0</ele><time>2026-03-28T16:36:35.968Z</time></trkpt><trkpt lat="46.149162614810194" lon="9.77356226091132"><ele>281.8</ele><time>2026-03-28T16:36:36.968Z</time></trkpt><trkpt lat="46.149115768120986" lon="9.773423571928824"><ele>281.6</ele><time>2026-03-28T16:36:37.968Z</time></trkpt><trkpt lat="46.14907129390443" lon="9.773291855038137"><ele>281.40000000000003</ele><time>2026-03-28T16:36:38.968Z</time></trkpt><trkpt lat="46.149035382866316" lon="9.773162669914178"><ele>281.2</ele><time>2026-03-28T16:36:39.968Z</time></trkpt><trkpt lat="46.14899469834146" lon="9.773022023036637"><ele>281.0</ele><time>2026-03-28T16:36:40.969Z</time></trkpt><trkpt lat="46.14895574790762" lon="9.772876659558863"><ele>285.0</ele><time>2026-03-28T16:36:41.969Z</time></trkpt><trkpt lat="46.1489230640912" lon="9.772728562748611"><ele>289.0</ele><time>2026-03-28T16:36:42.969Z</time></trkpt><trkpt lat="46.14888228933504" lon="9.772577670883097"><ele>293.0</ele><time>2026-03-28T16:36:43.969Z</time></trkpt><trkpt lat="46.14885772847122" lon="9.772417451885323"><ele>297.0</ele><time>2026-03-28T16:36:44.968Z</time></trkpt><trkpt lat="46.148810661672236" lon="9.772271547926891"><ele>301.0</ele><time>2026-03-28T16:36:45.968Z</time></trkpt><trkpt lat="46.14876017827284" lon="9.772147041682565"><ele>301.0</ele><time>2026-03-28T16:36:46.97Z</time></trkpt><trkpt lat="46.14872279349338" lon="9.772020480202698"><ele>301.0</ele><time>2026-03-28T16:36:47.969Z</time></trkpt><trkpt lat="46.14869297526253" lon="9.7719047372916"><ele>301.0</ele><time>2026-03-28T16:36:48.969Z</time></trkpt><trkpt lat="46.148652505484485" lon="9.771786725815339"><ele>301.0</ele><time>2026-03-28T16:36:49.969Z</time></trkpt><trkpt lat="46.148619584517654" lon="9.77166880011301"><ele>301.0</ele><time>2026-03-28T16:36:50.969Z</time></trkpt><trkpt lat="46.14858471523256" lon="9.771554699391517"><ele>301.0</ele><time>2026-03-28T16:36:51.969Z</time></trkpt><trkpt lat="46.14854547195431" lon="9.771452461666197"><ele>300.16666666666663</ele><time>2026-03-28T16:36:52.969Z</time></trkpt><trkpt lat="46.14850733488047" lon="9.771326658115694"><ele>299.3333333333333</ele><time>2026-03-28T16:36:53.969Z</time></trkpt><trkpt lat="46.14846712427182" lon="9.771213626738463"><ele>298.5</ele><time>2026-03-28T16:36:54.969Z</time></trkpt><trkpt lat="46.14843275237064" lon="9.771108524900775"><ele>297.6666666666667</ele><time>2026-03-28T16:36:55.969Z</time></trkpt><trkpt lat="46.148380391022684" lon="9.77100584209066"><ele>296.83333333333337</ele><time>2026-03-28T16:36:56.969Z</time></trkpt><trkpt lat="46.14833154615534" lon="9.770915227699804"><ele>296.0</ele><time>2026-03-28T16:36:57.969Z</time></trkpt><trkpt lat="46.148288714751914" lon="9.770828545979022"><ele>295.33333333333337</ele><time>2026-03-28T16:36:58.969Z</time></trkpt><trkpt lat="46.148251072839805" lon="9.770734418121474"><ele>294.6666666666667</ele><time>2026-03-28T16:36:59.969Z</time></trkpt><trkpt lat="46.14821365939002" lon="9.770626706296026"><ele>294.0</ele><time>2026-03-28T16:37:00.969Z</time></trkpt><trkpt lat="46.148189707243624" lon="9.770516683179487"><ele>293.3333333333333</ele><time>2026-03-28T16:37:01.969Z</time></trkpt><trkpt lat="46.14816237945545" lon="9.770410438591272"><ele>292.66666666666663</ele><time>2026-03-28T16:37:02.969Z</time></trkpt><trkpt lat="46.148133337512796" lon="9.770302223836442"><ele>292.0</ele><time>2026-03-28T16:37:03.969Z</time></trkpt><trkpt lat="46.1481069467898" lon="9.770198953139374"><ele>297.5</ele><time>2026-03-28T16:37:04.969Z</time></trkpt><trkpt lat="46.14809438976329" lon="9.770092102059737"><ele>303.0</ele><time>2026-03-28T16:37:05.969Z</time></trkpt><trkpt lat="46.14808859935541" lon="9.769977936918703"><ele>308.5</ele><time>2026-03-28T16:37:06.969Z</time></trkpt><trkpt lat="46.14809276435162" lon="9.769854280322111"><ele>314.0</ele><time>2026-03-28T16:37:07.969Z</time></trkpt><trkpt lat="46.1481062047887" lon="9.76973806556994"><ele>319.5</ele><time>2026-03-28T16:37:08.969Z</time></trkpt><trkpt lat="46.148114289863535" lon="9.76961740122846"><ele>325.0</ele><time>2026-03-28T16:37:09.969Z</time></trkpt><trkpt lat="46.148117852916116" lon="9.769498056087262"><ele>325.0</ele><time>2026-03-28T16:37:10.969Z</time></trkpt><trkpt lat="46.148120102965855" lon="9.769386513773847"><ele>325.0</ele><time>2026-03-28T16:37:11.969Z</time></trkpt><trkpt lat="46.148115594371596" lon="9.769271110370196"><ele>325.0</ele><time>2026-03-28T16:37:12.969Z</time></trkpt><trkpt lat="46.14811514460997" lon="9.769165657015987"><ele>325.0</ele><time>2026-03-28T16:37:13.969Z</time></trkpt><trkpt lat="46.14810888492601" lon="9.769060653078952"><ele>325.0</ele><time>2026-03-28T16:37:14.969Z</time></trkpt><trkpt lat="46.14810406438159" lon="9.768959130744257"><ele>325.0</ele><time>2026-03-28T16:37:15.969Z</time></trkpt><trkpt lat="46.1481074013992" lon="9.768858498414998"><ele>325.0</ele><time>2026-03-28T16:37:16.969Z</time></trkpt><trkpt lat="46.14810738811646" lon="9.768763530986359"><ele>324.16666666666663</ele><time>2026-03-28T16:37:17.969Z</time></trkpt><trkpt lat="46.14813567034675" lon="9.768621558168912"><ele>323.3333333333333</ele><time>2026-03-28T16:37:19.969Z</time></trkpt><trkpt lat="46.14818480579684" lon="9.768510602850258"><ele>322.5</ele><time>2026-03-28T16:37:21.969Z</time></trkpt><trkpt lat="46.14825752455667" lon="9.768452039407089"><ele>321.6666666666667</ele><time>2026-03-28T16:37:25.969Z</time></trkpt><trkpt lat="46.14831736060275" lon="9.768369214601169"><ele>320.83333333333337</ele><time>2026-03-28T16:37:30.969Z</time></trkpt><trkpt lat="46.14835888486062" lon="9.768266876856584"><ele>320.0</ele><time>2026-03-28T16:37:32.969Z</time></trkpt><trkpt lat="46.148375274094015" lon="9.768142947909931"><ele>317.1666666666667</ele><time>2026-03-28T16:37:34.969Z</time></trkpt><trkpt lat="46.14837251327509" lon="9.768049119472963"><ele>314.33333333333337</ele><time>2026-03-28T16:37:36.969Z</time></trkpt><trkpt lat="46.148374194538476" lon="9.767947087211876"><ele>311.5</ele><time>2026-03-28T16:37:38.969Z</time></trkpt><trkpt lat="46.148377853206874" lon="9.76780313844377"><ele>308.6666666666667</ele><time>2026-03-28T16:37:41.968Z</time></trkpt><trkpt lat="46.14836453317341" lon="9.76767992440375"><ele>305.8333333333333</ele><time>2026-03-28T16:37:43.968Z</time></trkpt><trkpt lat="46.148419275533854" lon="9.767572438702475"><ele>303.0</ele><time>2026-03-28T16:37:45.968Z</time></trkpt><trkpt lat="46.1484594726446" lon="9.767444953102952"><ele>303.0</ele><time>2026-03-28T16:37:47.968Z</time></trkpt><trkpt lat="46.148480107929124" lon="9.767320084012635"><ele>303.0</ele><time>2026-03-28T16:37:49.968Z</time></trkpt><trkpt lat="46.148511379858085" lon="9.767221303998943"><ele>303.0</ele><time>2026-03-28T16:37:51.968Z</time></trkpt><trkpt lat="46.1485439510267" lon="9.767116584534186"><ele>303.0</ele><time>2026-03-28T16:37:53.968Z</time></trkpt><trkpt lat="46.148577494523806" lon="9.766998540196298"><ele>303.0</ele><time>2026-03-28T16:37:56.968Z</time></trkpt><trkpt lat="46.1485532712278" lon="9.76686538925935"><ele>303.0</ele><time>2026-03-28T16:37:58.968Z</time></trkpt><trkpt lat="46.14845380410674" lon="9.766760923405664"><ele>303.3333333333333</ele><time>2026-03-28T16:38:01.968Z</time></trkpt><trkpt lat="46.148345864819895" lon="9.766696643542806"><ele>303.6666666666667</ele><time>2026-03-28T16:38:03.968Z</time></trkpt><trkpt lat="46.14827340344906" lon="9.766658423469929"><ele>304.0</ele><time>2026-03-28T16:38:05.968Z</time></trkpt><trkpt lat="46.14819385238198" lon="9.766647422347274"><ele>304.33333333333337</ele><time>2026-03-28T16:38:07.968Z</time></trkpt><trkpt lat="46.14809696065744" lon="9.766640951282268"><ele>304.6666666666667</ele><time>2026-03-28T16:38:09.968Z</time></trkpt><trkpt lat="46.14804546771433" lon="9.766709369681092"><ele>305.0</ele><time>2026-03-28T16:38:11.968Z</time></trkpt><trkpt lat="46.14805454556438" lon="9.766824509672695"><ele>306.0</ele><time>2026-03-28T16:38:13.968Z</time></trkpt><trkpt lat="46.14807165760513" lon="9.766938446607233"><ele>307.0</ele><time>2026-03-28T16:38:15.968Z</time></trkpt><trkpt lat="46.14797699688203" lon="9.767010022285332"><ele>308.0</ele><time>2026-03-28T16:39:42.969Z</time></trkpt><trkpt lat="46.14798466907951" lon="9.766911796332169"><ele>309.0</ele><time>2026-03-28T16:39:45.969Z</time></trkpt><trkpt lat="46.148001994509016" lon="9.766820993159408"><ele>310.0</ele><time>2026-03-28T16:39:46.969Z</time></trkpt><trkpt lat="46.14802259205267" lon="9.766714061231545"><ele>311.0</ele><time>2026-03-28T16:39:47.969Z</time></trkpt><trkpt lat="46.14800782101694" lon="9.766613484346271"><ele>311.0</ele><time>2026-03-28T16:39:48.968Z</time></trkpt><trkpt lat="46.14800544889418" lon="9.766467640031003"><ele>311.0</ele><time>2026-03-28T16:39:50.968Z</time></trkpt><trkpt lat="46.14799223122476" lon="9.766327003011803"><ele>311.0</ele><time>2026-03-28T16:39:52.968Z</time></trkpt><trkpt lat="46.14800431775742" lon="9.766197672610389"><ele>311.0</ele><time>2026-03-28T16:39:54.968Z</time></trkpt><trkpt lat="46.14804514167411" lon="9.766123606617095"><ele>311.0</ele><time>2026-03-28T16:39:56.968Z</time></trkpt><trkpt lat="46.14809185835955" lon="9.766043143581927"><ele>311.0</ele><time>2026-03-28T16:39:59.968Z</time></trkpt><trkpt lat="46.14813273425889" lon="9.765941839037517"><ele>310.8</ele><time>2026-03-28T16:40:01.968Z</time></trkpt><trkpt lat="46.148180966662835" lon="9.765837288724795"><ele>310.6</ele><time>2026-03-28T16:40:04.968Z</time></trkpt><trkpt lat="46.148241259048284" lon="9.765735390325831"><ele>310.4</ele><time>2026-03-28T16:40:06.968Z</time></trkpt><trkpt lat="46.14830988020586" lon="9.765628392758334"><ele>310.2</ele><time>2026-03-28T16:40:08.968Z</time></trkpt><trkpt lat="46.148401701624024" lon="9.765529726281013"><ele>310.0</ele><time>2026-03-28T16:40:10.968Z</time></trkpt><trkpt lat="46.14849378184703" lon="9.765506991529183"><ele>308.4</ele><time>2026-03-28T16:40:12.968Z</time></trkpt><trkpt lat="46.14858527873462" lon="9.765423111379228"><ele>306.8</ele><time>2026-03-28T16:40:14.968Z</time></trkpt><trkpt lat="46.148692930841825" lon="9.765359710977792"><ele>305.2</ele><time>2026-03-28T16:40:16.968Z</time></trkpt><trkpt lat="46.14879019291097" lon="9.765307952538778"><ele>303.6</ele><time>2026-03-28T16:40:18.968Z</time></trkpt><trkpt lat="46.1488558890144" lon="9.765252788550194"><ele>302.0</ele><time>2026-03-28T16:40:20.968Z</time></trkpt><trkpt lat="46.14894780836523" lon="9.765205255601746"><ele>300.4</ele><time>2026-03-28T16:40:22.968Z</time></trkpt><trkpt lat="46.14904774730105" lon="9.765151295131869"><ele>298.79999999999995</ele><time>2026-03-28T16:40:24.968Z</time></trkpt><trkpt lat="46.149151264112014" lon="9.765103946577629"><ele>297.2</ele><time>2026-03-28T16:40:26.968Z</time></trkpt><trkpt lat="46.149242996079195" lon="9.765052400214971"><ele>295.59999999999997</ele><time>2026-03-28T16:40:28.968Z</time></trkpt><trkpt lat="46.149342487569484" lon="9.764998249688842"><ele>294.0</ele><time>2026-03-28T16:40:30.968Z</time></trkpt><trkpt lat="46.14945025965605" lon="9.764941356886084"><ele>294.0</ele><time>2026-03-28T16:40:32.968Z</time></trkpt><trkpt lat="46.14955943037649" lon="9.764869076864425"><ele>294.0</ele><time>2026-03-28T16:40:34.968Z</time></trkpt><trkpt lat="46.14962075771855" lon="9.764839403867754"><ele>294.0</ele><time>2026-03-28T16:40:35.968Z</time></trkpt><trkpt lat="46.14968444333392" lon="9.764817062565754"><ele>294.0</ele><time>2026-03-28T16:40:36.968Z</time></trkpt><trkpt lat="46.14974754616612" lon="9.764800696905484"><ele>294.0</ele><time>2026-03-28T16:40:37.968Z</time></trkpt><trkpt lat="46.149808453540636" lon="9.76476153853543"><ele>294.0</ele><time>2026-03-28T16:40:38.968Z</time></trkpt><trkpt lat="46.14992103308955" lon="9.764707681515102"><ele>293.0</ele><time>2026-03-28T16:40:40.968Z</time></trkpt><trkpt lat="46.14998204471472" lon="9.7646772516832"><ele>292.0</ele><time>2026-03-28T16:40:41.968Z</time></trkpt><trkpt lat="46.15009802767955" lon="9.764652532892315"><ele>291.0</ele><time>2026-03-28T16:40:43.968Z</time></trkpt><trkpt lat="46.150188259185775" lon="9.764625816031353"><ele>290.0</ele><time>2026-03-28T16:40:45.968Z</time></trkpt><trkpt lat="46.15028232061182" lon="9.76461070617186"><ele>289.0</ele><time>2026-03-28T16:40:47.968Z</time></trkpt><trkpt lat="46.150361608701594" lon="9.764635531394335"><ele>289.0</ele><time>2026-03-28T16:40:49.968Z</time></trkpt><trkpt lat="46.150423465224605" lon="9.76460661303684"><ele>289.0</ele><time>2026-03-28T16:40:56.968Z</time></trkpt><trkpt lat="46.15043561258102" lon="9.764464846985238"><ele>289.0</ele><time>2026-03-28T16:40:58.969Z</time></trkpt><trkpt lat="46.15041211304788" lon="9.764306468044538"><ele>289.0</ele><time>2026-03-28T16:40:59.968Z</time></trkpt><trkpt lat="46.15039247727887" lon="9.76414683172709"><ele>289.0</ele><time>2026-03-28T16:41:00.968Z</time></trkpt><trkpt lat="46.15036675912049" lon="9.764050997794461"><ele>288.59999999999997</ele><time>2026-03-28T16:41:01.968Z</time></trkpt><trkpt lat="46.15038208034494" lon="9.763901414569213"><ele>288.2</ele><time>2026-03-28T16:41:03.969Z</time></trkpt><trkpt lat="46.15051564453286" lon="9.763905327485574"><ele>287.79999999999995</ele><time>2026-03-28T16:41:05.969Z</time></trkpt><trkpt lat="46.150589564256165" lon="9.763904599854385"><ele>287.4</ele><time>2026-03-28T16:41:06.969Z</time></trkpt><trkpt lat="46.150665256261696" lon="9.76387998912732"><ele>287.0</ele><time>2026-03-28T16:41:07.969Z</time></trkpt><trkpt lat="46.150734781123184" lon="9.763858121550628"><ele>286.5</ele><time>2026-03-28T16:41:08.969Z</time></trkpt><trkpt lat="46.15080757677387" lon="9.763846251250413"><ele>286.0</ele><time>2026-03-28T16:41:09.969Z</time></trkpt><trkpt lat="46.15088813653153" lon="9.76384267411373"><ele>285.5</ele><time>2026-03-28T16:41:10.969Z</time></trkpt><trkpt lat="46.15096372232769" lon="9.763847095076562"><ele>285.0</ele><time>2026-03-28T16:41:11.969Z</time></trkpt><trkpt lat="46.151042462251844" lon="9.763839950587254"><ele>284.5</ele><time>2026-03-28T16:41:12.969Z</time></trkpt><trkpt lat="46.15112858431662" lon="9.763839693179177"><ele>284.0</ele><time>2026-03-28T16:41:13.969Z</time></trkpt><trkpt lat="46.151206261529005" lon="9.763843425448034"><ele>284.0</ele><time>2026-03-28T16:41:14.969Z</time></trkpt><trkpt lat="46.15127657630886" lon="9.76384672377566"><ele>284.0</ele><time>2026-03-28T16:41:15.969Z</time></trkpt><trkpt lat="46.15136284198753" lon="9.763852649692943"><ele>284.0</ele><time>2026-03-28T16:41:16.969Z</time></trkpt><trkpt lat="46.15144422119712" lon="9.763849151842594"><ele>284.0</ele><time>2026-03-28T16:41:17.969Z</time></trkpt><trkpt lat="46.15152789838201" lon="9.763851867828839"><ele>284.0</ele><time>2026-03-28T16:41:18.969Z</time></trkpt><trkpt lat="46.15160641483297" lon="9.763859045286251"><ele>284.0</ele><time>2026-03-28T16:41:19.969Z</time></trkpt><trkpt lat="46.151674994803905" lon="9.76385736306626"><ele>283.5</ele><time>2026-03-28T16:41:20.969Z</time></trkpt><trkpt lat="46.15174328795847" lon="9.76385317736581"><ele>283.0</ele><time>2026-03-28T16:41:21.969Z</time></trkpt><trkpt lat="46.151814944439934" lon="9.763857935129614"><ele>282.5</ele><time>2026-03-28T16:41:22.969Z</time></trkpt><trkpt lat="46.151888666962726" lon="9.763862971690125"><ele>282.0</ele><time>2026-03-28T16:41:23.969Z</time></trkpt><trkpt lat="46.15195905375313" lon="9.763863704800643"><ele>281.5</ele><time>2026-03-28T16:41:24.969Z</time></trkpt><trkpt lat="46.15207931517232" lon="9.763877771735391"><ele>281.0</ele><time>2026-03-28T16:41:26.969Z</time></trkpt><trkpt lat="46.15218379804664" lon="9.763901687377349"><ele>281.0</ele><time>2026-03-28T16:41:28.968Z</time></trkpt><trkpt lat="46.152289178981675" lon="9.76392684419484"><ele>281.0</ele><time>2026-03-28T16:41:30.968Z</time></trkpt><trkpt lat="46.15240459511904" lon="9.763963325753565"><ele>281.0</ele><time>2026-03-28T16:41:32.968Z</time></trkpt><trkpt lat="46.15246984005426" lon="9.763980363049223"><ele>281.0</ele><time>2026-03-28T16:41:33.968Z</time></trkpt><trkpt lat="46.15259005972535" lon="9.764028542643182"><ele>281.0</ele><time>2026-03-28T16:41:35.968Z</time></trkpt><trkpt lat="46.15265351758907" lon="9.764048846636117"><ele>280.6</ele><time>2026-03-28T16:41:36.968Z</time></trkpt><trkpt lat="46.15272769958106" lon="9.764068242709124"><ele>280.20000000000005</ele><time>2026-03-28T16:41:37.968Z</time></trkpt><trkpt lat="46.15279127854993" lon="9.764090665426595"><ele>279.79999999999995</ele><time>2026-03-28T16:41:38.968Z</time></trkpt><trkpt lat="46.152907118523935" lon="9.764125763744227"><ele>279.4</ele><time>2026-03-28T16:41:40.968Z</time></trkpt><trkpt lat="46.15302014717745" lon="9.76415844586672"><ele>279.0</ele><time>2026-03-28T16:41:42.968Z</time></trkpt><trkpt lat="46.15312635848361" lon="9.764195895321745"><ele>278.6666666666667</ele><time>2026-03-28T16:41:44.968Z</time></trkpt><trkpt lat="46.15323763964202" lon="9.764228779035065"><ele>278.3333333333333</ele><time>2026-03-28T16:41:46.968Z</time></trkpt><trkpt lat="46.15330629164353" lon="9.764239683301183"><ele>278.0</ele><time>2026-03-28T16:41:47.968Z</time></trkpt><trkpt lat="46.153370615235836" lon="9.764251758070499"><ele>277.66666666666663</ele><time>2026-03-28T16:41:48.968Z</time></trkpt><trkpt lat="46.15348524043414" lon="9.764270912846316"><ele>277.3333333333333</ele><time>2026-03-28T16:41:50.968Z</time></trkpt><trkpt lat="46.15356988803248" lon="9.764282761876704"><ele>277.0</ele><time>2026-03-28T16:41:52.968Z</time></trkpt><trkpt lat="46.15364230542041" lon="9.764255080141147"><ele>277.0</ele><time>2026-03-28T16:41:54.968Z</time></trkpt><trkpt lat="46.15371080544996" lon="9.764212432851085"><ele>277.0</ele><time>2026-03-28T16:42:37.968Z</time></trkpt><trkpt lat="46.15380421069031" lon="9.764243333938305"><ele>277.0</ele><time>2026-03-28T16:42:41.968Z</time></trkpt><trkpt lat="46.15386624625996" lon="9.764199488222031"><ele>277.0</ele><time>2026-03-28T16:43:19.969Z</time></trkpt></trkseg></trk></gpx>